GFSSE_prec_cloud_003.txt.gz
Cloud_Cover
41 42 11 18 30 13 95 59 49 100 76 5 71 20 94 78 72 94 40 92 91 18 100 100 70 97 97 100 100 95 5 91 24 77 100 94 100 5 49 100 100 35 16
96 73 67 25 61 58 81 59 74 5 5 2 9 47 83 100 92 96 99 100 100 100 100 100 100 100 100 100 100 99 100 89 99 87 100 100 70 5 4 5 99 90 100
100 25 5 59 88 80 100 100 57 100 40 5 5 4 30 64 100 100 100 100 100 100 100 100 100 100 100 100 100 100 100 100 100 100 100 49 38 58 5 16 13 100 100
97 94 74 66 86 100 10 14 43 2 7 84 67 19 21 45 98 100 100 100 100 100 100 100 100 100 100 100 100 100 100 100 100 100 100 53 73 98 100 100 69 35 7
100 90 7 2 0 0 0 1 0 4 3 52 72 100 78 98 100 100 100 100 100 100 100 100 100 100 100 100 100 100 100 100 100 48 41 34 6 36 100 100 100 94 100
55 67 18 0 0 0 0 0 2 0 1 1 0 54 42 100 96 100 100 100 100 100 100 100 100 100 100 100 100 98 100 100 100 35 42 91 7 3 100 100 100 100 87
20 37 33 0 0 0 0 0 0 4 2 0 0 0 2 33 79 96 100 100 100 100 100 100 100 100 100 100 99 100 74 75 58 28 19 92 44 65 100 100 100 74 100
3 31 16 20 0 0 0 0 0 0 0 0 0 0 0 1 2 4 100 100 100 100 100 100 100 100 100 100 100 100 100 100 84 4 8 18 79 76 94 100 100 100 100
0 0 0 0 0 0 0 0 0 0 0 0 0 0 0 0 0 0 76 100 100 100 100 100 100 100 100 100 100 100 100 100 100 48 62 49 5 11 5 89 100 100 100
0 0 0 0 3 6 19 0 0 0 0 0 0 0 0 0 0 0 0 100 100 100 100 100 100 100 100 100 100 100 100 100 29 78 100 100 60 22 35 6 100 100 100
0 0 0 0 1 0 0 0 0 0 0 1 2 0 7 87 70 0 1 52 100 100 100 100 100 100 100 100 100 100 100 100 52 8 81 100 100 32 100 100 100 100 100
0 0 0 0 0 0 0 0 23 76 7 0 6 12 1 38 89 84 23 5 95 100 100 100 100 100 100 100 100 100 100 76 36 19 72 96 100 47 100 100 100 100 100
4 0 1 2 0 4 9 54 91 2 31 12 0 0 9 6 12 31 49 12 13 70 100 100 100 100 100 100 100 100 100 100 52 11 12 3 32 90 100 100 100 100 100
5 0 3 0 0 0 7 46 62 33 0 0 0 0 3 2 12 27 79 90 100 100 100 100 100 100 100 100 100 100 100 100 100 96 47 5 6 90 77 100 99 100 100
0 0 0 0 0 0 0 0 0 0 0 0 0 0 0 0 4 9 5 45 100 100 100 100 100 100 100 100 100 100 100 100 100 86 41 53 97 100 100 100 100 100 59
0 0 0 0 0 0 0 0 0 0 0 0 0 0 0 0 0 5 57 100 100 100 100 100 100 100 100 100 100 100 100 100 100 100 97 99 78 100 100 100 100 100 98
0 0 0 0 0 0 0 0 0 0 0 2 5 3 0 0 0 5 48 26 98 100 100 100 92 100 100 100 100 100 100 100 100 100 100 98 100 100 100 100 100 100 83
1 0 0 2 0 0 0 0 0 0 0 0 0 0 0 0 0 4 66 100 52 100 100 100 100 100 100 100 100 100 100 100 100 100 100 100 94 91 73 100 100 100 100
3 5 3 3 0 4 5 5 0 5 5 5 2 0 0 0 0 0 42 100 79 48 100 100 100 100 100 100 100 100 100 100 100 100 100 100 100 83 80 27 100 100 100
34 6 8 23 68 9 5 4 15 5 2 5 5 12 3 0 0 0 5 99 100 92 40 98 100 100 100 100 100 100 100 100 100 100 100 100 100 100 100 59 77 100 100
49 5 65 97 88 98 34 84 88 94 58 18 9 7 5 3 0 0 0 2 97 100 100 49 98 100 100 100 100 100 100 100 100 100 100 100 100 100 97 100 91 95 94
31 73 80 40 33 7 14 99 100 100 100 100 96 53 52 21 3 4 0 0 2 94 100 100 91 100 100 100 100 100 100 100 100 100 100 100 100 100 76 100 97 57 78
7 5 7 40 25 95 97 93 88 100 100 100 100 100 94 91 74 6 5 5 5 5 86 100 100 47 100 100 100 100 100 100 100 100 100 100 100 100 89 98 100 98 35
5 5 5 5 11 15 60 68 34 37 100 100 100 100 100 99 100 81 100 95 77 13 7 46 99 35 15 43 100 100 100 100 100 100 100 100 100 100 100 100 100 96 98
72 68 65 56 88 32 59 95 97 100 100 100 100 100 100 100 100 100 100 100 94 100 99 84 85 98 88 67 90 100 100 100 100 100 100 100 100 100 98 100 100 100 64
100 81 99 100 100 71 88 82 100 100 100 100 100 100 100 100 100 100 100 100 100 100 100 76 89 93 87 100 95 77 72 97 100 100 100 100 100 100 100 100 96 100 100

GFSSE_prec_cloud_009.txt.gz
Cloud_Cover
76 96 100 100 100 100 100 100 98 100 100 92 57 9 34 95 5 32 52 100 100 100 100 100 98 100 100 100 100 100 100 73 99 100 100 100 100 5 3 77 100 85 100
84 27 100 100 100 100 100 30 8 11 56 100 96 100 99 3 68 4 5 50 100 100 88 100 100 99 100 93 100 100 100 99 96 100 100 90 93 95 25 42 48 100 100
97 99 78 100 100 93 84 100 69 89 100 100 53 100 9 8 15 0 9 13 100 100 100 100 100 100 100 100 100 100 100 100 100 94 96 100 100 99 100 100 28 100 100
100 100 100 49 37 18 5 4 62 86 95 71 98 73 99 11 3 16 66 4 99 68 43 100 100 100 100 100 100 100 100 100 100 100 100 100 100 100 100 100 100 26 56
65 96 99 2 0 5 5 4 0 0 0 0 3 24 2 4 10 100 31 0 48 5 8 100 100 100 100 100 100 100 100 100 100 99 82 100 100 100 100 100 39 100 32
5 6 48 56 94 17 5 5 5 14 0 0 0 0 5 0 51 71 7 0 5 5 59 100 100 100 100 100 100 100 100 100 100 100 100 100 100 100 100 100 100 100 55
92 100 66 35 1 0 0 4 32 31 0 0 0 0 0 3 30 8 0 3 4 5 100 100 100 100 100 100 100 100 100 100 100 100 100 98 100 100 100 79 6 5 5
89 86 7 0 0 22 40 2 0 0 0 0 0 0 0 0 0 0 0 2 0 5 100 100 100 100 100 100 100 100 100 100 100 100 100 100 100 100 100 93 53 5 5
52 11 0 0 0 0 0 0 0 0 0 0 0 0 0 0 0 2 0 0 7 0 35 98 100 100 100 100 100 100 100 100 100 100 100 100 100 98 99 7 4 5 5
0 0 0 0 0 0 0 0 0 0 0 0 0 0 0 0 0 0 0 0 1 0 0 52 100 100 100 100 100 100 100 100 100 100 100 89 100 92 80 74 6 5 5
0 0 0 0 0 0 0 0 0 0 0 0 0 0 0 6 0 30 67 0 0 0 0 0 75 100 100 100 100 100 100 96 100 100 100 100 100 47 13 26 17 100 10
2 0 0 0 0 0 0 0 0 2 5 2 6 4 0 0 0 0 0 0 0 0 0 0 23 100 100 100 100 100 100 100 100 98 17 99 100 97 100 89 5 18 4
0 0 0 0 0 0 0 0 0 0 0 0 0 0 0 0 0 5 18 1 4 0 0 0 0 100 100 100 100 100 100 100 100 100 99 100 100 100 100 100 86 100 31
0 0 0 0 0 0 0 0 0 0 0 0 1 1 0 0 0 0 0 26 0 0 1 0 9 46 100 100 100 100 100 100 100 100 100 100 100 100 92 100 100 100 100
0 0 0 0 1 2 2 2 14 20 6 1 5 5 5 12 76 26 3 1 2 1 2 10 35 18 83 90 86 100 100 100 100 100 100 100 100 100 100 97 100 100 100
0 0 0 0 0 5 2 5 17 5 5 3 9 3 4 1 10 11 5 5 4 2 5 5 2 4 15 97 100 68 99 100 100 100 100 100 100 100 100 100 100 100 100
4 1 0 0 5 14 27 62 5 5 28 7 5 5 5 4 1 5 56 100 10 99 98 86 93 4 1 3 74 100 100 100 100 100 100 100 100 100 100 100 100 100 100
5 7 6 7 5 39 71 91 99 22 45 30 10 6 5 5 5 5 4 50 58 5 27 88 100 73 16 5 1 16 91 100 100 100 100 100 100 100 100 100 100 100 100
98 100 100 100 100 100 100 100 100 100 94 100 100 99 71 9 9 5 5 5 5 5 6 59 29 100 84 92 6 1 0 68 100 100 100 100 100 100 100 100 100 100 100
100 100 100 100 100 100 100 100 100 100 95 63 10 32 99 95 41 88 32 5 5 3 4 2 4 41 5 7 10 5 0 0 12 100 100 100 100 100 100 100 100 100 100
100 100 22 5 56 92 90 100 53 72 98 5 5 87 100 94 15 100 90 12 5 5 5 5 5 5 5 5 5 6 20 6 0 18 79 100 100 100 100 100 100 100 100
5 5 5 6 5 5 9 38 50 24 57 100 100 98 5 28 69 100 100 96 55 73 11 5 5 5 5 5 5 5 13 100 82 4 5 81 100 100 100 100 100 100 100
94 90 64 5 5 5 5 28 18 5 68 100 100 14 37 99 84 99 100 100 100 99 98 5 5 5 5 5 5 40 8 26 100 95 5 4 100 100 100 100 100 100 100
65 60 49 21 5 6 5 5 5 5 6 36 100 99 100 100 100 88 98 95 100 100 99 93 100 66 60 7 5 51 6 42 100 100 100 21 5 93 100 100 100 100 100
26 100 96 89 100 94 68 5 5 5 38 100 100 100 100 99 100 100 100 100 100 100 99 88 57 30 100 100 76 24 56 94 100 100 100 100 76 58 55 100 100 100 100
100 100 100 100 98 98 96 92 66 84 100 100 100 98 83 80 96 100 100 100 100 100 100 100 100 100 100 72 67 100 65 87 100 100 100 100 100 95 99 67 100 100 100

GFSSE_prec_cloud_012.txt.gz
Cloud_Cover
72 98 85 66 100 100 100 100 100 100 100 100 100 100 100 100 70 100 58 32 2 75 100 100 100 46 100 100 100 100 100 100 100 100 100 100 100 81 51 100 100 100 100
86 100 100 100 100 100 100 97 100 100 92 68 44 96 94 97 100 100 24 93 0 5 89 99 100 99 100 100 100 100 100 100 100 100 100 100 99 100 100 5 86 100 100
100 100 100 100 100 100 100 100 100 100 54 89 78 100 100 48 95 18 99 100 24 6 10 100 100 98 98 100 100 100 100 100 100 100 100 100 100 100 100 48 58 100 94
77 91 90 96 63 100 100 100 86 5 5 3 0 11 35 73 6 63 94 63 42 14 8 91 100 56 98 100 100 100 100 100 100 100 100 100 100 100 98 61 36 72 5
74 94 100 59 100 100 100 99 74 41 26 33 5 4 1 0 0 0 51 48 89 51 3 0 100 64 94 100 100 100 100 100 100 100 100 100 100 100 100 71 53 88 94
100 35 48 99 100 100 100 85 99 50 62 2 0 0 5 3 0 0 5 5 49 100 98 22 54 100 100 100 100 100 100 100 100 100 100 100 100 100 100 100 100 100 100
65 100 100 100 100 100 14 36 12 1 1 0 0 0 0 3 1 0 2 4 0 0 0 26 88 64 100 100 100 100 100 100 100 100 100 100 100 100 100 100 100 100 100
100 100 100 100 100 43 4 0 0 0 0 0 0 0 0 1 0 0 0 0 0 0 0 0 66 25 100 100 100 100 100 100 100 99 100 100 100 100 100 100 100 100 100
100 100 100 91 1 0 0 0 0 0 0 0 0 0 0 0 0 0 0 0 0 0 0 0 3 14 100 100 100 100 100 100 100 100 100 100 99 96 13 99 100 100 90
94 90 0 0 0 0 0 0 0 0 0 0 0 0 0 0 0 0 0 0 0 0 0 0 0 6 100 100 100 100 100 100 100 100 100 100 100 100 100 98 100 92 54
0 0 0 0 0 0 0 0 0 0 0 0 0 0 0 1 3 0 0 0 0 0 0 0 0 35 100 100 100 100 100 100 100 100 100 100 100 100 98 95 100 100 94
1 0 0 0 0 0 0 0 0 0 0 0 0 1 2 5 0 0 0 0 4 0 0 0 0 0 22 100 100 100 100 100 100 100 100 100 100 100 97 97 5 27 100
0 0 0 0 0 0 0 0 1 0 0 0 3 5 4 5 2 3 9 16 10 1 3 0 0 0 0 35 75 15 100 100 100 100 100 100 100 100 100 52 73 84 66
0 0 0 0 0 2 0 1 1 0 5 2 5 14 27 5 1 5 11 3 5 3 4 1 13 6 0 0 2 17 23 100 100 100 100 100 100 100 100 100 100 45 20
5 5 5 5 5 5 11 81 13 19 5 18 53 16 5 6 3 5 4 4 0 0 1 2 50 78 19 17 43 89 47 46 100 100 100 100 100 100 100 100 98 100 99
5 5 5 10 8 37 74 100 100 100 93 25 5 29 6 46 91 97 85 42 10 10 75 19 3 0 0 1 1 3 24 25 100 100 100 100 100 100 100 100 100 100 100
5 49 100 99 74 69 6 74 80 100 100 100 100 17 24 60 87 77 53 5 5 32 23 9 5 15 5 5 5 0 4 1 42 100 100 100 100 100 100 100 100 100 100
100 100 100 100 80 95 81 64 98 100 85 99 99 6 24 86 38 100 34 15 40 69 50 13 18 5 0 0 9 51 5 5 7 94 100 100 100 100 100 100 100 100 100
59 75 94 100 99 92 98 92 72 92 98 100 100 81 43 100 99 94 71 10 38 95 47 24 7 5 5 2 1 0 0 1 57 66 28 98 100 100 100 100 100 100 100
41 14 5 64 14 8 22 32 5 20 18 5 21 50 76 94 31 5 97 100 100 100 99 47 8 5 5 5 5 5 3 1 5 19 68 77 19 96 100 100 100 100 100
5 5 5 5 5 5 5 5 5 5 5 5 5 5 5 5 5 5 5 66 88 96 19 18 5 32 11 34 5 5 5 5 5 4 5 38 99 11 73 100 100 100 100
5 6 5 5 5 6 52 8 42 69 27 8 5 5 29 18 5 49 14 5 5 72 83 21 5 38 16 5 11 5 5 13 5 11 5 6 5 30 18 91 100 100 100
4 16 14 15 5 12 55 29 8 16 18 9 5 5 16 32 14 32 76 66 87 98 95 58 81 100 100 100 74 43 8 4 5 24 6 21 5 12 7 97 94 100 100
9 55 19 76 83 58 11 6 5 5 5 5 5 5 5 5 5 5 43 99 100 100 100 93 81 100 100 100 42 100 88 64 5 18 59 98 74 64 98 92 100 92 100
5 5 7 68 85 100 100 100 100 76 84 28 32 5 5 5 5 5 10 79 89 86 90 100 100 100 100 74 39 70 86 80 68 5 46 81 100 93 100 100 100 100 62
8 85 83 100 100 100 100 100 100 100 100 81 10 5 5 5 22 65 99 100 99 74 76 100 100 100 100 100 89 74 13 93 84 21 1 2 36 100 90 100 100 100 100

GFSSE_prec_cloud_015.txt.gz
Cloud_Cover
100 100 100 100 100 100 100 100 100 100 96 100 80 84 100 100 88 93 89 40 22 66 99 87 54 5 17 100 100 40 100 97 100 100 100 100 100 100 98 72 87 5 100
100 100 100 100 100 67 56 100 100 100 100 100 62 79 9 20 90 5 3 5 52 10 74 5 5 38 100 100 99 100 100 100 100 100 100 100 100 100 100 100 100 100 17
100 100 100 100 100 96 92 100 100 100 97 6 22 9 62 12 96 8 27 2 3 5 9 100 5 4 100 100 100 100 100 100 100 100 100 100 100 100 100 100 100 100 86
100 100 100 100 98 100 100 100 100 100 71 93 100 100 5 5 5 2 2 4 61 33 5 5 42 3 29 100 100 100 100 100 100 100 100 100 100 100 100 100 100 100 100
99 86 12 27 99 100 100 100 100 100 100 100 100 66 19 16 6 12 7 0 1 2 4 52 95 36 7 63 100 100 100 100 100 100 100 100 100 100 100 100 100 100 100
5 31 81 98 96 69 100 100 100 100 100 56 52 89 22 54 1 0 0 94 12 14 13 12 100 99 74 4 100 100 100 100 100 100 100 100 100 100 100 100 100 100 99
61 50 54 23 47 100 100 100 27 59 100 100 22 2 0 0 0 0 0 0 0 0 0 4 0 2 9 8 18 100 100 100 100 100 100 100 100 100 100 100 100 100 98
11 76 93 100 100 100 100 62 35 28 7 0 0 0 13 5 0 0 0 0 0 0 0 0 0 0 0 0 1 100 100 100 100 100 100 100 100 100 100 100 100 100 90
74 100 100 100 100 72 0 0 0 0 0 0 0 0 0 0 0 0 0 0 4 12 10 0 0 0 0 0 0 13 100 100 100 100 100 100 100 100 100 100 100 100 100
86 97 40 0 0 0 0 0 0 0 0 0 0 0 0 0 0 0 0 0 1 0 1 2 0 12 0 0 0 0 3 59 100 100 100 100 100 100 100 100 97 100 100
0 0 0 0 0 0 0 0 0 0 0 0 0 0 0 0 0 0 0 0 0 0 0 0 0 0 0 0 0 0 0 20 100 100 100 100 100 100 100 100 100 100 32
0 0 0 0 0 0 0 0 0 0 0 0 0 16 6 0 0 0 0 0 0 0 0 0 0 0 0 0 0 0 0 46 96 100 100 100 100 100 69 100 97 71 96
0 0 0 0 1 4 0 3 4 4 12 2 0 5 8 13 7 9 18 19 0 2 2 4 5 7 4 3 1 2 0 79 100 100 100 100 100 100 87 59 87 100 18
7 16 24 5 9 58 89 100 100 100 100 82 89 47 94 53 30 68 94 72 35 35 4 1 15 7 0 0 5 5 20 96 100 100 100 100 100 100 100 100 30 98 100
5 82 100 84 40 87 100 100 100 100 100 90 54 40 5 57 64 66 88 100 100 100 100 100 93 49 29 1 2 4 14 20 45 100 100 100 100 100 100 100 100 99 90
5 5 5 45 69 100 38 39 27 39 13 5 5 23 38 14 16 39 68 100 98 88 83 66 74 92 100 100 76 2 4 17 5 16 100 100 100 100 100 100 100 100 100
20 5 5 5 5 7 10 8 5 5 6 5 5 5 5 5 5 5 5 5 7 12 34 17 60 33 5 8 37 33 79 3 6 5 5 30 100 100 100 100 100 100 100
6 5 5 2 3 5 5 5 5 5 5 5 5 5 5 5 5 5 5 5 5 5 5 5 5 5 5 5 5 1 4 14 12 3 1 4 5 45 100 100 100 100 100
4 5 5 5 5 5 5 4 3 5 5 5 5 5 5 5 5 5 5 5 5 5 13 21 24 14 2 1 2 3 1 2 4 4 5 0 0 0 2 35 66 100 100
4 0 0 0 0 0 1 5 5 5 5 55 81 72 15 5 7 5 5 5 5 17 49 85 62 8 3 5 2 0 1 3 0 0 0 0 0 0 0 0 4 5 72
0 0 0 0 5 5 5 5 5 5 72 71 30 78 37 26 5 5 5 5 5 5 5 5 5 4 5 5 3 5 5 5 5 5 5 5 5 0 0 0 0 0 4
0 4 0 0 2 5 5 5 4 5 5 5 4 8 46 58 58 50 14 5 5 5 5 5 5 5 5 5 4 1 4 2 5 17 5 5 10 4 0 0 4 4 1
0 2 3 5 3 4 5 5 20 5 0 0 4 2 3 2 5 5 5 5 5 6 5 5 5 51 82 91 87 71 33 27 9 38 82 94 50 4 0 0 6 33 5
5 5 61 95 100 100 100 100 100 100 100 100 100 100 92 53 76 61 5 41 91 90 83 69 7 5 18 63 87 100 100 100 100 76 100 20 5 5 5 0 6 76 17
82 100 100 98 100 100 100 100 98 99 100 100 99 92 16 18 5 5 6 80 95 100 100 96 82 45 80 96 92 100 100 100 100 77 5 97 71 33 55 59 6 5 17
100 100 82 25 23 6 28 40 45 5 24 7 5 5 16 8 4 2 5 5 67 100 90 100 88 100 98 100 89 100 100 99 65 97 100 7 14 6 85 100 100 78 6

GFSSE_prec_cloud_018.txt.gz
Cloud_Cover
83 97 90 61 86 94 100 100 100 100 51 100 100 99 100 100 88 97 86 100 100 41 77 26 5 0 3 83 69 81 100 100 100 98 100 100 81 100 60 100 98 12 24
68 99 47 35 98 100 100 100 91 100 100 100 100 100 100 59 99 21 72 100 40 5 44 38 7 14 0 87 75 100 100 100 100 100 100 100 100 100 100 100 100 99 12
61 100 100 100 100 100 100 100 94 28 100 100 100 100 100 100 99 92 86 91 99 100 67 34 64 80 2 100 66 100 100 99 100 100 95 100 100 100 100 100 100 100 100
100 100 100 100 100 100 100 100 68 5 92 99 82 41 62 100 100 96 80 37 100 48 9 100 100 84 73 100 100 99 71 100 100 100 100 100 100 100 100 100 100 100 100
100 100 100 100 100 100 43 97 99 83 81 100 100 94 100 100 100 93 87 72 94 100 99 42 18 2 1 12 82 93 45 42 98 100 100 100 100 100 96 100 100 100 100
88 73 5 6 71 100 5 94 84 20 11 100 100 93 66 22 7 1 2 7 1 0 0 22 7 0 0 0 10 79 5 0 100 100 100 100 100 100 100 100 98 100 100
100 99 14 14 86 31 5 42 19 5 100 4 2 3 0 0 0 0 0 0 0 0 0 37 0 0 0 0 0 0 0 0 4 99 100 100 100 100 100 100 100 100 100
89 4 44 19 59 2 5 5 5 2 0 0 0 0 4 0 0 0 0 0 0 0 0 0 0 0 0 0 0 0 0 0 2 32 84 100 100 100 100 100 100 100 100
1 0 0 2 1 0 0 0 0 0 0 0 0 0 0 0 0 0 4 28 34 28 27 12 1 7 47 18 0 0 0 0 0 1 98 100 100 100 100 100 100 100 100
0 0 0 0 0 0 0 0 0 0 0 0 0 0 0 0 0 0 0 2 0 0 5 4 12 0 0 0 0 0 0 0 0 0 46 100 100 100 100 100 100 100 100
0 0 0 0 0 0 0 0 0 0 0 0 0 0 2 3 1 0 0 0 0 0 0 0 0 2 0 0 0 0 0 0 0 0 0 73 100 100 100 100 100 100 100
0 0 0 0 0 0 0 5 4 5 6 8 6 5 5 5 5 5 5 4 2 0 0 0 0 1 5 5 4 4 0 0 0 0 0 4 100 100 100 100 100 100 100
0 0 0 1 1 5 0 0 5 5 5 4 4 22 19 20 7 6 13 17 24 52 48 4 2 6 0 0 4 5 5 7 22 11 3 5 100 100 100 100 100 100 100
0 4 5 5 36 20 6 5 5 7 6 10 5 35 39 34 40 16 25 17 72 100 85 16 90 97 54 17 10 5 6 12 33 28 5 3 9 99 100 100 100 100 100
5 5 5 5 4 4 5 3 1 1 4 0 1 5 5 7 6 10 19 14 16 30 41 11 15 34 42 96 100 100 87 13 5 5 5 0 5 47 100 100 100 100 86
12 5 9 4 0 2 2 0 1 4 5 5 5 5 5 5 5 5 14 6 37 24 8 29 8 69 98 68 94 77 87 79 7 50 5 1 3 17 91 100 100 100 100
10 1 0 5 0 0 2 2 3 5 5 5 5 5 16 46 32 5 7 5 5 5 5 5 5 5 5 10 83 100 93 34 38 5 26 7 4 3 25 100 100 100 100
5 0 0 0 0 0 5 5 5 0 0 2 5 5 49 17 5 5 5 5 5 5 5 5 5 5 5 5 4 4 5 7 18 67 48 16 5 5 5 42 100 100 100
0 0 0 0 0 0 0 4 0 1 1 1 0 0 0 0 0 3 5 5 6 5 5 5 5 5 5 3 4 5 5 5 5 5 5 5 12 5 1 4 20 100 100
0 0 0 2 5 5 5 5 5 2 5 5 4 5 5 4 0 4 4 0 3 5 5 5 7 5 5 5 5 5 5 3 1 2 0 1 3 5 5 3 0 0 42
0 0 0 3 5 5 5 11 12 5 5 5 2 0 0 0 4 2 0 0 0 1 3 1 0 0 0 0 0 3 0 0 3 3 0 1 5 0 4 5 5 5 0
0 2 2 5 58 63 62 72 5 5 5 14 63 45 16 2 3 4 5 5 6 5 5 5 5 5 4 1 0 0 0 4 7 10 5 5 5 4 2 3 5 5 2
4 5 5 5 26 82 21 68 83 99 65 6 5 30 98 31 8 2 26 35 46 30 18 5 5 5 5 5 42 40 21 19 68 42 6 5 35 100 100 100 79 44 5
3 5 5 6 80 91 87 10 5 5 5 5 5 5 5 4 0 0 0 0 0 4 5 18 91 95 90 5 5 99 100 97 98 100 100 100 90 12 11 10 97 100 78
6 31 89 100 81 5 5 36 44 5 5 4 0 0 0 0 0 0 0 0 0 4 4 49 99 100 100 100 68 81 74 100 100 99 97 100 100 100 100 100 45 67 100
33 88 17 7 5 36 57 38 66 5 5 0 2 0 0 0 0 0 0 0 0 0 0 5 50 100 100 100 92 100 86 97 58 100 76 90 100 100 100 100 100 100 87

GFSSE_prec_cloud_021.txt.gz
Cloud_Cover
69 76 5 11 94 77 100 100 100 100 99 100 100 100 100 100 100 100 100 97 100 100 100 98 100 99 57 30 5 1 0 1 49 100 100 52 100 99 100 58 98 72 47
97 97 82 40 100 100 100 100 100 77 100 93 100 90 30 76 94 85 100 100 100 100 65 8 38 16 4 32 4 2 9 0 15 100 100 100 100 100 100 14 91 31 100
92 100 100 100 100 100 100 100 100 58 98 90 100 27 100 29 7 5 11 64 98 81 94 100 44 29 58 15 5 5 11 25 99 96 100 77 100 100 100 100 99 100 100
95 100 100 100 100 91 100 92 64 78 5 7 3 18 100 100 72 90 100 91 30 49 90 100 94 6 22 7 5 89 100 100 56 51 100 46 100 73 100 100 100 100 100
100 100 100 54 90 100 100 100 87 0 41 33 34 4 21 99 100 79 95 100 95 100 74 100 100 100 100 69 70 94 93 56 25 16 100 100 99 30 5 100 100 100 100
100 100 100 100 100 71 100 92 1 5 0 4 5 5 22 2 0 0 1 0 0 2 0 0 10 5 2 0 1 1 3 4 5 7 59 100 90 14 51 100 100 100 100
100 100 100 91 15 0 0 0 0 0 1 0 0 0 19 22 26 11 7 0 1 0 0 27 0 0 0 0 0 0 0 2 4 14 48 51 29 72 71 100 100 100 84
100 93 8 1 0 0 0 0 0 0 0 0 0 0 0 0 0 0 0 0 0 0 0 0 0 0 0 0 0 0 0 0 6 7 6 0 11 75 100 100 100 100 100
70 11 0 0 0 0 0 0 0 0 0 0 0 0 0 0 0 0 1 3 14 18 38 35 22 4 0 0 0 0 0 0 0 0 0 0 5 45 99 100 100 100 100
63 0 0 0 0 0 0 0 0 0 0 0 0 0 0 0 0 0 0 0 0 0 0 0 0 0 0 0 3 0 0 0 0 0 0 0 0 31 87 100 100 100 100
7 0 0 0 0 0 0 0 0 0 0 0 0 0 0 0 0 0 0 0 3 0 0 0 0 0 0 0 0 0 2 0 0 0 0 0 0 6 100 100 100 100 100
0 0 0 0 0 0 0 0 0 0 0 0 0 0 0 0 0 0 0 0 0 1 3 1 0 4 4 0 0 0 2 3 0 0 0 0 0 5 22 100 100 100 100
0 0 0 0 0 0 0 0 0 0 0 0 2 5 7 5 5 5 5 5 5 5 4 5 5 4 2 0 2 3 0 0 0 0 0 0 0 1 68 100 100 100 100
0 0 0 0 0 0 0 0 0 0 0 0 0 0 5 26 46 36 4 7 18 4 5 5 58 86 50 11 4 1 5 5 0 0 0 0 0 0 0 87 99 100 100
1 5 3 2 0 0 0 0 0 0 0 0 0 0 4 5 5 5 5 5 0 3 0 2 5 5 17 14 38 12 5 5 1 0 0 0 0 0 0 5 100 100 100
4 5 1 1 0 4 5 5 5 3 0 0 0 0 0 4 1 2 0 0 0 0 0 0 1 4 5 5 5 4 5 5 5 5 2 0 0 0 0 1 8 100 100
2 38 1 0 5 5 5 5 5 5 5 5 5 0 0 0 0 0 0 0 0 0 0 0 0 0 1 5 5 5 5 5 5 5 5 5 0 0 0 0 4 15 100
0 0 0 4 5 5 4 2 1 2 2 4 0 0 0 1 0 0 0 0 0 0 0 5 5 5 5 5 4 5 5 5 5 5 5 5 5 2 0 0 0 5 15
0 0 0 4 1 0 5 5 5 5 5 5 5 0 1 2 4 5 5 4 2 2 5 5 5 3 0 1 0 0 0 1 5 4 5 5 5 5 3 0 0 0 2
0 0 0 0 5 5 5 5 5 5 5 2 0 0 0 0 0 4 5 0 0 0 0 0 1 0 2 5 3 5 0 0 0 0 1 2 5 5 5 5 4 0 0
0 0 0 5 5 5 5 5 5 5 5 5 4 1 5 5 5 5 0 1 4 1 3 0 5 4 5 5 5 2 0 0 0 0 0 0 0 0 0 0 5 5 4
1 5 5 5 5 5 5 5 5 5 5 5 5 5 5 5 5 5 5 5 1 0 0 0 0 2 5 5 5 5 5 2 0 0 0 0 0 0 0 0 5 3 5
0 4 5 5 5 5 5 5 5 5 5 16 5 9 5 5 2 2 5 5 5 1 0 0 0 0 5 4 60 55 8 5 4 5 5 1 0 0 0 0 5 5 5
5 5 22 12 24 77 50 17 12 8 45 5 5 5 3 5 5 5 5 0 0 0 0 0 0 4 5 12 26 68 7 5 5 5 5 19 4 3 3 3 3 5 5
5 7 56 94 48 52 5 5 6 8 5 15 8 5 5 5 5 5 5 5 3 0 0 4 0 2 3 85 64 100 83 75 6 5 5 7 5 5 5 5 5 5 3
63 96 89 72 18 18 14 13 5 49 100 43 31 47 5 43 26 21 37 5 5 5 5 5 5 64 3 6 7 92 100 100 99 76 6 10 39 32 95 94 5 5 5

GFSSE_prec_cloud_024.txt.gz
Cloud_Cover
12 92 10 2 14 5 5 87 100 100 100 100 100 100 100 100 100 94 30 100 100 74 100 100 100 100 100 100 100 100 100 100 100 100 100 100 100 100 99 36 87 95 93
8 22 17 5 5 92 100 99 100 100 100 100 100 100 100 62 100 100 61 74 5 13 90 100 90 100 100 100 100 100 73 79 100 100 100 100 39 11 5 42 41 100 100
7 11 13 14 99 100 100 100 100 100 100 100 100 12 98 2 4 97 74 95 45 47 51 80 17 8 37 100 94 12 5 5 36 6 4 28 47 22 32 84 100 82 98
18 100 100 100 100 100 100 100 100 100 100 19 77 4 2 3 4 5 69 100 100 100 100 62 69 78 76 99 5 5 8 5 65 73 68 7 93 96 10 93 100 100 99
100 100 100 100 100 100 100 100 99 100 79 27 0 0 0 3 5 23 57 40 99 65 2 5 27 21 9 36 34 5 47 50 89 60 100 94 60 100 100 94 100 100 100
100 100 100 100 100 100 100 97 4 5 3 4 0 0 0 0 0 0 0 0 0 0 0 0 29 25 1 0 0 0 0 3 4 36 39 100 100 54 96 100 100 100 100
96 100 100 100 100 100 10 4 2 0 0 0 0 2 25 30 17 0 0 0 0 0 0 0 0 5 0 0 0 0 0 0 3 84 94 60 27 92 93 100 100 90 100
100 98 100 100 100 20 0 0 0 0 0 0 0 0 0 0 0 0 0 0 0 0 0 0 0 2 15 14 0 0 0 0 0 30 59 55 12 9 92 100 100 78 87
100 100 94 27 1 0 0 0 0 0 0 0 0 0 0 0 0 0 0 4 20 30 38 52 2 0 0 0 0 0 0 0 9 40 10 69 0 3 19 87 16 67 100
100 5 0 0 0 0 0 0 0 0 0 0 0 0 0 3 0 0 0 0 0 10 18 0 0 5 2 0 0 0 0 0 8 27 48 36 0 0 8 6 32 70 100
36 0 0 0 0 0 0 3 0 3 0 7 0 0 12 0 3 8 14 0 0 0 0 0 0 0 1 4 5 2 0 0 0 3 62 5 0 0 2 4 69 62 100
0 0 0 0 0 0 0 0 0 0 0 0 0 0 0 0 0 0 0 0 0 0 0 0 0 0 0 5 4 1 3 0 0 0 7 0 0 0 0 1 24 67 95
0 0 0 0 0 0 0 0 0 0 0 0 0 0 0 0 1 3 2 4 0 0 0 0 0 0 0 0 4 5 5 0 3 0 0 0 0 0 0 6 19 89 96
0 0 0 0 0 0 0 0 0 0 0 0 0 0 0 0 12 13 1 4 2 2 5 5 1 0 0 0 0 0 0 3 0 0 0 0 0 0 0 0 0 3 5
0 0 0 0 0 0 0 0 0 0 0 0 0 0 0 0 0 0 0 0 0 0 0 4 4 5 0 0 0 0 0 0 0 0 1 1 2 0 0 0 0 0 4
0 0 0 0 0 0 0 0 0 0 0 0 0 0 0 0 0 0 0 0 0 0 0 0 0 0 0 1 0 0 0 0 0 0 0 0 0 0 0 2 0 0 2
0 0 0 0 0 0 0 0 0 0 0 0 0 0 0 0 0 0 0 0 0 0 0 0 0 0 1 5 4 5 3 0 0 0 2 5 1 0 0 0 0 0 0
0 0 0 0 0 0 0 0 0 0 2 5 5 5 5 5 5 5 5 5 2 0 0 3 3 5 4 5 5 5 5 4 0 0 0 1 5 0 3 0 0 0 0
0 0 0 0 0 0 0 2 3 5 5 5 5 37 5 52 42 6 5 4 4 5 5 5 5 5 2 1 3 5 5 5 5 2 1 1 0 2 5 3 4 0 2
0 0 0 0 0 2 4 5 5 5 5 10 6 5 47 5 7 5 3 0 0 4 6 16 53 22 13 5 5 5 1 3 1 1 0 0 0 0 0 3 5 1 0
0 0 0 4 0 5 5 5 5 5 5 5 5 5 2 0 5 3 3 5 5 14 70 34 11 17 5 5 3 0 0 4 0 0 0 0 0 0 0 0 0 4 4
0 0 0 3 5 5 38 11 5 5 5 5 5 6 7 6 24 8 5 15 39 9 23 32 5 2 0 0 0 4 5 6 26 2 1 0 0 0 0 5 0 0 1
0 2 5 5 5 70 33 5 5 8 8 14 62 57 8 57 72 9 5 5 4 5 5 5 5 5 1 2 41 44 10 76 94 97 20 3 0 0 0 5 4 4 0
5 5 6 9 5 5 5 5 63 86 73 11 8 11 98 96 42 45 46 8 5 4 3 6 23 62 88 91 86 66 65 5 81 100 99 23 5 5 3 0 5 5 5
6 46 69 98 76 100 100 60 38 76 100 96 84 41 77 50 33 83 71 5 7 5 5 5 5 5 5 12 50 98 100 100 100 100 100 100 100 26 5 5 5 73 36
32 50 100 100 99 100 100 94 68 24 5 5 5 5 15 13 5 26 45 40 78 17 5 13 31 60 71 100 100 100 100 93 98 100 100 98 100 100 81 51 63 11 83

GFSSE_prec_cloud_027.txt.gz
Cloud_Cover
75 5 5 5 4 0 3 6 6 100 100 100 100 100 100 100 100 100 100 100 100 100 100 83 83 43 79 100 100 100 100 100 100 100 100 100 100 37 100 100 100 100 92
11 12 17 5 3 0 31 68 100 100 100 100 100 100 82 100 100 32 56 96 83 61 100 96 100 94 2 10 75 100 100 100 100 100 100 100 100 100 100 100 100 100 100
36 6 9 38 100 92 91 100 100 100 100 95 100 97 3 2 37 35 2 0 5 5 18 59 45 4 39 18 66 33 5 7 96 100 100 100 100 100 100 100 100 100 100
16 26 22 93 100 100 100 100 100 100 92 83 5 2 0 0 0 0 1 0 0 4 44 100 100 100 73 22 33 78 24 9 4 5 5 38 100 13 6 64 98 100 100
32 54 95 100 100 100 100 100 100 100 69 9 0 0 0 0 0 0 0 0 0 0 0 1 16 0 0 3 2 4 0 1 2 5 18 96 96 100 33 98 40 35 98
12 100 100 100 100 100 100 100 33 16 1 0 0 0 0 0 0 0 0 0 0 0 6 20 47 0 0 0 0 0 0 0 0 0 100 100 51 100 100 100 100 100 100
100 100 100 100 100 100 90 57 2 0 0 0 0 2 4 0 0 0 0 0 0 0 0 0 15 0 0 0 0 0 0 0 0 4 93 100 98 96 99 79 100 100 100
100 100 100 100 100 58 5 4 0 0 0 0 0 3 8 0 0 0 0 0 0 0 0 0 7 14 6 0 0 0 0 0 0 30 56 98 58 2 5 5 72 100 100
100 100 100 94 5 5 12 0 0 0 0 0 0 0 0 0 0 0 0 1 2 4 21 3 0 0 0 0 0 0 0 0 0 36 61 100 97 0 0 5 6 15 100
100 100 97 81 6 0 0 0 0 0 0 0 0 0 0 1 0 0 1 0 0 0 0 0 0 0 0 0 0 0 0 0 0 0 42 66 32 0 0 0 5 54 96
100 100 88 47 4 4 0 3 0 2 0 1 0 0 0 3 1 6 0 0 0 0 0 0 0 0 0 0 0 0 4 4 2 0 33 0 0 0 1 0 0 5 100
100 100 14 5 0 0 0 0 0 0 0 0 0 0 1 1 0 0 0 0 0 0 0 0 0 0 0 0 0 0 0 0 2 5 10 2 0 0 0 0 0 0 23
18 4 0 0 0 0 0 0 0 0 0 0 0 0 8 0 26 28 97 86 90 30 7 9 0 0 0 0 0 0 0 0 0 0 10 3 5 4 0 0 0 0 4
1 1 0 0 0 0 0 0 0 0 0 0 0 4 0 0 10 16 3 0 0 33 6 0 0 0 0 0 0 0 0 0 0 4 5 0 3 1 5 4 0 0 0
4 1 1 0 0 0 0 0 0 0 0 0 0 2 0 0 0 0 0 0 0 0 0 3 0 0 0 0 1 4 5 5 2 2 1 5 3 0 0 0 0 0 0
0 1 0 0 0 0 0 0 0 0 0 0 0 0 0 0 0 0 1 2 5 4 3 1 0 0 0 0 0 0 0 0 0 2 0 8 5 5 1 0 0 0 4
0 0 0 0 0 0 0 0 0 0 0 0 0 0 0 0 0 1 4 5 22 36 26 5 5 5 5 5 0 0 0 0 0 4 1 2 5 4 5 5 0 0 0
0 0 0 0 0 0 0 0 0 0 5 5 5 5 5 4 5 8 52 43 5 5 5 5 5 5 5 5 4 5 5 3 5 5 0 0 0 5 4 4 8 4 5
0 0 0 0 1 5 0 5 1 5 5 5 5 5 5 5 5 6 39 48 66 7 5 5 5 5 27 78 15 71 63 26 28 29 21 2 0 0 0 5 0 6 26
0 0 0 0 10 10 5 5 5 5 5 5 5 5 5 5 5 5 5 5 5 5 5 26 79 100 96 100 100 96 89 48 7 5 5 4 5 1 0 0 3 0 4
0 0 0 0 3 5 5 5 38 77 63 5 5 5 5 5 5 5 5 5 5 5 5 5 10 24 52 93 75 29 93 100 100 12 0 5 5 3 5 0 0 0 0
0 0 0 5 5 5 8 96 100 100 81 71 35 15 68 7 62 85 95 99 48 5 5 47 34 19 5 5 7 5 7 5 63 6 6 5 5 5 5 3 0 0 1
0 0 1 5 5 85 100 79 51 99 94 90 92 82 89 100 78 13 19 5 5 5 17 6 14 71 90 100 100 61 12 5 36 31 100 95 29 48 39 5 2 1 0
2 4 5 5 5 5 5 5 75 88 46 9 78 93 72 5 21 5 5 5 5 5 5 29 93 67 13 5 37 5 51 93 53 38 77 100 100 99 63 92 90 30 4
5 5 5 5 5 5 5 19 40 29 55 12 53 53 69 56 18 68 100 99 65 5 5 16 55 50 7 5 5 7 5 5 44 88 91 100 100 98 100 100 100 100 100
5 5 16 42 25 72 94 88 100 91 72 71 31 35 48 82 96 49 5 5 19 95 100 87 71 97 53 71 100 99 98 74 100 100 100 100 100 100 100 100 100 100 100

GFSSE_prec_cloud_030.txt.gz
Cloud_Cover
55 5 3 2 0 5 5 2 1 1 0 0 3 5 24 100 100 100 72 13 5 92 52 98 100 100 100 100 100 100 100 98 96 100 88 97 100 100 100 100 100 100 100
8 3 5 5 5 5 5 25 4 4 2 59 83 91 58 100 52 0 5 5 56 16 5 2 96 100 100 100 100 99 4 16 100 100 100 100 100 100 65 21 18 82 100
5 5 10 51 5 4 5 52 5 5 41 100 100 100 100 83 0 0 0 0 0 0 0 1 1 0 1 7 50 62 3 4 1 100 100 100 100 100 100 100 100 100 100
36 23 5 9 5 5 99 96 82 17 100 100 100 90 30 0 0 0 0 0 0 0 0 16 34 4 2 51 5 21 15 0 0 0 69 95 100 100 100 100 100 100 100
78 20 50 5 47 83 19 70 100 100 100 100 30 5 0 0 0 0 0 0 0 0 0 8 7 0 0 0 0 0 0 0 0 0 3 10 38 13 48 100 100 100 100
56 87 5 100 100 100 100 100 100 100 100 100 100 8 0 0 0 0 0 0 0 0 1 28 66 0 0 0 0 0 0 0 0 0 25 1 40 89 1 57 0 51 100
33 73 100 100 100 100 100 100 100 100 100 17 4 0 2 0 0 0 0 0 0 0 0 0 0 0 0 0 0 0 0 0 0 0 0 22 0 81 42 4 80 65 4
80 100 100 100 100 100 100 100 100 100 38 1 0 0 0 0 0 0 0 0 0 0 0 0 0 0 0 0 0 0 0 0 0 0 0 42 1 70 0 4 7 81 100
100 100 100 100 100 100 100 100 99 9 2 0 0 0 0 0 0 0 0 0 0 0 0 0 0 0 0 0 0 0 0 0 0 0 97 2 0 0 0 0 49 99 99
100 100 100 100 100 100 100 58 5 2 0 0 0 0 0 0 0 0 0 0 0 0 0 0 0 0 0 0 0 0 0 0 0 0 0 11 0 0 0 0 0 2 91
100 100 100 100 100 100 94 4 0 0 0 0 0 0 0 3 83 0 0 0 0 0 0 0 0 0 0 0 0 0 0 0 0 0 0 0 0 0 0 0 0 0 5
100 100 100 99 100 16 5 1 0 0 0 0 0 0 94 12 0 0 0 2 10 0 0 0 0 0 0 0 0 0 0 0 0 0 0 0 0 0 0 0 0 0 0
100 100 92 48 11 2 0 0 79 21 0 0 0 0 7 0 99 4 0 0 0 0 40 61 0 0 0 0 0 0 0 0 0 0 2 1 0 0 0 0 0 0 0
100 82 8 1 2 0 0 0 0 0 0 25 93 0 0 0 0 0 0 0 0 0 1 0 0 4 4 4 2 0 0 0 0 0 0 34 4 0 1 0 0 0 2
87 7 4 1 0 0 0 0 0 0 0 0 0 0 0 0 0 0 0 0 0 0 0 0 0 0 0 0 0 0 0 0 0 0 0 5 3 0 1 4 5 2 1
19 12 76 0 0 0 0 0 0 0 0 0 0 0 0 0 0 0 0 0 0 0 0 0 0 0 0 0 0 2 0 3 4 2 0 0 5 5 5 5 1 0 0
4 30 4 9 0 0 0 0 0 0 0 0 0 0 1 5 4 0 0 0 0 0 0 5 3 4 4 0 0 0 0 5 0 6 8 0 0 4 5 5 5 5 0
0 17 33 71 13 0 0 0 0 0 0 0 0 2 5 5 2 3 5 0 4 5 5 2 4 5 4 0 0 0 0 4 4 62 27 5 5 58 6 5 5 5 7
94 99 83 98 42 18 1 0 0 1 4 5 5 5 5 4 5 5 5 5 5 5 5 5 3 3 5 5 3 10 5 14 63 75 87 84 18 3 27 52 5 5 5
1 0 0 0 61 48 1 1 2 5 5 5 5 5 5 5 5 20 5 56 61 5 26 5 5 5 5 5 5 14 94 35 16 28 34 27 82 92 38 15 78 63 4
0 0 0 0 0 0 0 5 5 5 50 62 34 63 9 86 11 5 11 55 28 4 0 0 3 5 5 5 5 5 5 5 5 5 20 26 29 5 8 53 5 6 24
0 0 0 5 5 5 14 52 82 95 81 50 90 47 82 5 5 5 5 2 0 3 2 2 2 5 5 5 5 5 2 5 5 5 14 53 5 12 5 8 7 5 5
0 3 5 5 5 14 5 5 3 5 7 72 80 100 83 58 38 5 27 5 5 5 7 12 3 3 4 5 5 7 16 3 4 16 72 27 5 84 100 100 100 97 28
3 5 5 1 5 5 5 4 5 5 5 12 61 48 5 23 96 96 95 39 5 5 5 5 5 5 1 3 5 4 12 16 52 48 5 5 5 52 34 96 96 94 100
0 0 3 5 6 5 5 8 48 100 87 32 69 100 100 100 100 100 92 8 34 14 7 10 14 14 8 41 55 57 23 11 5 76 13 7 100 62 10 50 99 93 100
1 5 5 5 5 6 5 29 54 100 100 100 100 100 100 100 90 84 36 38 38 100 100 76 22 33 99 92 28 28 62 100 100 100 100 100 100 8 45 54 52 100 100

GFSSE_prec_cloud_033.txt.gz
Cloud_Cover
45 36 18 13 5 5 5 5 3 0 2 3 2 2 2 0 0 5 5 48 12 12 3 1 2 5 97 100 100 100 100 100 100 74 5 30 78 100 100 100 100 100 100
80 48 83 39 40 5 5 5 5 5 4 5 4 5 5 15 6 24 94 88 54 0 0 0 0 2 10 98 100 100 100 100 100 100 98 100 41 33 100 100 100 100 100
15 53 50 100 85 98 86 7 5 4 16 91 6 9 37 55 100 100 86 0 0 0 0 0 0 0 0 0 1 85 100 100 93 100 100 100 100 90 98 75 69 100 100
85 100 96 97 100 52 8 3 5 5 82 100 100 100 94 100 100 92 1 0 0 0 0 9 9 0 0 0 0 0 0 0 0 0 6 1 16 100 100 90 100 100 100
73 86 100 42 10 59 97 93 79 100 100 100 100 98 100 100 100 22 0 0 0 0 0 15 0 0 0 0 0 0 0 0 0 0 0 0 5 66 100 100 100 96 100
100 53 76 67 100 100 100 64 100 100 98 89 78 100 77 56 4 0 0 0 0 0 0 0 0 0 0 0 0 0 0 0 0 0 0 0 0 0 68 100 91 54 96
74 100 100 100 100 100 100 100 100 100 100 100 100 40 4 0 0 0 0 0 0 0 0 0 0 0 0 0 0 0 0 0 0 0 0 0 2 12 0 100 100 70 10
100 100 100 100 100 100 100 100 100 100 100 79 49 29 3 0 0 0 0 0 0 0 0 0 0 0 0 0 0 0 0 0 0 0 0 0 27 6 0 7 1 0 58
100 100 100 100 100 100 100 100 100 100 100 97 5 1 0 0 0 0 0 0 0 0 0 0 0 0 0 0 0 0 0 0 0 0 0 0 0 0 0 0 0 0 0
100 100 100 100 100 100 100 100 100 100 100 14 5 0 0 0 0 0 0 0 0 0 0 0 0 0 0 0 0 0 0 0 0 0 0 0 0 0 0 0 0 0 0
100 100 100 100 100 100 100 100 100 100 78 3 0 0 0 0 0 0 0 0 0 0 0 0 0 0 0 0 0 0 0 0 0 0 0 0 0 0 0 0 0 0 0
100 100 100 100 100 100 100 100 100 58 3 0 0 0 0 0 0 0 0 0 0 0 0 0 0 0 0 0 0 0 0 0 0 0 0 0 0 0 0 0 0 0 0
100 100 100 100 100 100 100 100 7 1 0 0 0 0 0 0 0 0 0 0 0 0 0 0 0 0 0 0 0 0 0 0 0 0 0 0 0 0 0 0 0 0 0
100 100 100 100 100 100 100 99 15 7 0 0 0 0 0 0 0 0 0 0 0 0 3 0 0 0 0 0 0 0 0 0 0 0 0 0 0 0 0 0 0 0 4
100 100 100 100 100 100 30 5 1 0 0 0 0 0 0 0 0 0 0 0 0 0 0 0 0 0 4 2 0 0 0 0 0 0 0 0 0 0 0 0 0 0 4
100 96 87 7 22 2 0 0 0 0 0 0 0 0 0 0 0 3 0 0 0 0 0 0 0 0 0 0 0 0 0 0 0 0 0 0 0 0 0 0 0 0 0
28 27 4 2 0 0 0 0 0 0 0 0 0 0 0 0 4 5 0 4 0 0 1 4 1 0 0 0 0 0 0 0 0 2 0 4 4 1 0 0 0 0 0
0 5 26 2 2 96 100 72 5 5 0 0 0 0 0 1 5 0 5 5 5 5 5 5 5 5 0 0 0 0 0 6 15 36 30 10 6 5 5 3 1 0 0
5 10 57 3 10 20 100 87 0 0 0 0 2 4 2 3 5 5 5 5 5 5 5 4 0 0 0 1 3 5 6 5 18 47 89 100 82 42 96 96 17 5 4
4 5 2 0 0 4 3 1 0 0 4 5 5 5 5 5 5 10 89 59 5 5 5 5 0 0 4 5 3 5 5 5 5 14 38 92 100 89 55 88 87 98 100
65 10 1 0 0 0 0 3 5 5 5 6 38 66 100 26 57 76 11 5 1 4 3 5 5 5 5 20 5 5 5 5 5 8 23 35 80 100 100 100 75 76 86
27 40 1 5 5 5 5 5 5 5 5 5 20 89 77 40 5 5 5 5 5 5 5 13 29 5 5 5 5 5 5 5 5 5 12 30 37 50 71 36 96 100 100
0 4 5 5 5 5 5 5 5 3 0 4 5 5 5 5 5 5 5 5 5 5 5 5 5 5 5 5 10 7 57 26 100 100 100 99 95 11 35 76 83 100 98
5 5 1 0 0 5 3 0 0 3 5 33 26 33 46 28 5 5 5 9 5 5 18 18 5 10 79 98 100 100 99 100 100 76 96 89 91 66 45 9 43 88 100
0 0 0 4 2 5 5 5 39 79 95 100 98 68 84 100 100 100 100 100 100 80 65 100 99 96 100 100 98 8 99 88 50 53 20 3 7 17 5 8 89 99 98
0 0 1 0 0 2 1 4 89 99 100 100 100 100 100 100 100 100 100 70 98 100 81 5 5 5 5 5 57 40 84 48 85 100 96 68 100 10 1 1 6 75 100

GFSSE_prec_cloud_036.txt.gz
Cloud_Cover
80 17 5 5 5 23 29 33 5 5 3 0 0 0 0 0 0 0 0 3 0 0 0 0 0 0 0 0 85 100 100 100 100 100 100 100 99 100 100 100 100 100 100
78 88 46 5 39 7 5 88 5 5 0 0 0 4 0 0 1 5 5 0 0 0 0 0 2 0 0 0 0 6 100 100 100 100 100 100 51 100 85 100 100 100 100
21 10 44 60 15 5 70 5 5 5 1 4 3 1 3 46 87 41 5 2 1 0 0 0 0 0 0 0 0 0 0 48 100 100 100 100 100 94 99 100 100 100 100
52 18 61 8 19 7 38 7 7 5 16 5 5 28 42 100 83 62 5 90 12 2 16 22 1 0 0 0 0 0 0 0 0 21 99 100 100 100 84 95 100 100 100
24 70 97 86 92 97 100 61 71 22 74 46 94 98 100 100 32 81 100 28 0 12 29 18 12 0 0 0 0 0 0 0 0 0 0 1 10 14 100 100 94 48 92
100 100 100 100 100 100 52 100 37 100 91 100 100 100 100 100 100 100 92 2 0 0 0 0 0 0 0 0 0 0 0 0 0 0 0 0 0 0 0 1 1 10 44
100 100 100 50 100 100 74 91 94 84 100 100 100 100 94 100 100 100 34 38 0 0 0 0 0 0 0 0 0 0 0 0 0 0 0 0 0 0 4 6 14 74 60
100 99 12 64 89 90 77 100 100 100 100 100 100 100 100 100 45 17 5 0 0 0 0 0 0 0 0 0 0 0 0 0 0 0 0 0 0 0 1 3 14 31 98
100 91 100 92 100 91 100 100 100 100 100 100 100 100 100 100 92 5 3 0 0 0 0 0 0 0 0 0 0 0 0 0 0 0 0 0 0 0 0 0 0 1 8
100 100 100 100 100 100 100 100 100 100 100 100 100 95 21 5 5 2 0 0 0 0 0 0 0 0 0 0 0 0 0 0 0 0 0 0 0 0 0 0 0 0 0
100 100 100 100 100 100 100 100 100 100 100 100 100 100 6 5 0 0 0 0 0 0 0 0 0 0 0 0 0 0 0 0 0 0 0 0 0 0 0 0 0 0 0
100 100 100 100 100 100 100 100 100 100 100 100 40 60 5 0 0 0 0 0 0 0 0 0 0 0 0 0 0 0 0 0 0 0 0 0 0 0 0 0 0 0 0
100 100 100 100 100 100 100 100 100 100 100 76 3 0 0 0 0 0 0 0 0 0 0 0 0 0 0 0 0 0 0 0 0 0 0 0 0 0 0 0 0 0 0
100 100 100 100 100 100 100 100 100 100 3 0 0 0 0 0 0 0 1 0 0 0 1 0 0 0 0 0 0 0 0 0 0 0 0 0 0 0 0 0 0 0 0
100 100 100 100 100 100 100 99 71 2 0 0 2 3 0 0 0 0 0 0 0 0 0 0 0 0 0 0 0 0 0 0 0 0 0 0 0 0 0 0 0 0 0
100 100 100 100 100 100 54 23 95 100 98 100 30 5 0 0 0 0 0 0 0 0 0 0 0 0 0 0 0 1 0 0 0 0 2 4 0 0 0 0 0 0 0
100 100 100 97 100 36 1 90 98 22 6 5 5 0 0 0 0 1 5 5 1 4 1 2 5 1 5 5 1 5 5 5 5 5 5 5 6 5 1 5 0 0 0
72 86 97 4 8 17 100 100 86 92 60 35 2 0 0 1 5 5 5 5 5 4 5 5 5 5 5 5 5 5 5 5 5 5 5 5 6 5 5 5 4 4 1
5 5 5 0 14 92 100 100 84 30 0 0 0 4 5 4 2 0 1 4 1 5 5 5 5 2 5 5 5 5 5 6 12 66 99 99 100 100 99 96 100 95 37
5 5 28 81 100 100 100 81 3 0 0 4 31 23 50 87 100 40 17 21 27 18 5 5 1 3 5 5 5 5 26 45 17 25 58 96 100 100 100 100 100 100 100
4 5 50 100 56 66 29 0 0 5 2 5 5 18 58 99 100 100 99 68 23 5 5 6 5 5 5 5 5 5 18 5 5 58 24 5 5 32 86 100 100 100 100
3 24 44 0 0 4 5 5 5 5 18 62 89 85 77 84 98 99 43 14 63 84 3 1 0 4 5 5 5 5 5 41 87 95 100 100 100 100 100 100 100 92 100
0 1 0 0 0 1 5 5 22 98 17 31 17 5 5 5 4 3 4 0 1 0 2 4 5 5 4 5 5 38 23 14 17 100 100 70 65 54 12 8 13 58 99
0 0 0 13 60 6 5 5 6 5 82 52 42 31 5 5 4 0 0 0 0 3 5 29 77 24 57 98 5 6 6 6 5 6 17 33 11 17 8 0 1 4 10
1 3 3 0 0 0 0 4 8 15 94 100 100 100 100 100 94 100 100 100 100 99 27 6 6 5 5 5 5 5 7 5 5 7 14 9 33 4 0 0 0 1 0
5 2 2 0 1 2 5 5 65 100 100 100 100 100 100 92 93 98 95 73 31 59 99 54 5 8 5 6 6 30 99 100 100 100 100 99 100 84 3 0 3 13 5

GFSSE_prec_cloud_039.txt.gz
Cloud_Cover
89 91 17 10 5 5 5 5 5 5 5 1 0 0 0 0 0 0 0 0 3 5 0 5 3 0 0 0 0 0 0 8 100 75 100 85 100 100 100 100 100 100 100
31 26 99 48 16 5 5 5 40 2 2 2 2 0 0 0 0 1 1 4 5 7 5 1 5 0 0 0 0 0 0 0 4 29 63 95 90 100 100 100 100 100 100
36 42 34 64 10 5 5 4 5 5 0 0 0 3 0 0 5 5 5 30 12 5 6 6 14 0 0 0 0 0 0 0 0 0 66 96 100 68 11 100 50 100 100
42 35 43 7 5 5 5 6 40 5 0 1 3 3 5 5 5 17 5 5 17 55 100 92 10 0 0 0 0 0 0 0 0 0 0 1 82 100 100 90 28 100 98
57 34 20 11 42 55 77 87 25 29 22 5 5 5 5 11 7 4 5 37 24 8 8 1 0 0 0 0 0 0 0 0 0 0 0 0 0 0 93 100 91 93 92
55 84 73 79 70 87 46 95 78 54 14 5 5 5 26 8 5 8 7 100 100 5 0 0 0 0 0 0 0 0 0 0 0 0 0 0 0 0 0 5 99 100 100
78 90 82 100 100 100 98 100 72 97 91 13 35 90 5 5 5 15 100 92 5 2 0 0 0 0 0 0 0 0 0 0 0 0 0 0 0 0 0 0 0 0 6
100 100 97 100 100 100 100 100 100 100 95 100 96 61 5 5 99 100 100 24 9 0 0 0 0 0 0 0 0 0 0 0 0 0 0 0 0 0 0 0 0 0 0
100 85 100 100 100 100 96 93 100 100 100 100 97 6 68 82 99 100 72 4 0 0 0 0 0 0 0 0 0 0 0 0 0 0 0 0 0 0 0 0 0 0 0
100 100 100 100 100 100 87 100 100 100 100 100 86 57 100 97 90 23 2 0 0 0 0 0 0 0 0 0 0 0 0 0 0 0 0 0 0 0 0 0 0 0 0
100 100 100 100 99 100 100 100 100 100 99 82 100 100 100 98 14 5 1 0 0 0 0 0 0 0 0 0 0 0 0 0 0 0 0 0 0 0 0 0 0 0 0
100 100 100 100 100 100 100 100 100 46 100 100 100 100 29 19 0 0 0 0 0 0 0 0 0 0 0 0 0 0 0 0 0 0 0 0 0 0 0 0 0 0 0
100 100 97 91 100 100 100 100 100 100 100 100 100 88 16 4 0 0 0 0 0 0 0 0 0 0 0 0 0 0 0 0 0 0 0 0 0 0 0 0 0 0 0
100 100 100 100 100 100 100 100 100 100 100 100 28 6 4 2 5 0 4 0 0 0 0 0 0 0 0 0 0 5 3 4 1 0 0 0 0 0 0 0 0 0 0
100 100 100 100 100 100 100 100 91 90 35 27 31 10 30 72 93 5 1 0 0 0 0 0 0 0 0 0 0 3 5 4 5 5 5 4 0 0 0 0 0 0 0
100 100 100 100 100 97 29 8 41 5 72 92 91 91 49 82 88 80 49 0 0 3 4 1 0 0 4 2 0 5 5 5 3 2 4 5 5 4 5 4 5 1 0
100 100 100 100 32 5 5 56 66 98 100 100 100 100 100 21 5 1 2 0 0 5 0 5 5 5 5 5 5 5 5 5 5 5 5 5 5 5 6 82 69 9 5
100 86 74 12 4 5 68 91 100 100 89 26 80 78 27 5 5 0 0 2 5 5 5 5 5 5 5 5 5 5 5 5 5 5 5 5 5 5 5 5 8 61 99
60 45 28 9 28 97 100 100 100 100 50 4 1 1 5 5 0 0 2 1 3 8 12 48 5 5 5 4 5 5 8 29 5 7 6 30 16 10 5 6 31 36 16
5 5 5 95 100 100 100 100 100 100 99 12 5 5 10 92 100 100 88 98 100 100 72 5 5 5 2 2 5 7 8 12 36 71 73 65 68 75 84 78 88 97 100
5 54 98 100 100 100 100 100 100 92 13 5 65 99 100 100 100 100 100 62 5 5 5 71 35 5 5 42 99 100 100 100 100 100 100 100 100 90 99 96 99 100 100
89 72 71 43 41 43 99 97 37 5 5 5 5 4 1 2 3 0 1 16 43 86 97 55 3 5 5 5 5 5 19 69 13 19 43 55 29 72 88 96 100 100 100
5 8 2 58 66 45 4 5 4 5 5 2 1 5 5 3 3 2 1 0 1 2 0 0 0 0 0 0 0 2 4 3 5 5 32 37 40 78 46 50 94 100 100
29 5 5 0 0 1 4 1 1 1 8 15 18 35 8 5 1 4 5 4 1 0 0 2 4 4 5 4 2 5 5 7 5 54 6 5 5 5 4 2 2 1 3
100 97 64 19 76 92 98 41 90 82 95 100 99 94 96 93 99 100 96 58 8 64 95 100 91 7 6 6 5 8 7 5 5 91 95 48 5 5 2 0 0 8 5
82 89 77 99 86 38 6 51 74 98 95 100 100 100 100 100 99 80 98 100 100 86 20 5 5 3 5 10 58 86 100 100 100 100 100 24 98 36 23 2 2 0 0

GFSSE_prec_cloud_042.txt.gz
Cloud_Cover
61 12 95 98 14 5 5 1 0 1 0 0 0 0 0 0 0 0 0 0 0 0 13 8 8 17 2 0 0 0 0 0 0 0 0 4 96 100 100 97 100 100 100
80 63 27 15 5 8 5 5 1 0 0 0 0 0 0 0 0 0 0 0 0 0 8 0 0 0 0 0 0 0 0 0 0 0 0 0 7 100 30 86 100 100 100
71 49 36 75 63 5 5 5 4 0 4 2 0 2 5 0 1 0 26 5 2 54 47 14 0 0 0 0 0 0 0 0 0 0 0 0 0 2 11 35 95 100 100
51 93 93 72 9 5 5 5 5 5 5 4 0 3 10 5 4 5 5 0 5 3 0 4 0 0 0 0 0 0 0 0 0 0 0 0 0 0 0 4 29 46 100
95 92 69 27 26 7 5 38 10 5 3 3 5 5 14 5 20 5 7 4 0 0 0 1 2 0 0 0 0 0 0 0 0 0 0 0 0 0 0 0 8 21 21
100 100 94 43 24 7 18 85 86 9 5 5 65 70 28 62 82 6 5 2 0 4 5 5 0 0 0 0 0 0 0 0 0 0 0 0 0 0 0 0 0 0 3
99 94 98 56 74 98 100 50 80 19 54 92 100 100 100 89 57 5 5 5 5 5 5 4 0 0 0 0 0 0 0 0 0 0 0 0 0 0 0 0 0 0 0
66 30 63 93 98 100 97 100 98 62 99 90 100 100 11 6 19 5 12 18 5 5 29 3 0 0 0 0 0 0 0 0 0 0 0 0 0 0 0 0 0 0 0
36 82 97 100 100 100 100 100 98 100 100 100 100 100 11 17 98 5 60 5 22 6 7 0 0 0 0 0 0 0 0 0 0 0 0 0 0 0 0 0 0 0 0
100 100 100 100 100 100 100 100 100 100 100 100 95 81 18 89 64 23 32 2 5 0 0 0 0 0 0 0 0 0 0 0 0 0 0 0 0 0 0 0 0 0 0
100 100 100 100 100 100 100 100 100 100 86 99 81 96 100 100 13 5 5 2 0 0 0 0 0 0 0 0 0 0 0 0 0 0 0 0 0 0 0 0 0 0 0
100 100 100 100 100 100 100 98 100 100 100 100 100 100 60 98 9 0 0 0 0 0 0 0 0 0 0 0 0 0 0 0 0 0 0 0 0 0 0 0 0 0 0
100 100 100 100 100 100 100 100 100 100 100 100 100 100 89 20 5 0 3 4 4 0 0 0 0 0 0 0 0 0 0 0 0 0 0 2 0 0 0 0 0 0 0
100 100 100 100 100 100 100 100 100 100 100 100 100 13 38 5 4 4 5 0 2 0 0 0 5 0 0 0 0 0 0 0 0 0 0 0 5 5 0 0 0 0 0
100 100 100 100 100 100 100 100 100 100 100 100 40 13 56 93 8 5 4 0 0 1 4 0 4 0 1 0 0 0 0 0 0 0 3 5 5 3 4 3 0 0 0
100 100 100 100 100 100 100 100 100 100 78 82 94 68 87 82 36 74 64 37 7 2 5 5 5 5 5 5 0 0 0 0 0 5 5 5 5 6 5 5 5 5 5
100 100 100 100 100 100 100 58 18 94 100 100 100 100 100 96 47 82 78 100 64 3 5 5 5 5 5 5 5 5 5 5 5 5 5 5 5 5 17 40 6 5 5
81 70 34 22 36 36 95 56 100 100 100 100 100 100 81 12 64 12 16 75 11 0 4 5 56 98 95 81 5 5 5 5 5 5 5 6 5 5 5 5 4 4 5
8 6 47 63 100 96 100 100 100 100 100 100 100 97 100 100 98 95 68 33 71 82 100 97 78 26 15 8 5 5 5 5 5 6 38 54 46 79 45 5 24 21 5
74 48 41 57 100 100 100 100 100 100 100 93 92 99 95 90 47 5 32 58 5 10 66 83 88 94 39 5 5 5 5 5 5 5 5 5 49 54 12 18 18 7 6
3 5 99 100 100 100 99 66 98 57 68 42 51 6 0 0 0 2 0 0 0 6 17 24 4 5 5 5 5 5 5 30 56 100 100 100 77 74 70 71 66 98 100
38 56 80 61 90 88 45 6 5 5 4 4 0 0 0 0 0 0 0 0 0 0 0 1 5 5 5 5 5 5 78 100 100 95 65 74 9 5 5 5 24 29 27
27 16 37 91 100 47 5 2 0 0 0 1 0 0 1 2 5 3 3 0 0 0 0 4 4 5 7 10 7 4 5 5 26 43 6 5 5 4 2 0 2 3 5
5 9 7 89 76 5 5 5 4 5 5 0 4 4 5 37 43 10 28 5 5 3 4 5 5 2 0 3 3 5 5 37 75 83 9 5 5 5 5 0 4 4 4
81 47 76 72 51 64 41 87 19 99 5 6 40 5 5 5 13 5 4 5 56 97 37 18 81 94 19 8 18 62 89 7 5 94 79 100 44 5 5 5 0 0 0
92 100 100 100 100 100 79 100 100 100 73 22 5 5 5 5 6 23 72 84 96 82 11 29 69 33 5 7 18 56 63 86 25 88 96 64 95 5 4 0 1 0 0

GFSSE_prec_cloud_045.txt.gz
Cloud_Cover
97 96 100 100 86 49 88 5 5 5 5 3 5 4 4 1 2 0 0 0 0 4 4 2 10 0 0 0 0 0 0 0 0 0 0 0 1 2 8 77 93 24 92
100 100 100 100 100 100 5 6 10 5 3 5 2 0 0 0 1 0 0 0 0 8 71 10 12 0 0 0 0 0 0 0 0 0 0 0 0 0 0 3 5 62 58
100 100 100 100 100 64 88 5 5 5 5 5 5 3 5 5 5 0 0 4 2 58 30 17 0 0 0 0 0 0 0 0 0 0 0 0 0 0 0 0 0 82 100
100 100 100 100 100 20 5 5 8 5 5 5 5 2 0 6 5 5 22 0 10 5 0 0 3 5 0 0 0 0 0 0 0 0 0 0 0 0 0 0 0 0 3
100 87 86 72 80 49 38 5 5 5 5 3 5 5 5 19 5 1 5 91 13 2 0 4 3 4 0 0 0 0 0 0 0 0 0 0 0 0 0 0 0 0 0
97 100 100 98 47 40 5 6 5 5 5 5 99 24 90 5 13 16 58 4 2 3 13 2 5 0 0 0 0 0 0 0 0 0 0 0 0 1 0 0 0 0 0
78 100 100 98 100 99 77 31 5 5 5 100 84 99 5 5 44 85 66 75 91 89 4 63 8 0 0 0 0 0 0 0 0 0 0 0 0 0 0 0 0 0 0
100 100 100 100 100 100 100 46 5 5 32 82 99 65 86 96 99 23 64 92 96 5 94 5 3 0 0 0 0 0 0 0 0 0 0 0 0 0 0 0 0 0 0
100 100 100 100 100 100 5 5 5 37 100 100 100 96 100 100 100 98 89 91 6 7 4 0 0 0 0 0 0 0 0 0 0 0 0 0 0 0 0 0 0 0 0
100 100 100 100 100 61 21 93 100 100 100 100 100 100 100 100 100 100 89 23 74 5 5 2 0 0 0 0 0 0 0 0 0 0 0 0 0 0 0 0 0 0 0
100 100 100 100 84 100 100 100 100 100 100 100 100 100 100 100 100 52 33 100 5 5 4 0 0 0 0 0 0 0 0 0 0 0 0 0 0 0 0 0 0 0 0
100 100 100 100 100 100 100 100 100 100 100 100 100 100 100 78 61 5 7 5 5 0 0 0 0 0 0 0 0 0 0 0 0 0 0 0 0 0 0 0 0 0 0
100 100 100 100 100 100 100 100 100 100 100 100 100 100 100 86 82 5 5 5 2 5 0 4 1 0 0 0 0 0 0 0 0 0 0 0 0 0 0 0 0 0 0
100 100 100 100 100 100 100 100 100 100 100 100 100 100 71 5 5 5 4 3 12 5 2 5 23 10 5 5 0 0 0 0 0 0 0 0 0 0 0 0 0 0 0
97 100 100 100 100 100 100 100 100 100 100 100 95 39 16 38 78 70 5 5 5 5 3 5 18 35 5 9 3 0 0 0 0 0 0 0 0 0 0 0 0 0 0
99 100 100 100 100 100 100 100 100 100 93 96 95 100 100 100 100 100 29 24 4 3 10 5 4 4 5 5 5 2 4 1 0 0 0 0 0 0 3 2 0 2 5
100 100 100 99 94 96 100 99 100 100 96 90 100 100 100 100 100 100 100 99 88 88 5 20 5 4 9 7 8 99 10 5 0 0 0 0 3 5 5 5 5 5 0
16 29 42 42 82 82 100 100 99 100 100 100 100 100 100 100 100 100 100 100 100 100 87 67 51 3 21 3 5 4 5 5 5 5 5 5 5 5 5 5 5 5 5
31 100 100 67 100 100 100 100 100 100 100 100 100 100 100 100 100 100 77 33 26 95 52 6 3 6 10 22 12 6 85 73 52 5 10 54 54 20 45 43 24 6 6
75 74 92 80 100 100 100 100 100 100 100 100 100 100 100 100 78 42 15 0 0 0 0 4 5 63 48 13 53 97 100 100 90 20 5 7 30 37 6 13 30 74 93
53 30 96 100 100 100 100 100 100 70 100 100 90 58 2 0 0 0 0 0 0 2 5 5 5 5 23 16 5 5 5 5 5 5 5 5 5 5 5 32 91 100 100
22 13 39 48 36 86 100 95 12 37 29 11 5 39 4 2 3 4 5 4 0 2 4 2 3 2 5 14 8 5 5 5 5 5 5 5 5 5 13 18 21 6 5
2 7 14 12 42 5 77 63 30 5 5 5 5 5 5 7 91 39 1 0 0 0 0 3 11 31 6 5 5 2 4 4 5 3 5 4 2 5 5 5 5 6 5
5 6 77 68 5 7 5 38 14 92 5 20 59 27 44 69 5 5 5 5 5 22 60 90 39 5 1 5 3 30 50 98 100 22 5 3 3 5 5 5 5 5 5
23 66 69 72 78 98 97 68 82 21 7 5 52 100 99 13 5 5 5 12 74 10 5 5 5 5 5 2 5 10 19 21 61 87 71 83 96 55 5 5 5 5 5
15 69 85 87 98 100 92 77 10 7 25 5 5 8 5 5 5 5 5 5 5 4 3 2 0 0 2 5 5 19 71 88 97 100 77 56 67 75 78 13 5 5 5

GFSSE_prec_cloud_048.txt.gz
Cloud_Cover
100 100 100 100 100 81 91 38 72 7 5 5 4 4 5 5 34 8 5 5 5 17 5 1 9 5 0 0 1 0 0 0 0 0 0 0 0 0 0 0 0 13 7
100 100 100 100 100 100 43 100 100 98 95 51 90 8 3 2 3 0 3 3 10 56 54 11 6 5 2 3 0 0 0 0 0 0 0 0 0 0 0 0 0 0 0
100 100 100 100 100 87 30 100 100 100 100 100 100 2 0 5 4 0 0 0 1 65 9 0 20 100 37 94 2 1 0 0 0 0 0 10 87 0 0 0 0 0 0
100 100 100 100 100 100 100 100 68 99 68 21 5 4 35 6 3 0 0 1 4 1 2 43 94 95 90 18 5 3 0 0 0 0 0 0 75 0 0 0 0 0 0
100 100 100 100 100 100 100 100 44 23 5 4 5 4 3 5 4 7 4 5 5 89 100 96 100 33 90 0 5 0 0 0 0 0 0 0 47 11 7 0 0 0 0
100 100 100 100 65 26 100 6 18 5 29 62 5 5 5 2 5 5 17 96 44 56 91 96 5 68 5 4 0 0 0 0 0 0 0 0 23 2 0 0 0 0 0
100 100 89 75 76 21 79 41 10 15 5 5 5 11 5 6 7 36 60 35 46 99 100 94 6 21 6 1 0 0 0 0 0 0 0 0 14 0 0 0 0 0 0
100 100 100 100 100 99 84 100 100 6 5 48 14 79 40 95 100 100 99 100 100 100 31 85 65 4 2 2 0 0 0 0 0 0 0 0 0 0 0 0 0 0 0
100 100 100 100 100 100 100 100 100 100 100 100 100 100 100 100 99 100 100 100 100 26 100 94 18 5 3 0 0 0 0 0 0 0 0 0 0 0 0 0 0 0 0
100 100 100 100 100 100 100 100 100 100 100 100 100 100 100 100 100 100 100 83 99 72 5 75 35 5 0 0 0 0 0 0 0 0 0 0 0 0 0 0 0 0 0
100 100 100 100 100 100 100 100 100 100 100 100 100 100 100 100 100 100 100 94 7 24 19 5 3 0 0 0 0 0 0 0 0 0 0 0 0 0 0 0 0 0 0
100 100 100 100 100 100 100 100 100 100 100 100 100 100 100 100 100 99 100 83 23 5 35 1 0 0 0 0 0 4 0 0 0 0 0 0 0 0 0 0 0 0 0
100 100 100 100 100 100 100 100 100 100 100 100 100 100 100 100 100 16 54 5 34 24 5 0 0 0 0 0 0 0 0 0 0 0 0 0 0 0 0 0 0 0 0
100 100 100 100 100 100 100 100 100 100 100 100 100 100 98 61 5 76 85 100 100 5 5 2 0 0 0 0 0 3 0 0 0 0 0 0 0 0 0 0 0 0 0
100 100 100 100 100 100 100 100 100 100 100 100 27 61 84 100 90 64 100 100 100 80 5 0 5 31 12 18 2 0 0 0 0 0 0 0 0 0 0 0 0 0 0
100 100 100 100 96 100 100 100 100 100 56 76 100 100 72 100 100 100 100 100 75 24 67 71 67 98 7 0 5 0 4 4 3 0 0 0 0 0 0 0 0 4 4
99 100 100 100 100 100 100 92 80 96 100 100 100 100 90 100 100 100 100 100 100 100 100 100 100 79 5 0 3 0 3 0 0 0 0 0 0 3 5 5 5 5 5
100 100 100 100 100 82 94 65 76 100 100 100 100 100 100 100 100 100 100 100 100 100 100 100 100 19 9 0 0 0 0 3 2 5 1 2 0 0 1 3 3 5 5
100 100 77 87 86 99 94 100 100 100 100 100 100 100 100 100 100 100 100 100 100 100 100 100 64 0 0 0 5 2 5 5 5 5 5 5 5 5 5 5 5 5 5
29 38 53 99 100 80 100 100 100 100 100 100 100 100 100 100 100 100 99 100 100 100 25 98 6 4 5 5 5 5 22 11 5 5 5 5 5 5 5 8 35 30 5
95 100 100 61 65 80 96 100 100 100 100 100 100 100 100 100 8 5 5 60 7 26 5 0 0 0 0 2 5 3 1 4 16 6 5 5 14 20 8 5 4 5 5
93 99 72 28 7 16 5 5 67 52 79 100 93 52 64 85 100 100 24 5 5 5 0 0 0 1 5 5 5 5 5 5 5 94 74 64 33 19 5 5 6 42 87
48 40 28 15 5 5 11 26 89 100 98 98 100 100 100 100 100 6 2 5 4 2 2 5 20 55 62 93 52 5 5 2 4 0 48 40 41 5 5 5 5 7 5
5 5 5 5 5 35 12 8 38 66 85 100 54 5 5 6 1 0 5 5 5 16 90 100 100 82 11 5 2 5 29 45 24 4 5 10 8 30 5 5 34 86 84
5 5 32 59 5 5 7 55 91 82 98 88 64 58 5 2 3 5 5 56 41 70 74 35 6 5 5 5 6 72 98 86 98 100 91 49 81 99 100 92 90 100 100
5 8 11 5 5 12 71 82 75 64 78 78 70 5 5 1 5 5 5 5 5 5 6 20 8 10 7 26 65 86 84 93 100 100 100 83 100 92 100 98 100 28 53

GFSSE_prec_cloud_051.txt.gz
Cloud_Cover
100 100 59 23 98 100 100 100 100 78 98 100 69 72 99 10 14 65 100 97 3 18 9 16 0 0 0 0 0 3 11 7 0 0 0 0 0 0 0 0 35 6 0
100 100 100 100 100 97 100 100 59 26 78 87 99 69 35 5 84 70 5 5 2 3 17 0 0 0 0 4 26 69 5 5 0 0 0 0 3 0 0 0 0 0 0
100 92 100 89 40 99 100 100 100 100 76 52 93 90 34 25 92 97 2 1 6 10 0 0 0 2 5 5 5 4 2 0 0 0 0 99 52 0 0 0 0 0 0
100 100 100 100 93 80 96 100 100 100 72 100 53 100 99 5 21 5 2 3 2 2 4 3 5 5 36 100 100 99 0 0 0 0 7 73 67 32 0 0 0 0 0
100 100 100 100 99 100 75 40 100 100 100 100 100 50 5 6 6 4 2 5 5 5 5 5 14 100 100 100 16 5 2 0 0 0 1 8 85 5 0 0 0 0 0
100 100 100 100 100 100 100 100 100 100 100 61 6 17 5 5 5 16 5 5 27 43 100 99 100 97 100 46 47 5 0 0 0 2 2 20 0 0 0 0 0 0 0
100 100 100 100 100 100 100 80 69 47 84 100 100 90 97 26 45 88 23 100 100 92 100 100 99 100 78 100 18 5 0 0 0 0 0 32 0 0 0 0 0 0 0
100 100 100 100 100 84 54 93 100 90 100 100 100 100 100 69 98 94 81 100 100 89 98 100 43 79 87 63 5 2 2 0 0 0 0 0 0 0 0 0 0 0 0
100 100 100 100 100 100 100 100 100 100 100 100 100 100 100 100 100 92 100 52 100 97 100 100 20 99 8 5 2 0 0 0 0 0 0 0 0 0 0 0 0 0 0
100 100 100 100 100 100 100 100 100 100 100 100 100 99 100 100 100 100 100 100 100 100 100 50 50 95 39 5 0 0 0 0 0 0 5 0 0 0 0 0 0 0 0
100 100 100 100 100 100 100 100 100 100 100 100 100 100 100 100 100 100 100 100 100 100 93 33 11 10 5 4 0 0 0 1 1 3 12 0 0 0 0 0 0 0 0
100 100 100 100 100 100 100 100 100 100 100 100 100 100 100 100 100 100 100 100 100 66 6 36 6 5 5 43 95 10 2 0 0 3 21 0 0 0 0 0 0 0 0
100 100 100 100 100 100 100 100 100 100 100 100 100 100 100 100 100 100 100 100 100 44 46 29 5 8 0 0 1 2 0 0 0 8 1 1 3 0 0 0 0 0 0
100 100 100 100 100 100 100 100 100 100 100 100 100 100 100 100 100 100 100 92 100 99 74 79 61 7 6 2 3 3 10 21 0 0 1 0 0 0 0 0 0 0 9
100 100 100 100 100 100 100 100 100 100 100 100 100 100 100 100 100 100 100 90 100 39 100 100 100 88 74 14 54 100 100 14 13 2 0 0 0 0 0 0 0 0 0
100 100 100 100 100 100 100 100 100 100 100 100 100 100 100 100 100 42 57 95 100 81 81 96 98 94 100 100 100 100 100 67 30 3 0 0 0 0 0 0 0 0 0
100 100 100 100 100 92 100 100 100 100 100 100 100 99 100 100 100 100 99 100 100 100 100 100 100 100 100 67 18 5 6 4 1 0 2 0 5 3 0 5 4 0 0
100 100 100 100 100 100 100 100 100 100 100 100 100 100 99 100 100 100 100 100 100 100 100 100 100 100 100 95 85 5 5 5 0 0 0 0 5 1 0 1 5 2 0
82 83 99 100 100 100 100 100 100 100 100 100 100 100 100 100 100 100 100 100 100 100 100 77 99 56 5 5 14 14 5 5 5 1 1 3 8 40 4 2 2 2 0
100 100 100 100 100 100 100 100 100 99 99 100 100 100 100 96 100 100 93 84 98 100 100 100 100 23 10 7 16 26 12 5 5 5 5 6 27 94 64 18 6 4 2
100 89 100 100 100 81 22 29 5 5 5 43 100 100 100 80 82 100 90 99 100 0 3 4 3 5 3 0 0 5 5 5 5 72 100 100 100 100 78 64 56 95 14
87 100 99 91 88 72 74 90 30 5 54 11 67 61 45 70 99 71 99 47 5 3 0 4 5 5 10 24 66 40 42 79 96 5 56 55 80 44 87 98 77 79 88
94 92 89 44 33 5 5 5 5 63 76 67 92 98 100 100 100 100 41 2 0 0 1 5 5 45 96 90 56 10 5 5 5 6 0 8 99 83 39 9 56 66 84
65 7 5 5 5 5 5 5 18 57 93 98 100 70 55 41 42 12 5 2 5 5 5 5 5 5 5 5 5 6 5 50 98 68 69 22 5 59 100 100 92 97 82
3 4 5 5 5 5 5 5 9 61 93 95 90 19 5 6 6 4 4 5 5 5 5 5 9 93 86 90 99 73 12 78 88 91 90 87 20 7 5 21 7 23 64
0 1 5 5 4 1 5 5 6 33 84 93 63 5 5 5 5 5 5 5 5 6 82 86 64 98 68 67 72 68 78 90 100 81 66 49 92 10 100 65 12 4 8

GFSSE_prec_cloud_054.txt.gz
Cloud_Cover
100 92 100 100 100 24 61 98 96 100 100 100 99 100 75 94 58 30 10 48 58 44 7 2 0 0 0 0 0 0 0 0 0 1 40 5 0 0 0 0 0 0 0
54 87 100 99 100 100 100 49 18 100 100 100 100 100 100 100 94 62 100 100 16 61 5 0 0 0 0 0 0 0 0 3 5 5 0 56 1 0 0 0 0 0 0
100 100 100 58 67 64 20 29 98 99 90 100 96 92 100 100 100 100 100 100 7 5 3 0 0 0 0 0 1 5 11 6 5 4 0 51 100 68 0 0 0 0 0
90 100 100 100 100 98 92 21 76 35 25 100 100 100 100 100 72 74 81 64 5 5 3 3 5 4 5 5 28 92 100 98 3 70 41 48 99 2 0 0 0 0 0
100 100 100 100 100 92 100 99 98 89 90 100 99 100 100 100 100 89 85 61 5 4 5 8 58 12 26 77 100 98 100 9 2 16 40 1 0 0 0 0 0 0 0
100 100 100 100 100 100 100 100 100 100 100 100 100 98 98 76 100 100 100 100 100 82 100 52 99 100 100 100 100 7 20 26 5 73 3 6 56 0 0 0 0 0 0
100 100 100 100 100 100 100 100 100 100 100 100 100 100 96 92 100 100 100 100 96 100 100 100 98 100 100 100 97 100 98 9 0 8 0 0 0 0 0 0 0 0 0
100 100 100 100 100 100 100 100 100 100 100 100 100 100 100 100 100 100 100 100 100 100 99 99 100 100 100 100 100 100 9 3 3 0 0 0 0 0 0 0 0 0 0
100 100 100 100 100 100 100 100 100 100 100 100 100 98 100 100 100 100 100 100 100 100 100 100 100 100 100 39 62 58 12 5 0 2 7 0 0 0 0 0 0 0 0
100 100 100 100 100 100 100 100 100 100 100 100 100 100 100 100 100 100 100 100 100 100 100 100 100 100 98 96 7 5 2 1 0 28 0 0 0 0 0 0 0 0 0
100 100 100 100 100 100 100 100 100 100 100 100 100 100 100 100 100 100 100 100 100 100 100 100 100 8 57 88 26 60 22 0 0 21 4 0 0 0 0 0 0 0 0
100 100 100 100 100 100 100 100 100 100 100 100 100 100 100 100 100 100 100 100 100 100 100 100 69 23 5 3 5 5 3 1 0 2 2 2 0 1 0 0 0 0 0
100 100 100 100 100 100 100 100 100 100 100 100 100 100 100 99 100 100 100 100 100 100 97 24 6 98 20 67 6 3 0 0 0 58 84 89 100 90 0 0 0 0 28
100 100 100 100 100 100 100 100 100 100 100 100 100 100 100 100 100 100 100 100 100 100 99 96 25 81 11 92 14 25 5 16 40 34 99 100 93 93 2 0 0 0 0
100 100 100 100 100 100 100 100 100 100 100 100 100 100 100 100 100 100 100 100 100 100 95 82 37 11 2 5 5 3 96 33 100 98 47 0 1 0 0 0 0 0 0
25 41 72 97 96 100 100 100 80 100 100 100 100 100 100 100 100 100 99 100 73 100 55 26 82 100 100 100 100 100 100 100 100 100 100 0 0 0 1 0 5 2 0
100 100 100 100 100 100 100 100 100 100 100 100 100 100 100 100 100 100 100 93 69 100 98 99 100 100 100 100 100 100 100 62 5 43 5 0 0 0 0 0 0 80 9
100 100 100 99 100 100 100 100 100 100 100 100 100 97 100 100 100 100 100 96 36 99 100 98 98 99 88 5 5 87 99 8 5 5 5 0 0 0 0 3 0 2 0
100 100 100 100 100 100 100 100 100 100 100 100 98 94 62 99 100 100 99 100 100 71 100 100 99 55 99 50 3 5 5 5 66 31 10 5 5 4 12 63 49 1 0
98 72 91 100 100 100 100 100 69 59 99 88 12 5 8 5 32 87 58 53 71 74 86 100 79 42 1 0 0 1 3 1 0 3 4 37 88 98 100 100 93 7 5
40 100 100 100 100 100 100 100 68 81 4 4 4 5 5 5 5 5 5 5 5 5 0 0 0 0 2 5 5 0 0 4 5 5 5 5 6 81 100 99 100 100 44
100 100 100 100 100 100 51 17 5 5 18 5 5 5 5 5 6 6 28 4 5 5 4 0 0 4 3 0 0 5 5 5 5 5 5 3 65 100 94 76 93 84 61
100 100 100 69 17 6 100 30 5 4 5 5 5 5 13 17 5 5 5 5 5 5 0 0 0 2 0 4 2 3 5 5 4 3 5 2 5 30 92 98 99 79 39
81 86 51 83 38 73 30 5 3 5 5 5 12 99 34 9 6 5 5 5 5 0 0 3 1 0 0 5 5 4 3 5 5 5 5 1 3 5 5 5 46 49 49
42 48 50 2 82 5 7 6 5 73 100 98 54 89 84 72 8 5 4 5 5 5 5 5 82 79 7 5 5 5 5 5 5 39 5 5 5 60 20 5 4 1 0
7 5 0 11 0 1 0 0 5 5 5 5 13 5 9 31 80 70 11 5 5 5 4 4 10 2 5 5 80 75 35 40 74 98 75 23 22 0 4 4 0 0 0

GFSSE_prec_cloud_060.txt.gz
Cloud_Cover
100 54 31 82 84 78 60 49 77 80 94 100 91 58 91 46 5 5 20 100 78 15 73 3 5 6 1 4 0 3 0 0 0 0 1 2 18 0 0 0 0 36 2
94 55 86 100 100 100 100 100 98 100 78 99 100 85 85 98 39 8 17 27 90 77 5 5 5 5 5 4 0 2 0 0 0 0 0 64 0 0 1 25 81 4 0
100 80 73 99 100 100 100 97 86 100 100 100 100 97 98 89 100 100 100 32 62 26 77 15 5 98 3 5 3 0 0 0 2 0 8 0 0 51 100 41 0 0 0
100 93 96 100 100 99 100 100 100 100 100 100 100 100 96 98 100 100 100 100 100 95 100 94 12 5 5 4 2 34 0 0 29 78 5 4 0 18 13 0 0 0 0
100 68 89 86 99 100 100 100 100 100 100 100 100 100 100 100 100 100 100 99 100 100 98 46 66 15 4 1 0 1 0 5 100 2 3 79 100 10 0 0 0 0 0
100 92 100 100 100 100 100 100 100 100 100 100 100 100 100 100 100 100 100 100 100 100 73 99 46 44 5 5 1 0 2 100 66 5 100 64 12 10 0 0 0 0 0
100 99 100 100 100 100 100 100 100 100 100 100 100 100 100 100 100 100 100 100 100 100 89 31 6 5 53 93 7 100 100 46 11 95 59 5 3 0 0 3 0 0 0
100 100 100 100 100 100 100 100 100 100 100 100 100 100 100 100 100 100 68 100 100 99 93 86 97 89 100 5 62 90 9 59 100 99 6 5 4 5 4 0 0 0 0
100 100 100 100 100 100 100 100 100 100 100 100 100 100 100 100 100 100 100 100 95 100 99 100 100 100 79 6 58 98 99 100 96 15 94 91 5 5 5 5 0 0 0
100 100 100 100 100 100 100 100 100 100 100 100 100 100 100 100 100 100 92 96 100 100 100 100 56 100 100 100 100 95 16 100 100 98 99 6 29 40 5 5 0 0 1
100 100 100 100 100 100 100 100 100 100 100 100 100 100 100 100 96 74 100 100 100 100 100 100 93 100 100 100 100 100 100 100 55 66 10 7 5 13 11 1 0 19 100
100 100 100 100 100 100 100 100 100 100 100 100 100 100 100 78 100 100 100 100 100 100 100 100 96 100 100 100 100 100 100 65 5 23 4 5 5 5 1 3 10 86 60
100 100 100 100 100 100 100 100 100 100 100 100 100 100 100 100 100 100 100 100 100 100 100 100 100 100 100 100 100 100 100 99 5 4 5 5 3 12 67 100 100 100 100
100 100 100 100 95 100 100 100 100 100 100 100 100 100 100 100 100 100 100 100 100 100 100 100 100 100 100 100 100 87 80 14 41 57 79 6 5 36 10 28 5 2 4
100 100 100 100 100 100 100 100 100 100 100 100 100 100 100 100 100 100 100 100 100 100 100 100 100 100 100 100 90 89 32 75 100 85 2 0 8 8 34 56 22 9 4
100 100 100 100 100 100 100 100 100 100 100 100 100 100 100 100 100 100 100 100 100 100 100 100 100 100 70 20 5 5 2 0 0 0 0 0 0 0 0 0 2 1 0
100 100 100 100 100 100 100 100 100 100 100 100 100 100 100 100 100 100 100 100 100 100 100 100 73 19 22 5 5 4 0 0 0 0 0 0 0 0 0 0 0 5 5
100 100 100 100 100 100 100 100 100 100 100 100 100 100 100 100 100 100 100 100 100 22 14 6 5 5 5 4 0 0 0 0 0 0 0 0 0 0 0 66 94 54 97
100 100 100 100 100 100 100 100 100 100 100 100 100 100 100 100 100 94 95 77 99 56 50 20 5 3 0 0 0 0 0 0 0 0 0 0 0 0 2 5 6 40 100
100 100 100 100 100 100 100 100 100 100 100 100 98 98 100 100 100 100 100 100 93 13 5 4 0 0 0 0 0 0 0 0 0 0 0 0 4 1 3 42 59 86 99
100 100 100 100 100 100 100 100 100 100 63 100 100 100 100 100 14 5 2 5 19 4 0 0 0 0 0 5 0 0 0 0 0 0 5 5 5 2 3 65 79 99 98
94 100 98 100 100 97 100 100 98 97 98 100 100 100 100 98 87 23 52 6 5 4 1 3 5 5 21 3 0 0 0 0 0 0 0 0 1 5 2 1 25 74 82
100 78 95 58 99 100 100 100 100 100 100 98 76 6 7 15 15 2 5 1 1 0 5 5 5 3 0 1 0 0 0 0 2 12 45 70 31 16 6 5 5 4 1
96 94 99 100 100 100 100 100 100 100 99 74 24 34 6 1 4 0 1 2 4 5 5 5 5 4 0 0 0 0 2 4 5 37 90 73 98 99 61 9 5 3 0
100 100 100 100 70 34 7 10 14 39 32 41 3 0 1 5 5 5 5 5 5 5 5 3 0 0 0 0 0 1 5 7 6 5 17 23 6 5 5 5 0 0 5
98 28 18 10 19 36 13 58 67 8 0 0 1 5 40 65 90 99 79 73 27 22 5 0 0 1 5 0 2 7 49 5 5 5 28 82 81 5 5 5 65 25 3

GFSSE_prec_cloud_063.txt.gz
Cloud_Cover
97 100 100 100 100 100 100 78 74 100 31 33 5 5 22 57 91 30 31 59 68 13 36 26 5 5 27 5 5 5 4 0 0 0 0 0 0 0 0 0 0 0 0
100 100 100 74 42 34 97 97 91 92 93 51 84 5 12 11 5 10 33 70 46 5 5 5 5 51 5 5 5 6 0 0 0 0 0 0 0 0 0 11 0 4 5
100 99 52 78 82 17 100 100 100 100 96 73 82 18 75 26 64 5 5 42 7 80 100 10 5 5 5 5 2 0 0 0 0 0 0 0 3 14 5 0 0 4 0
100 99 76 36 5 34 43 99 100 100 100 100 97 98 100 71 69 39 91 84 92 38 12 28 13 12 9 6 4 3 0 5 4 0 0 0 5 1 0 0 0 0 0
100 97 61 5 47 5 99 100 100 100 100 100 100 100 100 96 100 100 91 100 100 14 18 5 7 6 33 30 11 67 7 4 68 10 0 4 76 3 5 1 5 0 0
100 78 18 23 23 100 92 100 100 100 100 100 100 100 100 100 100 100 100 100 74 11 52 32 93 19 23 8 16 4 63 5 100 10 8 2 6 1 0 31 5 0 0
96 79 100 100 100 100 100 100 100 100 100 100 100 100 100 100 100 100 95 92 78 57 100 68 56 87 7 22 93 94 99 90 5 95 28 0 0 24 87 1 2 5 0
90 85 100 100 100 100 100 100 100 100 100 100 100 100 100 100 100 100 100 100 100 100 98 90 87 5 94 12 88 89 100 11 8 7 3 0 6 68 8 5 32 5 0
100 100 100 100 100 100 100 100 100 100 100 100 100 100 100 100 100 100 100 99 96 100 100 100 100 92 15 54 99 100 37 82 14 5 25 94 100 93 34 100 7 5 4
100 100 100 100 100 100 100 100 100 100 100 100 100 100 100 100 100 100 100 82 100 98 48 100 90 10 100 100 100 42 54 14 78 19 25 100 100 98 81 70 5 5 5
100 100 100 100 100 100 100 100 100 100 100 100 100 100 100 97 100 100 100 100 100 100 94 100 100 100 100 100 82 54 99 100 100 100 100 100 97 100 91 5 5 5 1
100 100 100 100 100 100 100 100 100 100 100 100 100 100 100 100 100 100 99 100 100 100 100 100 100 100 100 100 100 100 100 100 100 100 92 69 56 36 51 23 5 2 0
100 100 100 100 100 100 100 100 100 100 100 100 100 100 94 91 99 100 100 100 100 100 100 99 100 100 100 100 100 76 92 100 100 100 29 20 8 11 5 20 30 1 4
100 100 100 100 100 100 100 100 100 100 100 100 100 100 100 100 100 100 100 100 100 100 99 100 100 88 100 100 100 100 100 72 5 4 5 4 0 0 0 1 33 38 1
100 100 100 100 100 100 100 100 100 100 100 100 100 100 100 100 100 44 100 100 100 100 100 100 100 100 100 100 100 100 15 21 32 22 5 0 0 0 0 0 0 0 0
100 100 100 100 100 100 100 100 100 100 100 100 100 100 100 100 100 100 89 66 80 99 100 100 100 100 98 67 36 8 65 77 93 18 0 0 0 0 0 0 0 1 2
100 100 100 100 100 100 100 100 100 100 100 100 100 100 100 100 62 96 97 100 100 100 100 100 94 99 100 93 90 16 88 6 0 0 0 0 0 0 0 0 0 5 5
100 100 100 100 100 100 100 100 100 100 100 100 100 100 99 100 100 100 98 100 100 100 100 100 100 82 35 60 17 5 0 0 0 0 0 0 0 0 0 0 5 5 5
100 100 100 100 100 100 100 100 100 100 86 100 100 68 100 100 100 100 93 100 100 100 100 74 56 26 56 51 3 0 0 0 0 0 0 0 0 0 1 5 19 32 12
100 100 100 100 100 67 100 90 96 98 100 100 100 95 96 100 100 95 96 100 100 100 100 99 27 5 3 0 0 0 0 0 1 0 0 0 0 0 0 0 2 8 71
100 100 100 100 100 100 100 81 100 100 72 100 90 100 100 97 100 100 100 100 60 5 5 5 2 0 0 0 0 0 0 0 0 0 0 0 0 0 0 0 4 5 5
100 100 100 100 100 100 100 100 100 100 100 100 100 100 100 100 100 100 62 5 28 5 2 0 0 0 0 0 0 0 0 0 0 0 0 0 5 5 7 5 5 0 0
100 99 100 100 80 100 95 95 100 100 100 100 100 100 100 100 44 5 22 4 0 0 1 1 4 31 12 3 0 0 0 0 0 0 0 5 58 100 45 5 7 21 14
69 10 85 99 21 66 56 100 100 100 99 82 76 14 25 80 46 4 5 1 4 3 6 74 78 77 5 0 0 0 0 0 0 3 2 5 21 30 37 12 18 5 5
62 88 100 100 100 100 98 100 100 97 91 22 6 24 38 5 2 1 6 12 7 7 82 92 74 73 3 5 5 5 5 2 3 5 8 5 5 5 5 5 6 62 5
100 100 100 100 100 84 66 70 6 12 32 36 6 3 5 5 14 79 97 100 100 100 82 5 9 61 6 5 5 5 5 5 5 5 32 5 16 24 5 38 100 99 55

GFSSE_prec_cloud_066.txt.gz
Cloud_Cover
94 58 52 53 35 5 5 5 5 16 5 5 20 37 77 7 5 5 5 5 5 0 4 5 4 0 0 0 0 0 0 0 3 0 0 0 0 0 0 0 0 0 0
100 49 5 46 18 12 5 5 5 5 79 98 36 84 57 94 90 35 5 5 5 3 3 0 5 3 0 0 0 0 0 2 0 0 0 0 0 0 0 0 0 0 0
100 98 74 21 5 5 5 5 28 10 94 100 90 90 99 100 100 86 15 5 5 5 5 6 5 5 0 0 0 4 8 5 2 1 0 0 0 0 0 0 0 0 0
100 93 97 100 33 15 5 5 72 45 99 100 88 100 97 99 100 73 43 31 12 30 99 25 4 4 1 0 16 22 4 3 2 2 4 1 0 0 0 0 0 0 0
100 93 100 40 45 20 5 100 100 100 100 98 100 100 99 93 98 82 80 74 92 82 50 5 4 5 5 6 5 4 4 4 5 0 2 1 5 0 0 0 0 0 2
100 100 47 45 15 11 98 100 96 100 100 100 100 94 74 96 99 100 100 100 8 75 94 60 100 94 96 97 5 5 5 5 5 1 2 5 5 0 0 0 0 1 3
99 39 9 3 72 89 100 100 100 100 99 100 100 100 100 100 100 100 97 100 100 100 100 100 81 10 35 5 5 5 5 3 5 4 6 5 1 2 5 5 6 5 3
44 70 47 90 100 100 100 100 100 100 100 100 100 100 100 100 100 100 100 100 100 55 92 100 5 6 49 10 8 5 5 11 36 92 93 6 42 5 5 5 9 5 64
99 100 100 100 100 100 100 100 100 100 100 100 100 100 100 100 100 100 100 100 100 71 16 24 94 15 100 95 64 75 32 73 100 92 52 20 26 94 33 100 76 97 97
100 100 100 100 100 100 100 100 100 100 100 100 100 100 100 100 100 100 100 99 100 100 72 86 26 8 90 62 19 36 100 17 25 100 100 100 100 100 100 100 17 46 57
100 100 100 100 100 100 100 100 100 100 100 100 100 100 100 100 100 100 100 100 100 100 89 47 44 100 95 100 100 46 82 92 100 100 100 100 100 100 100 94 22 4 5
100 100 100 100 100 100 100 100 100 100 100 100 100 100 100 100 100 100 100 100 100 94 96 98 100 98 54 55 100 100 100 88 99 100 100 60 10 5 7 5 5 2 0
100 100 100 100 100 100 100 100 100 100 100 100 100 100 100 99 100 100 98 99 100 100 100 100 100 43 52 12 11 32 16 3 5 17 8 5 4 5 4 16 0 0 0
100 100 100 100 100 100 100 100 100 100 100 100 100 100 100 100 100 100 100 100 100 100 98 19 52 100 95 5 3 5 14 7 5 6 4 0 5 5 4 4 2 1 0
100 100 100 100 100 100 100 100 100 100 100 100 100 100 100 100 100 100 100 100 86 82 100 100 94 6 5 5 34 65 88 53 5 2 5 5 5 0 0 0 0 12 18
100 100 100 100 100 100 100 100 100 100 100 100 100 100 100 100 100 100 100 100 100 100 100 86 75 60 97 6 43 6 5 5 8 8 11 4 0 0 0 10 12 28 22
100 100 100 100 97 100 100 100 100 100 100 100 100 100 100 100 100 88 57 98 25 24 97 100 93 98 64 8 44 9 77 15 41 7 0 0 0 0 0 0 0 2 0
100 100 100 100 100 100 100 100 100 100 100 100 100 98 66 89 86 61 70 95 61 100 100 97 60 82 65 57 31 5 15 33 2 0 0 0 0 0 0 0 0 2 5
100 100 100 100 100 100 100 100 100 100 100 100 100 100 98 55 13 76 73 74 99 73 62 100 100 100 36 5 10 5 0 0 0 0 0 0 0 0 0 0 0 0 4
71 98 96 100 100 100 100 98 100 100 100 100 90 98 100 90 84 5 81 100 100 43 74 100 74 14 6 5 1 0 0 0 0 0 0 0 0 0 0 0 0 0 0
100 97 67 100 100 100 100 100 100 100 97 100 100 100 97 100 100 100 100 100 100 71 99 53 42 5 1 0 0 3 1 0 0 0 0 0 0 0 0 0 0 0 0
100 100 100 100 100 100 100 100 100 100 100 100 100 100 100 100 100 100 96 84 90 46 71 66 4 1 0 4 5 5 5 1 0 0 0 0 0 0 0 0 5 5 1
100 100 100 100 100 100 100 100 100 100 100 100 100 100 100 100 100 97 60 72 80 67 5 5 4 5 5 5 5 5 12 2 0 2 5 1 0 0 0 0 1 5 5
100 100 100 100 100 100 100 100 100 100 100 100 100 98 37 62 88 72 99 75 8 18 5 5 4 5 36 4 5 5 5 2 5 5 5 5 5 4 5 5 5 5 5
100 100 100 100 100 100 100 100 100 100 100 100 100 81 45 15 83 36 26 66 18 6 32 22 44 5 5 5 5 5 5 4 5 5 9 5 4 2 5 5 5 5 69
100 100 92 100 100 86 42 100 100 100 100 95 77 69 46 16 34 90 69 99 85 60 81 99 67 5 49 5 5 5 5 5 5 6 35 8 8 5 5 15 6 5 5

GFSSE_prec_cloud_069.txt.gz
Cloud_Cover
91 94 65 20 36 28 34 79 62 27 66 88 100 100 95 80 90 7 11 22 5 5 2 0 0 0 0 0 0 0 0 0 0 0 1 0 0 0 0 0 0 0 0
87 35 7 6 6 5 5 5 5 5 5 7 76 81 47 5 5 5 46 31 14 2 2 0 0 0 2 0 0 0 0 0 0 5 0 0 0 0 0 0 0 0 0
71 46 6 3 5 5 5 5 5 5 9 5 5 98 25 5 59 35 25 5 60 29 5 5 5 5 2 2 2 0 0 1 5 4 2 0 0 0 0 1 0 0 0
90 52 75 72 74 5 5 5 5 64 65 5 64 46 7 5 74 74 100 100 95 14 5 8 75 21 12 5 4 0 1 5 4 3 0 0 0 0 0 0 0 0 0
98 69 84 100 73 55 92 20 81 98 80 7 92 90 70 51 91 100 100 100 70 27 96 23 58 5 24 36 4 4 5 4 5 1 0 0 0 0 0 0 2 0 0
98 49 90 46 5 90 100 100 63 5 20 32 99 100 29 59 100 100 100 100 97 75 98 52 99 25 99 100 5 1 4 1 0 0 0 0 0 0 0 4 5 0 4
96 44 17 6 36 90 37 100 100 15 71 100 98 79 96 82 100 100 100 97 86 94 99 55 19 11 90 84 34 4 5 4 4 4 0 0 1 5 5 5 1 20 73
100 74 50 60 98 100 100 100 100 95 100 100 100 100 100 100 100 100 98 82 85 82 84 100 42 7 38 4 5 4 1 3 3 5 5 5 5 33 96 12 7 83 5
97 95 100 100 100 100 100 100 100 100 100 100 100 100 100 100 100 100 100 100 100 100 19 5 5 5 5 5 5 5 5 5 5 5 16 79 88 100 98 15 8 9 41
100 100 100 100 100 100 100 100 100 100 100 100 100 100 100 100 100 100 100 100 100 100 100 100 48 86 56 5 5 5 5 59 38 88 55 14 5 5 56 73 5 5 85
100 100 100 100 100 100 100 100 100 100 100 100 100 100 100 100 100 100 100 100 100 100 93 100 100 94 100 17 77 94 66 5 6 31 13 0 4 10 96 5 4 0 0
100 100 100 100 100 100 100 100 100 100 100 100 100 100 100 100 100 100 99 91 81 100 99 75 100 97 50 66 13 60 60 18 23 3 3 2 5 5 9 5 5 0 0
100 100 100 100 100 100 100 100 100 100 100 100 100 100 96 80 100 97 100 100 90 68 94 45 100 6 42 6 36 17 82 29 2 4 2 5 5 5 10 19 2 0 0
100 100 100 100 100 100 100 100 100 100 100 100 100 100 100 100 100 100 100 100 100 100 100 77 56 100 79 37 20 5 5 32 5 8 5 5 5 0 5 16 10 0 0
100 100 100 100 100 100 100 100 100 100 100 100 100 100 100 100 100 100 100 100 95 100 30 97 100 84 16 13 11 5 5 7 7 19 5 5 2 5 0 0 6 7 8
100 100 100 100 100 100 100 100 100 100 100 100 100 98 100 100 100 100 83 100 90 10 84 100 98 50 99 10 23 65 17 69 48 5 5 5 2 0 0 1 2 19 16
100 100 100 100 100 100 100 100 100 100 100 100 100 100 100 65 100 78 8 61 27 70 39 35 5 77 22 35 98 12 62 25 5 22 5 0 0 0 0 0 0 1 1
100 100 100 100 100 100 100 95 100 100 100 100 100 100 100 100 100 100 100 94 90 87 5 44 17 28 100 99 21 91 99 52 5 5 2 0 0 0 0 0 0 0 5
100 100 100 100 100 100 100 100 100 100 100 100 100 100 100 100 100 100 100 98 6 5 39 62 97 100 98 91 58 26 5 5 4 0 0 0 0 0 0 0 0 0 0
100 100 100 100 100 100 100 99 97 100 100 100 100 100 100 100 100 93 58 8 81 100 100 99 52 14 18 25 5 5 5 1 0 0 0 0 0 0 0 0 0 0 0
100 100 100 100 100 100 100 100 100 100 100 100 100 100 100 100 100 66 86 42 76 100 100 96 6 29 55 34 5 2 0 2 0 0 0 0 0 0 0 0 0 0 0
23 78 100 94 100 100 97 100 100 100 100 100 100 100 100 100 100 100 89 100 95 43 65 42 24 59 5 3 3 3 0 0 0 0 0 0 0 0 0 0 0 0 0
95 33 43 99 62 76 82 96 81 100 100 100 100 100 100 100 52 65 100 100 58 35 40 47 23 5 5 5 4 57 0 0 0 0 0 2 2 5 2 0 0 0 1
95 68 81 36 51 75 90 88 100 100 100 100 100 100 100 100 73 76 55 34 38 9 5 33 8 5 5 5 8 2 0 1 3 5 5 5 5 4 3 2 2 4 5
100 100 100 100 100 100 98 81 98 99 100 100 100 100 100 95 21 51 26 5 42 92 100 100 31 70 39 6 5 5 5 5 5 5 5 5 5 5 5 5 4 5 5
100 100 100 100 100 100 100 100 100 100 100 100 100 100 100 100 61 6 5 19 77 68 100 100 100 71 67 50 17 5 5 5 5 5 5 4 5 5 12 19 5 5 2

GFSSE_prec_cloud_072.txt.gz
Cloud_Cover
76 100 100 100 100 100 100 99 100 100 46 14 68 20 7 47 55 5 5 4 1 0 0 4 3 4 3 0 0 3 0 0 0 0 0 0 0 0 0 0 0 0 0
60 33 58 100 100 100 87 40 5 9 5 9 54 5 5 5 5 5 11 5 8 13 1 0 4 4 5 5 4 4 0 0 0 0 0 0 0 0 0 0 0 0 0
78 44 96 100 100 100 96 11 5 5 5 17 6 5 5 5 9 19 90 84 96 71 87 15 5 5 5 5 5 5 5 5 0 0 0 0 0 0 0 0 0 0 0
77 12 5 5 18 3 5 5 5 13 5 5 5 5 12 27 56 100 80 32 88 25 8 4 5 81 85 5 38 3 4 41 1 2 0 2 0 0 0 0 0 0 0
99 80 100 30 3 0 0 5 5 5 5 5 5 5 72 100 100 92 98 31 26 5 5 5 5 84 13 30 5 25 100 66 20 3 4 0 0 0 0 0 0 0 0
93 100 37 49 5 5 5 5 5 40 61 5 5 5 81 100 100 100 100 92 72 98 64 100 71 47 57 15 33 74 11 5 5 40 3 0 0 2 0 0 0 0 0
100 100 8 5 5 59 94 43 77 100 91 7 74 57 100 100 100 91 80 52 89 71 92 98 70 60 100 76 27 13 26 5 16 3 4 0 0 0 1 0 0 0 0
63 78 56 94 63 100 100 100 100 100 100 96 96 100 100 100 100 99 100 100 84 100 100 98 100 99 6 41 51 22 5 5 1 0 0 0 0 3 1 5 0 1 3
100 80 98 100 100 100 100 100 100 100 100 100 100 100 100 100 100 100 100 100 100 100 100 100 65 81 32 99 76 4 5 2 3 0 0 4 0 3 5 5 0 0 0
100 100 100 100 100 100 100 100 100 100 100 100 100 100 100 100 100 100 100 100 100 100 100 100 100 100 96 100 58 72 4 5 5 5 3 0 5 6 5 3 0 0 0
100 100 100 100 100 100 100 100 100 100 100 100 100 100 100 100 100 100 100 100 100 100 100 100 100 100 90 100 74 13 30 16 9 4 7 48 5 9 2 2 0 0 0
100 100 100 100 100 100 100 100 100 100 100 100 100 100 100 100 100 100 90 100 100 100 100 97 97 100 88 14 68 100 100 98 100 19 10 5 5 2 4 17 5 0 0
100 100 100 100 100 100 100 100 100 100 100 100 100 100 100 100 100 100 100 98 99 100 100 100 100 100 100 76 13 6 5 76 96 52 7 2 5 5 5 33 10 1 5
100 100 100 100 100 100 100 100 100 100 100 100 100 100 100 100 88 100 100 100 98 100 100 100 96 14 5 58 5 14 57 90 10 5 9 5 5 5 5 24 5 0 0
100 100 100 100 100 100 100 100 100 100 100 100 100 100 100 99 83 100 100 100 100 92 82 53 38 8 6 5 8 11 5 4 5 11 12 5 5 5 5 5 5 4 0
100 100 100 100 100 100 100 100 100 100 100 100 100 100 100 100 100 100 99 100 65 44 98 63 48 5 14 55 96 6 19 11 65 6 5 5 5 5 2 3 14 12 12
100 100 100 100 100 100 100 100 100 100 100 100 100 100 100 100 100 100 100 70 76 96 95 99 99 100 100 100 100 5 27 7 5 5 5 5 5 5 0 0 0 0 0
100 100 100 100 100 100 100 100 100 100 100 100 100 100 100 100 73 58 51 71 76 45 100 100 100 67 84 25 5 43 7 5 5 6 5 5 2 0 0 0 0 0 0
100 85 77 100 100 100 100 100 100 100 100 100 100 100 100 52 88 100 86 100 100 100 96 90 78 64 97 82 95 5 5 5 20 5 4 0 0 0 0 0 0 0 0
100 100 100 100 100 100 100 100 100 100 100 100 100 100 100 100 97 86 93 100 80 74 92 100 100 51 74 100 73 13 5 5 5 2 0 0 0 0 0 0 0 0 0
100 100 100 100 100 100 100 100 100 100 100 83 100 100 100 100 100 94 100 100 100 100 100 100 9 9 90 22 3 5 5 5 0 0 0 0 0 0 0 0 0 0 0
94 100 100 100 100 100 100 100 100 100 100 100 100 100 100 100 100 85 86 100 100 100 86 25 20 17 12 5 5 5 4 0 1 2 4 1 5 2 3 5 5 5 5
100 91 100 77 85 100 100 100 100 100 100 100 100 100 100 100 100 100 100 100 100 72 66 6 11 29 5 14 5 5 5 5 0 0 2 5 5 5 5 5 5 5 5
99 100 100 54 43 56 75 26 57 99 100 100 100 100 100 100 91 92 100 100 100 94 53 5 56 40 96 25 5 5 5 3 0 1 5 6 33 5 5 5 5 5 5
39 43 82 41 58 91 84 97 74 90 100 100 100 100 100 100 99 100 100 100 100 97 13 54 5 18 100 77 7 5 0 2 5 7 59 5 3 5 5 5 5 5 5
100 97 98 100 100 100 100 100 100 100 98 100 100 100 100 96 100 100 100 100 100 100 69 86 100 100 90 15 28 0 5 5 5 5 5 2 3 0 0 5 4 5 48

GFSSE_prec_cloud_075.txt.gz
Cloud_Cover
100 100 100 100 90 100 100 100 100 100 100 100 100 100 100 100 84 60 5 4 0 0 0 0 4 1 2 2 4 5 0 4 3 0 0 0 0 0 0 0 0 0 0
92 100 100 100 100 100 100 100 100 100 100 100 100 100 51 92 28 4 4 0 5 64 56 75 38 6 39 8 1 0 0 1 0 0 1 2 0 0 0 0 0 0 0
35 100 100 100 100 100 100 100 100 100 97 100 100 76 5 5 5 5 5 15 5 5 21 22 5 95 9 10 7 5 2 0 3 5 4 11 6 2 0 0 0 0 0
82 74 100 95 100 58 84 59 41 41 25 5 19 5 5 5 5 6 65 69 31 12 22 38 6 7 4 14 78 5 5 20 0 16 52 6 5 5 0 0 0 0 0
98 68 70 100 89 13 34 33 88 87 5 5 5 5 5 74 33 71 85 6 25 16 6 83 12 22 5 5 4 4 5 5 2 4 3 2 4 0 0 0 0 0 0
100 17 40 100 71 5 0 0 5 3 3 5 5 25 42 66 79 64 38 15 90 5 99 98 99 14 5 20 5 83 100 33 4 31 29 5 5 2 0 0 0 0 0
100 100 28 97 59 3 6 5 5 5 17 54 100 84 100 92 98 100 90 76 57 100 100 100 96 78 23 77 18 21 16 40 4 8 24 1 0 2 0 0 0 0 0
100 88 57 97 89 36 23 8 72 97 100 98 100 100 100 100 99 100 100 100 100 99 100 100 100 93 100 54 31 5 7 26 70 5 78 1 0 0 0 0 0 0 0
100 100 100 100 100 100 99 84 92 100 100 100 100 100 100 100 100 100 100 100 100 100 100 100 100 100 100 100 100 99 100 99 91 0 13 4 1 5 14 16 5 0 0
100 100 100 100 100 100 100 100 100 100 100 100 100 99 100 100 100 100 100 100 100 100 100 100 100 100 100 100 100 100 100 99 19 3 5 3 3 2 9 8 5 0 0
100 100 100 100 100 100 100 100 100 100 100 100 100 100 100 100 100 100 100 100 100 100 97 100 100 100 97 88 97 99 84 84 5 5 2 3 0 5 11 1 0 0 0
100 100 100 100 100 100 100 100 100 100 100 100 100 100 100 100 100 100 100 100 100 100 100 96 100 82 95 100 100 100 100 72 4 0 2 5 5 5 10 17 2 5 0
100 100 100 100 100 100 100 100 100 100 100 100 100 100 100 100 100 100 100 100 100 100 100 100 82 93 100 96 100 96 86 20 5 14 5 50 52 4 15 28 5 1 0
100 100 100 100 100 100 100 100 100 100 100 100 100 100 100 100 100 100 100 100 100 100 100 100 98 89 97 100 39 99 17 10 70 80 100 27 2 4 13 12 0 5 0
100 100 100 100 100 100 100 100 100 100 100 100 100 100 100 100 100 100 98 80 91 91 99 100 100 82 13 62 100 100 99 82 100 99 22 3 2 5 5 4 11 12 1
100 100 100 100 100 100 100 100 100 100 100 100 100 100 100 100 100 100 100 100 100 100 100 100 95 25 11 39 13 99 100 100 27 7 5 22 51 4 3 0 9 9 0
100 100 100 100 100 100 100 100 100 100 100 100 100 100 100 100 100 100 100 100 100 100 100 100 100 57 24 69 100 100 68 45 38 66 45 5 5 2 0 0 0 0 0
100 100 100 100 100 100 100 100 100 100 100 100 100 100 100 100 100 100 100 100 100 99 98 96 74 65 71 100 44 18 94 100 94 5 5 2 0 0 5 0 0 0 0
100 100 100 100 100 100 100 100 100 100 100 100 100 100 100 100 100 100 100 100 79 52 90 88 39 100 90 95 100 100 97 6 5 4 4 0 0 0 0 0 0 0 0
100 100 100 100 100 100 100 100 100 100 100 100 100 100 100 100 100 100 100 99 11 44 89 77 70 95 100 100 100 54 5 3 4 0 5 3 3 0 0 0 0 0 0
100 100 100 100 100 100 100 92 100 100 100 100 100 100 100 100 100 100 100 100 98 69 100 97 89 100 100 100 47 28 5 6 2 0 2 0 1 3 5 4 5 4 0
100 100 100 100 100 100 100 99 100 100 100 100 100 100 100 100 100 100 91 84 100 100 100 93 49 42 34 14 5 5 5 5 5 5 0 0 4 5 5 5 5 5 5
100 100 100 100 100 100 100 100 100 100 100 100 100 100 96 92 93 100 100 100 100 100 95 99 96 91 94 55 16 5 5 5 4 0 0 0 3 3 4 5 5 9 6
100 100 100 100 100 100 100 100 100 100 100 100 95 100 100 100 100 100 100 98 100 61 45 93 100 100 100 100 97 97 12 4 1 0 0 0 5 47 65 5 5 5 5
48 88 61 77 99 100 100 85 74 49 100 100 100 64 100 99 100 100 100 100 100 100 100 100 100 100 100 100 91 19 44 11 5 5 5 5 5 5 5 0 5 5 5
87 5 4 5 42 53 74 71 88 86 100 100 100 100 98 100 100 100 100 100 100 100 100 100 100 100 100 100 94 76 97 27 4 5 5 5 5 5 5 0 0 5 3

GFSSE_prec_cloud_078.txt.gz
Cloud_Cover
100 100 100 5 7 18 19 14 28 100 86 100 100 93 100 100 100 88 83 53 52 5 10 5 1 61 47 13 5 5 3 4 0 0 0 0 0 0 0 0 0 0 0
100 100 100 95 7 95 100 60 85 97 100 100 100 100 100 100 100 27 5 5 5 4 6 3 45 18 88 12 5 5 3 4 0 0 2 0 0 2 0 0 0 0 0
100 95 53 10 13 79 10 100 100 92 92 100 100 100 100 100 91 56 5 5 6 17 13 5 24 100 33 3 0 4 2 0 17 68 20 2 2 0 0 0 0 0 0
100 100 100 6 14 20 100 100 100 100 100 100 100 100 100 83 35 3 5 5 5 5 71 17 37 49 46 5 0 0 0 3 33 85 31 1 0 0 0 0 0 0 0
100 100 100 100 63 4 1 47 100 100 100 99 37 13 5 5 5 5 5 5 39 50 100 92 100 83 5 7 5 5 5 18 21 18 90 6 4 4 0 0 0 0 0
100 100 100 100 67 4 0 0 2 5 5 5 5 5 5 5 5 5 5 5 75 77 58 44 99 6 100 37 5 5 5 40 98 5 5 3 0 0 0 0 0 0 0
100 100 100 100 63 1 1 5 96 5 5 37 66 59 76 93 100 6 6 40 90 78 29 19 42 100 100 33 56 6 5 0 72 15 11 6 64 5 2 0 0 0 0
100 100 100 100 100 94 5 79 90 67 95 100 93 100 100 85 95 63 65 98 98 88 84 96 91 70 96 98 97 48 65 70 100 100 78 6 7 5 0 5 0 0 0
100 100 100 100 100 100 100 71 72 42 82 96 100 100 100 58 100 93 100 100 100 100 98 100 100 98 100 84 86 49 100 100 100 61 86 10 70 3 4 1 0 0 0
100 100 100 100 100 100 100 91 100 100 100 100 100 100 100 98 100 100 100 100 100 100 100 100 80 62 99 89 99 7 21 82 40 69 10 5 5 5 14 0 0 4 62
100 100 100 100 100 100 100 100 100 100 100 100 100 100 100 100 100 100 100 100 100 100 100 100 100 99 100 91 84 100 100 60 7 4 55 100 100 81 23 3 64 96 35
100 100 100 100 100 100 100 100 100 100 100 100 100 100 100 100 100 100 100 100 100 100 100 100 100 100 100 63 81 34 20 12 85 48 100 38 5 3 32 100 75 5 0
100 100 100 100 100 100 100 100 100 100 100 100 100 100 100 100 100 100 100 100 100 100 100 100 95 100 100 66 68 50 80 92 100 15 5 44 100 100 100 100 6 5 5
100 100 100 100 100 100 100 100 100 100 100 100 100 98 100 100 100 100 100 100 100 100 92 100 100 90 94 56 7 95 18 5 7 6 5 25 100 75 10 26 10 6 5
100 100 100 100 100 100 100 100 100 100 100 100 100 100 100 100 100 100 100 100 100 100 97 99 79 100 67 99 100 47 53 45 70 58 99 100 38 5 23 100 19 18 0
100 100 100 100 100 100 100 100 100 100 100 100 100 100 100 100 100 100 100 100 100 100 100 100 99 73 100 99 100 100 100 100 21 100 100 5 74 96 51 3 0 5 0
100 100 100 100 100 100 100 100 100 100 100 100 100 100 100 100 100 100 100 100 100 100 100 100 100 100 100 100 64 79 84 50 82 9 70 99 18 16 5 0 0 0 0
100 100 100 100 100 100 100 100 100 100 100 100 100 100 100 100 100 100 100 100 100 100 88 95 71 97 62 61 100 53 78 96 29 31 25 5 5 5 4 0 0 0 0
100 100 100 100 100 100 100 100 100 100 100 100 100 100 100 100 100 100 100 99 99 100 100 100 100 92 95 41 76 100 100 100 68 5 5 5 2 0 0 0 0 0 0
100 100 100 100 100 100 100 100 100 100 100 100 100 100 100 100 100 100 100 100 100 100 100 97 94 78 74 99 100 100 100 94 75 6 5 5 5 0 0 0 0 0 0
54 96 100 100 100 100 100 100 100 100 100 100 100 100 100 100 100 100 100 100 100 100 100 72 44 100 79 98 100 100 100 98 33 5 5 4 2 0 0 0 0 0 0
100 100 100 100 100 100 100 84 100 100 100 100 100 100 100 100 100 100 100 100 100 95 96 100 97 61 95 100 100 57 99 34 98 99 44 18 30 82 7 0 4 2 0
96 100 100 100 100 100 72 47 100 100 100 100 100 100 100 100 100 100 96 100 100 98 69 68 100 100 84 59 94 100 100 99 85 11 29 8 5 2 0 0 5 0 4
100 100 100 100 100 100 100 100 100 100 100 100 99 100 100 100 100 100 100 100 75 100 100 100 100 100 100 81 100 100 100 100 100 100 98 9 2 5 5 5 0 4 3
83 12 79 90 100 100 100 100 100 100 100 100 100 100 99 100 98 100 100 100 100 99 100 100 100 100 100 100 100 100 99 94 64 100 100 84 31 73 5 4 0 0 0
100 84 51 96 100 100 100 100 100 100 90 98 93 96 88 100 100 100 100 100 100 88 100 100 100 100 100 100 100 100 100 100 100 100 58 1 0 0 0 4 1 5 4

GFSSE_prec_cloud_081.txt.gz
Cloud_Cover
100 100 100 99 80 64 49 100 100 100 100 80 81 90 100 100 100 100 90 89 51 51 9 5 21 5 5 3 5 2 2 4 3 1 0 0 0 0 0 0 0 0 0
100 93 100 100 79 100 99 66 64 35 100 97 24 98 100 100 100 100 100 53 99 5 5 5 5 5 4 7 11 5 5 2 5 3 0 0 0 0 0 0 0 0 0
100 92 100 80 100 100 91 100 100 64 45 60 100 99 100 100 100 100 100 100 95 63 26 5 1 0 5 5 5 5 4 0 0 0 0 0 8 5 2 1 0 0 0
100 100 100 100 100 100 100 100 100 52 8 30 80 85 91 100 100 100 100 100 100 92 5 5 5 7 32 60 57 88 19 0 0 0 0 0 5 5 5 0 4 0 0
100 100 100 100 100 100 100 100 100 100 95 31 100 9 97 100 84 81 47 40 5 4 5 5 49 81 69 97 100 91 0 2 1 4 0 0 5 5 4 0 0 0 0
100 100 100 100 100 100 100 100 100 100 100 100 100 100 100 72 5 5 5 5 5 5 5 5 40 86 6 5 6 0 5 5 5 5 3 4 42 8 99 16 5 5 4
100 100 100 100 100 100 100 100 100 99 98 100 99 100 82 15 5 5 42 30 14 10 8 15 81 9 37 5 5 5 66 62 5 5 74 86 87 51 12 5 5 17 0
100 97 100 100 100 100 100 100 100 100 30 20 5 5 31 7 5 35 71 62 75 43 87 100 100 50 88 20 5 3 94 100 96 62 5 6 19 67 8 5 4 0 6
100 100 100 100 100 100 100 100 100 100 82 10 56 96 86 5 13 58 73 95 98 99 100 100 100 100 100 51 14 68 100 100 100 82 2 33 97 22 4 0 3 5 25
100 100 100 100 100 100 100 100 100 100 31 91 55 65 87 100 96 80 60 91 100 100 100 100 100 100 25 32 88 90 85 5 21 20 5 10 5 28 7 6 91 5 3
100 100 100 100 100 100 100 100 100 100 100 100 100 100 100 100 100 100 94 99 100 100 79 80 100 79 69 85 79 100 100 62 6 2 1 1 1 37 50 2 3 0 0
100 100 100 100 100 100 100 100 100 100 100 100 100 100 100 100 100 100 100 100 100 100 100 100 100 100 100 100 100 100 100 24 5 5 3 2 5 2 22 6 8 5 5
100 100 100 100 100 100 100 100 100 100 99 99 100 100 100 100 100 100 100 100 100 100 99 98 100 100 100 100 91 80 74 58 5 5 5 5 5 41 64 17 5 5 5
100 100 100 100 100 100 100 100 100 100 100 100 100 100 100 100 100 100 100 100 100 100 100 100 100 100 100 92 40 99 98 85 94 10 100 100 100 96 95 100 24 3 16
100 100 100 100 100 100 100 100 100 100 100 100 100 100 100 100 100 100 100 100 100 100 100 100 100 100 93 94 93 100 67 78 5 10 64 90 45 28 34 57 22 28 9
100 100 100 100 100 100 100 100 100 100 100 100 100 100 100 100 97 100 100 100 100 100 100 100 100 100 98 100 100 100 94 72 100 53 8 5 5 14 9 28 5 5 3
100 100 100 100 100 100 100 100 100 100 100 100 100 100 100 100 100 100 100 100 100 100 100 100 100 100 100 100 100 100 100 82 10 5 5 44 92 99 70 5 5 5 5
100 100 100 100 100 100 100 100 100 100 100 100 100 100 100 100 100 100 100 100 100 100 100 100 100 100 100 100 100 94 99 54 43 83 95 100 65 98 5 6 5 4 4
100 100 100 100 100 100 100 100 100 100 100 100 100 100 100 100 100 100 100 100 100 100 100 100 100 100 100 100 100 100 100 71 76 100 100 100 82 58 33 5 5 5 1
100 100 100 100 100 100 100 100 100 100 100 100 100 90 93 100 96 100 96 100 100 100 99 100 100 83 92 100 76 95 35 94 100 100 96 98 100 14 27 6 6 5 2
100 100 100 100 100 100 100 100 100 100 100 100 100 100 100 100 100 100 100 100 100 100 99 95 100 81 91 67 93 100 100 100 100 94 68 7 48 100 100 100 49 91 94
70 71 77 79 100 100 100 100 100 100 100 100 100 100 100 100 100 100 100 100 100 100 100 100 100 100 93 100 100 100 100 100 100 99 100 100 100 100 100 96 17 88 100
18 27 98 64 96 100 93 97 76 98 99 100 100 100 100 100 100 100 100 100 100 100 88 100 100 100 100 100 100 97 100 99 29 89 100 100 97 93 76 98 100 100 91
5 0 1 54 47 16 90 57 11 42 100 100 96 100 100 100 95 100 100 99 100 100 100 100 100 100 88 100 100 97 96 86 49 100 68 42 96 85 92 67 35 18 5
5 5 38 41 45 97 100 100 100 100 100 100 100 100 100 100 100 100 100 100 100 100 100 100 100 100 100 99 66 100 100 100 100 100 100 100 76 85 63 13 5 5 5
22 54 100 100 100 97 90 82 99 100 100 100 100 100 100 100 100 100 100 100 100 100 100 100 100 96 100 100 99 87 99 100 100 100 100 100 100 100 100 100 22 2 4

GFSSE_prec_cloud_084.txt.gz
Cloud_Cover
63 77 77 100 100 100 100 100 100 100 100 100 19 91 92 5 96 90 100 100 100 100 93 44 73 5 5 5 5 3 0 0 0 0 0 0 0 0 0 0 0 0 0
64 6 38 100 100 86 69 90 100 100 7 5 5 99 10 3 0 4 9 100 95 100 100 66 97 70 50 5 5 3 1 0 5 2 0 0 0 0 0 0 0 1 0
5 47 99 27 100 100 74 74 100 100 80 5 5 6 1 5 81 67 31 99 99 92 100 100 45 97 73 1 2 0 5 5 19 8 0 0 0 0 0 0 5 68 72
24 87 100 100 100 100 100 100 100 100 100 93 100 100 100 58 95 100 100 100 100 99 100 83 100 100 50 35 12 5 43 31 5 5 0 0 0 0 0 2 5 32 100
95 100 46 100 100 100 100 100 86 100 100 100 100 100 100 83 100 71 93 100 53 88 100 64 11 67 29 100 98 17 39 30 5 5 0 5 2 0 3 5 37 57 17
47 100 100 100 100 100 100 100 100 100 100 100 99 100 90 35 100 100 100 100 56 97 63 5 5 5 5 88 97 19 5 5 0 4 99 58 5 5 5 34 7 5 5
100 100 79 86 100 100 100 100 100 100 100 100 100 34 22 90 100 99 100 64 31 19 9 8 18 33 5 85 100 45 5 46 5 5 61 12 55 41 5 18 100 98 96
100 100 96 100 100 100 100 100 100 100 100 100 54 28 100 100 100 100 100 100 100 100 100 100 79 31 5 90 100 99 5 60 8 74 98 100 95 100 62 5 6 20 3
100 100 100 100 100 100 100 100 100 100 100 99 83 71 19 100 82 100 100 100 100 100 100 100 56 93 47 100 100 99 5 5 80 79 94 72 26 11 6 1 0 0 0
100 100 100 100 100 100 100 100 100 100 100 100 100 88 43 100 69 99 78 23 76 100 100 100 100 100 98 100 100 26 84 100 98 14 7 96 98 6 0 0 0 0 0
100 100 100 100 100 100 100 100 100 100 100 100 100 74 46 100 99 95 100 100 100 94 100 100 100 100 37 100 100 72 86 97 78 100 100 92 31 61 0 1 0 0 0
100 100 100 100 100 100 100 100 100 100 100 100 100 50 100 100 100 98 98 100 100 100 100 100 100 66 56 78 98 73 91 100 100 100 96 91 32 76 55 5 3 5 6
100 100 100 100 100 100 100 100 100 100 100 100 100 94 100 100 100 100 100 100 100 100 99 100 78 6 54 73 100 100 100 100 95 74 98 71 17 100 100 49 54 12 0
100 100 100 100 100 100 100 100 100 100 100 99 98 100 100 100 100 100 100 98 84 100 95 93 73 100 100 100 100 100 100 100 93 58 97 97 5 98 100 100 8 4 5
100 100 100 100 100 100 100 100 100 100 100 100 100 100 99 100 100 100 100 99 98 100 100 75 73 99 100 100 100 100 100 88 88 88 98 49 59 99 79 8 17 25 12
100 100 100 100 100 100 100 100 100 100 100 100 100 98 100 100 73 92 100 78 89 96 86 94 100 100 95 80 98 100 100 88 91 100 100 100 71 97 85 26 80 94 100
100 100 100 100 100 100 100 100 100 100 100 100 100 100 98 100 100 100 98 99 97 99 100 100 100 100 100 100 100 100 100 100 100 100 100 100 100 12 6 72 100 92 24
100 100 100 100 100 100 100 100 100 100 100 100 100 100 100 100 97 100 100 100 100 100 100 100 100 100 100 100 100 96 100 83 72 100 100 47 96 89 99 100 57 11 5
100 100 100 100 100 100 100 100 100 100 100 100 100 100 100 100 95 88 64 100 99 87 99 98 78 86 99 94 63 93 72 96 100 100 100 100 45 100 93 7 6 8 50
100 100 100 100 100 100 100 100 100 100 100 100 100 100 99 95 99 80 9 84 48 52 76 96 100 100 29 22 74 72 100 94 94 86 81 100 64 18 39 56 57 100 98
100 100 100 100 100 100 100 100 100 100 100 100 100 100 100 97 95 52 50 67 43 81 99 100 100 100 100 98 95 98 100 88 100 100 99 100 100 100 96 67 100 100 100
100 100 100 100 100 100 100 100 100 100 100 100 100 100 100 100 100 100 100 99 100 96 100 100 100 100 61 96 100 99 100 100 100 100 97 98 24 26 15 75 100 100 100
100 100 100 100 100 100 100 100 100 100 100 100 100 100 100 100 100 100 100 100 100 100 96 100 95 100 100 100 100 100 100 100 100 100 99 100 100 100 100 100 100 99 100
54 100 100 100 100 100 100 100 100 100 100 100 100 100 100 100 100 100 100 100 100 100 100 100 100 100 100 100 100 100 100 100 100 100 87 97 100 42 66 100 97 100 100
36 100 100 100 100 100 100 100 100 100 100 100 100 100 100 100 100 100 100 100 100 94 100 77 54 100 99 100 100 100 100 99 63 100 100 70 58 53 83 90 100 23 12
89 58 16 93 100 100 100 100 100 100 100 100 100 100 100 100 100 100 100 100 100 100 100 100 100 100 100 100 100 100 100 100 100 100 100 100 100 100 100 100 72 8 5

GFSSE_prec_cloud_090.txt.gz
Cloud_Cover
3 31 48 49 5 100 46 100 100 100 100 100 100 100 93 97 100 97 100 100 100 100 100 100 100 100 100 100 100 100 49 88 5 21 14 4 0 0 40 15 46 90 17
24 48 95 37 2 100 72 43 100 100 100 100 100 100 100 46 11 72 65 100 100 90 100 100 100 100 100 100 100 100 100 82 26 47 7 5 12 92 91 100 17 42 50
66 97 27 5 1 27 99 75 5 100 100 100 100 100 100 93 100 30 3 69 100 100 100 100 99 100 100 100 100 100 100 100 13 11 3 5 1 87 100 100 13 9 6
94 47 88 43 16 5 50 89 8 94 100 100 88 100 88 100 100 100 53 60 62 94 100 100 100 100 100 100 100 100 100 99 22 98 14 2 0 1 16 100 12 68 100
98 78 55 19 6 0 5 35 96 96 96 100 100 100 100 100 100 100 95 58 97 48 79 38 94 95 100 75 100 100 96 100 10 23 5 1 0 0 15 60 33 100 100
100 78 45 40 16 3 0 5 79 100 100 100 100 100 100 100 100 100 100 100 100 100 73 99 93 84 100 100 98 100 99 100 96 99 5 0 0 0 0 0 0 5 5
96 100 68 100 98 11 8 80 100 100 100 100 100 100 100 100 100 100 100 100 100 100 93 43 32 54 82 75 98 50 100 98 42 5 5 5 5 4 5 5 5 5 68
84 100 100 100 100 40 54 100 100 100 100 100 100 100 100 100 100 100 83 89 92 92 90 88 49 18 5 8 49 72 12 8 5 5 68 21 10 5 5 5 5 5 15
85 82 100 100 100 100 100 100 100 100 100 100 100 100 100 98 100 100 99 100 78 100 100 100 95 97 5 5 91 31 100 72 9 99 26 16 9 5 33 4 78 57 13
100 80 37 100 91 65 100 100 100 100 100 100 100 100 100 100 83 100 85 60 24 64 61 64 47 58 19 5 67 100 16 12 60 99 10 42 16 10 5 5 5 16 99
100 100 100 96 100 98 100 100 100 100 100 100 96 100 95 100 100 100 70 48 27 83 77 100 100 100 95 42 32 95 21 10 6 92 58 15 5 6 97 100 82 40 5
100 100 100 100 100 100 100 100 100 100 100 93 100 100 100 100 96 95 75 13 64 94 100 100 100 100 100 82 73 87 92 9 5 72 51 19 80 96 17 5 5 3 5
100 100 100 100 100 100 100 100 100 100 100 100 100 100 100 96 53 23 31 18 77 100 99 100 100 99 93 100 97 75 66 92 69 19 75 96 100 86 24 42 27 5 22
100 100 100 100 100 100 100 100 100 100 100 100 100 100 100 80 98 90 96 69 96 96 97 98 100 100 86 100 91 51 35 76 62 56 100 96 69 100 100 99 100 100 100
100 100 100 100 100 100 100 100 100 100 100 100 100 100 100 100 97 100 96 80 95 44 58 98 100 100 95 99 100 100 100 100 99 91 100 100 100 100 100 100 100 100 100
100 100 100 100 100 100 100 100 100 100 100 100 100 100 100 100 100 100 100 100 100 70 99 100 98 100 96 94 100 100 100 100 100 100 100 100 100 100 100 100 100 100 65
100 100 100 100 100 100 100 100 100 100 100 100 100 100 100 100 100 100 100 100 100 100 56 99 83 80 100 88 91 100 100 100 100 100 100 100 100 100 100 62 48 79 98
100 100 100 100 100 100 100 100 100 100 100 100 100 100 100 100 100 94 100 100 100 96 99 100 84 100 98 87 90 100 90 98 100 100 100 100 100 100 100 100 100 100 41
100 100 100 100 100 100 100 100 100 100 100 100 100 100 100 100 100 98 95 100 100 100 100 99 100 100 100 100 100 100 100 100 100 100 100 100 100 100 100 100 100 100 100
100 100 100 100 100 100 100 100 100 100 100 100 100 100 100 100 100 100 100 100 100 100 96 96 100 100 100 100 100 100 100 100 100 100 100 100 100 100 100 100 100 100 100
100 100 100 100 100 100 100 100 100 100 100 100 100 100 100 100 100 100 100 100 100 100 99 100 100 100 100 100 100 100 100 100 100 100 100 100 100 100 100 100 100 100 100
100 100 100 100 100 100 100 100 100 100 100 100 100 100 100 100 100 100 100 100 100 100 100 100 100 96 100 100 100 100 100 100 100 100 100 100 100 100 100 100 100 100 89
100 100 100 100 100 100 100 100 100 100 100 100 100 100 100 100 100 100 100 100 100 100 100 100 100 100 100 100 98 100 100 100 99 100 100 100 100 100 100 100 90 100 49
100 100 100 100 100 100 100 100 100 100 100 100 100 100 100 100 100 100 100 100 100 100 100 100 100 100 100 100 100 100 100 100 100 100 100 49 100 100 96 90 80 92 74
100 100 100 100 100 100 100 100 100 100 100 100 100 100 100 100 100 100 100 100 100 100 100 100 100 100 100 100 100 100 98 100 100 60 100 94 46 79 76 98 100 100 100
100 100 100 100 100 100 100 100 100 100 100 100 100 100 100 100 100 100 100 100 100 100 100 100 100 100 100 100 94 100 100 75 100 94 100 100 100 98 96 100 100 100 100

GFSSE_prec_cloud_093.txt.gz
Cloud_Cover
1 0 0 0 6 91 5 95 100 87 100 100 97 95 100 100 100 100 93 99 98 92 97 100 98 100 92 98 100 100 100 100 100 30 38 5 29 24 1 4 0 3 19
21 4 3 1 3 32 33 100 100 100 56 100 99 100 100 100 100 100 98 76 100 100 100 99 100 66 83 8 100 100 100 100 100 100 100 100 100 67 17 2 9 27 74
5 18 0 3 4 100 59 31 14 100 93 45 100 100 100 100 100 100 100 99 86 99 100 100 100 100 100 100 100 100 100 100 100 100 98 31 100 84 5 54 96 26 5
20 9 1 0 0 78 99 100 100 100 44 100 100 100 100 98 100 100 100 100 100 100 100 94 100 100 100 100 98 100 100 100 100 100 100 26 65 100 43 35 26 47 10
74 44 10 8 0 18 75 44 100 100 100 54 100 100 100 93 100 100 100 98 98 100 100 96 95 100 100 90 94 100 99 100 100 100 99 3 50 100 100 100 100 99 34
90 92 22 0 0 3 54 63 100 100 100 88 94 100 100 100 100 100 100 100 100 100 100 88 33 63 5 74 100 100 100 100 85 5 94 7 0 2 3 0 0 0 5
27 100 100 98 88 61 5 20 36 100 100 96 99 100 100 100 100 100 100 100 100 100 94 70 99 94 79 78 99 5 5 6 71 92 56 21 5 5 5 1 2 4 5
32 97 100 100 100 100 100 88 99 32 90 56 99 100 100 100 100 100 100 100 77 99 100 100 98 8 66 65 12 5 8 4 64 85 62 40 94 33 5 5 1 2 2
26 41 100 100 100 100 100 100 71 98 100 100 95 100 100 100 100 100 100 100 100 100 96 100 94 96 72 24 12 21 86 11 22 13 42 100 100 100 48 5 1 3 1
100 91 100 100 100 100 100 100 100 100 100 100 100 100 100 100 100 100 100 100 100 100 100 100 78 49 5 5 5 39 45 65 94 97 74 42 46 18 5 7 5 5 100
87 100 100 100 100 100 100 99 97 100 100 100 100 100 100 100 100 100 100 100 100 100 74 20 5 48 5 5 5 19 6 5 43 74 87 97 70 7 27 78 78 34 95
30 98 100 100 95 90 100 78 100 100 100 100 100 100 100 98 100 100 100 100 26 95 29 84 5 44 5 5 5 93 76 85 36 42 34 53 95 12 37 79 37 5 17
77 100 100 100 100 93 100 100 100 100 100 100 100 70 99 74 83 100 7 11 28 47 94 100 65 94 99 97 100 100 73 99 99 99 64 100 91 100 100 100 100 84 98
99 100 100 100 100 100 100 100 100 100 100 100 100 67 100 100 100 100 34 99 62 100 76 100 100 98 100 100 100 99 67 98 95 83 90 95 100 100 100 100 99 100 100
92 100 100 100 100 100 100 100 100 100 100 100 100 99 100 100 100 100 98 98 84 96 84 100 100 94 98 76 53 94 41 96 80 34 98 100 100 100 100 100 100 100 100
100 100 100 100 100 100 100 100 100 100 100 100 100 100 100 99 100 100 99 100 100 96 99 100 98 92 82 60 77 28 28 73 100 100 100 100 100 100 100 100 100 100 100
100 100 100 100 100 100 100 100 100 100 100 100 100 100 100 63 98 100 100 100 100 99 90 100 100 98 88 60 99 87 87 73 87 100 100 86 100 100 100 100 100 100 100
100 100 100 100 100 100 100 100 100 100 100 100 100 100 100 100 100 100 100 100 100 100 97 94 100 98 86 81 99 98 90 99 100 100 100 100 100 100 100 100 100 100 100
100 100 100 100 100 100 100 100 100 100 100 100 100 100 100 100 100 100 100 100 100 100 98 100 100 100 99 49 78 98 96 96 100 100 100 100 100 100 100 100 100 100 98
100 100 100 100 100 100 100 100 100 100 100 100 100 100 100 100 100 100 100 100 100 95 100 89 99 100 78 68 100 90 99 100 100 100 100 100 100 100 100 100 100 100 100
100 100 100 100 100 100 100 100 100 100 100 100 100 100 100 100 100 100 100 100 100 100 100 95 94 90 91 100 100 100 100 100 100 100 100 100 100 100 100 100 100 100 100
100 100 100 100 100 100 100 100 100 100 100 100 100 100 100 100 100 100 100 100 99 99 100 100 100 100 100 100 100 100 100 100 100 100 100 100 100 100 100 100 60 10 38
100 100 100 100 100 100 100 100 100 100 100 100 100 100 100 100 100 100 100 100 100 100 100 100 100 100 100 100 100 100 100 100 100 100 100 100 100 97 11 44 41 71 58
100 100 100 100 100 100 100 100 100 100 100 100 100 100 100 100 100 100 100 100 100 100 100 100 100 100 100 100 100 100 100 100 100 100 100 100 93 64 79 77 93 98 61
100 100 100 100 100 100 100 100 100 100 100 100 100 100 100 100 100 100 100 100 100 100 100 100 100 100 100 100 100 100 100 100 100 84 13 69 40 64 100 98 100 76 91
100 100 100 100 100 100 100 100 100 100 100 100 100 100 100 100 100 100 100 100 100 100 100 100 100 100 100 100 100 100 100 100 63 100 100 100 100 100 87 78 100 100 100

GFSSE_prec_cloud_096.txt.gz
Cloud_Cover
1 16 0 0 2 1 3 5 21 59 58 84 53 81 100 71 5 100 100 94 64 91 99 97 98 100 100 100 100 100 100 100 100 100 100 93 75 48 58 82 64 74 54
0 10 10 0 0 0 1 37 100 100 97 59 86 99 100 100 98 100 99 100 64 66 100 100 100 100 100 100 100 100 93 95 22 100 100 85 6 5 19 32 5 4 17
0 0 1 0 12 22 4 1 93 100 100 100 100 100 100 100 100 100 100 100 35 75 5 80 100 100 100 100 80 90 16 52 100 100 79 100 88 99 100 100 13 12 5
1 5 2 1 2 18 15 50 4 34 100 88 99 100 100 100 100 100 100 100 100 94 90 100 92 100 100 100 100 100 100 95 92 95 89 55 86 100 93 39 5 4 3
2 15 18 61 62 68 4 42 60 4 95 100 75 64 100 100 100 100 100 100 85 100 98 87 92 100 100 100 100 100 100 12 6 18 93 96 100 100 100 100 84 53 1
7 89 100 100 100 100 93 32 60 51 86 100 44 83 100 100 100 100 100 100 100 100 100 58 100 100 100 100 100 99 17 12 67 100 100 40 100 61 42 5 5 3 2
28 100 100 100 100 100 100 94 100 91 36 68 8 50 100 100 100 100 71 100 100 100 100 100 100 100 100 87 23 92 6 13 70 34 64 98 5 5 23 94 6 26 5
82 100 100 100 100 100 100 100 94 55 51 10 81 97 100 100 100 100 100 100 100 100 100 100 60 80 100 75 5 5 9 5 19 5 5 40 82 96 98 97 88 10 5
90 100 100 100 100 100 100 100 100 100 94 65 43 82 100 100 100 100 100 100 100 42 23 97 100 66 100 67 67 56 90 26 19 35 35 24 28 25 78 51 34 6 5
100 100 100 100 100 100 100 100 100 100 100 24 6 100 100 100 100 100 100 99 100 87 100 100 100 100 100 98 99 100 100 31 5 12 9 5 4 5 5 5 5 5 12
100 100 100 100 100 100 100 100 100 100 100 97 94 99 100 100 100 100 100 96 100 100 100 100 100 100 100 100 100 100 84 67 88 74 98 17 72 32 31 5 41 5 7
100 100 100 100 100 100 100 100 97 100 100 86 100 100 100 100 100 100 100 100 100 100 100 100 100 72 97 94 99 26 78 97 97 64 95 17 42 21 7 12 99 93 100
37 100 100 100 100 100 63 100 97 93 100 99 99 100 100 100 100 100 100 100 100 100 100 100 85 7 10 96 98 78 100 100 97 100 99 26 63 74 11 78 98 98 100
100 100 100 100 100 100 100 100 100 100 100 100 100 100 100 100 100 100 100 100 100 100 98 61 31 48 93 100 100 100 100 82 100 56 57 50 56 69 5 9 100 100 100
91 99 100 100 100 100 100 100 100 100 100 100 100 100 100 100 100 100 100 97 100 34 92 36 100 100 100 100 100 100 100 58 61 70 70 92 100 32 6 83 77 81 80
93 100 100 100 100 100 100 100 96 100 100 100 100 100 100 100 100 100 100 100 100 86 100 53 44 100 100 100 100 100 59 75 78 98 20 5 59 21 8 91 83 92 100
100 100 100 100 100 100 100 100 100 100 100 100 100 100 100 100 100 100 100 99 98 87 81 100 100 96 100 100 92 89 90 39 73 5 12 93 30 94 100 100 100 100 100
100 100 100 100 100 100 100 100 100 100 100 100 100 100 100 100 100 100 100 100 98 90 100 72 100 91 81 79 99 74 87 58 66 93 68 98 100 100 100 100 100 100 100
100 100 100 100 100 100 100 100 100 100 100 100 100 100 100 100 100 100 100 96 86 100 100 100 100 86 78 92 75 99 18 81 99 84 100 100 100 100 100 100 100 100 100
100 100 100 100 100 100 100 100 100 100 100 100 100 100 100 100 100 100 96 100 100 100 100 100 90 78 92 81 87 75 67 91 100 100 95 96 100 100 100 100 100 100 100
100 100 100 100 100 100 100 100 100 100 100 100 100 100 100 100 100 100 100 100 100 100 100 100 97 84 71 92 97 96 88 100 100 100 100 100 100 100 100 100 100 100 100
100 100 100 100 100 100 100 100 100 100 100 100 100 100 100 100 100 100 100 100 100 75 100 100 100 100 100 99 100 97 100 100 100 100 100 100 100 100 100 100 100 100 100
84 100 100 100 100 100 100 100 100 100 100 100 100 100 100 100 100 100 100 100 100 100 98 100 100 93 93 100 100 100 100 100 100 100 100 100 100 100 100 100 100 86 96
73 100 100 100 100 100 100 100 100 100 100 100 100 100 100 100 100 100 100 100 100 100 100 100 100 99 100 100 100 100 100 100 100 100 100 100 100 100 100 76 41 81 100
99 96 93 100 100 100 100 100 100 100 100 100 100 100 100 100 100 100 100 100 100 100 100 100 100 100 100 100 100 100 100 100 100 100 94 100 95 100 71 65 88 100 98
99 100 100 100 100 100 100 100 100 100 100 100 100 100 100 100 100 100 100 100 100 100 100 100 100 100 100 100 100 100 100 100 100 100 98 100 100 100 96 98 100 100 98

GFSSE_prec_cloud_099.txt.gz
Cloud_Cover
0 0 0 0 0 0 0 11 39 2 5 64 9 5 5 5 5 5 11 7 77 100 100 80 70 74 91 97 86 92 100 89 84 47 74 100 81 100 94 75 63 86 18
0 0 14 0 0 17 19 26 4 5 5 20 9 13 5 55 68 78 88 5 87 100 100 100 99 100 38 86 62 100 100 100 100 100 100 100 100 55 74 46 11 39 51
0 0 0 0 0 6 1 1 11 5 56 100 100 81 100 74 81 55 100 67 100 100 100 100 100 100 87 100 100 100 100 91 100 100 100 100 99 100 100 100 98 99 81
0 0 7 3 0 2 31 9 9 7 93 100 100 100 100 100 99 81 92 100 100 100 100 93 99 100 100 100 100 100 100 100 100 100 49 67 68 24 59 83 49 89 99
0 0 0 0 44 3 70 63 5 5 89 100 100 100 100 100 100 100 96 100 100 92 85 33 98 100 100 100 100 100 100 100 94 74 11 21 96 91 93 79 80 55 93
5 3 61 100 100 100 92 98 75 2 13 100 100 99 20 100 100 100 100 100 100 100 100 100 100 100 100 100 99 100 100 100 74 55 97 14 16 95 23 34 85 24 6
4 13 100 100 100 86 100 100 100 28 98 95 97 100 13 100 100 100 100 100 100 100 100 100 100 100 100 100 100 100 100 100 82 22 76 11 89 81 87 54 90 94 88
5 100 100 98 80 90 100 100 100 100 100 78 38 100 98 85 100 100 100 100 100 100 100 100 100 100 100 90 99 96 12 21 5 4 8 72 5 6 5 5 15 5 6
45 100 100 43 24 26 100 100 100 100 100 98 85 100 100 87 100 100 100 100 100 100 100 100 100 100 95 37 100 25 32 47 54 47 58 45 37 33 5 11 49 5 16
100 98 100 57 22 27 100 100 100 100 100 100 100 100 96 100 91 100 100 98 98 100 100 100 100 100 100 100 100 79 96 53 59 40 32 74 88 60 95 83 24 7 50
100 85 100 87 32 96 100 100 100 100 100 100 100 99 96 51 100 100 84 100 100 100 100 92 78 100 100 83 100 100 65 97 55 51 12 44 75 59 20 45 80 42 9
100 100 100 100 100 100 100 100 100 100 100 100 100 100 83 42 100 100 100 100 100 100 100 100 100 100 100 100 100 100 100 100 96 100 94 100 67 61 13 9 80 10 33
100 100 100 100 100 100 100 100 100 100 100 100 100 100 44 53 100 100 100 100 100 100 100 100 100 100 100 100 100 100 99 94 17 100 100 100 100 64 64 65 79 5 5
80 100 100 100 100 100 100 100 100 100 100 100 100 100 100 100 100 100 100 100 100 100 100 100 100 100 100 100 98 39 56 99 89 100 93 100 94 20 12 18 68 81 88
81 100 100 100 100 100 100 100 100 100 100 100 100 100 100 100 100 100 100 100 100 100 100 100 100 100 100 87 99 100 100 35 100 100 100 85 34 67 92 20 57 19 100
32 100 100 100 100 100 80 100 42 97 100 100 100 100 100 100 100 100 100 100 100 100 100 100 100 100 96 100 93 100 98 100 100 100 63 13 6 15 88 61 20 79 99
81 100 100 100 100 97 94 91 98 100 100 100 100 100 100 100 100 100 100 100 100 100 100 100 76 86 99 100 74 100 100 46 100 96 100 99 95 5 5 76 98 100 100
100 100 100 100 100 100 100 100 100 100 100 100 100 100 100 100 100 100 100 100 100 100 100 100 91 100 100 100 88 100 100 100 100 100 100 57 34 30 66 100 100 100 100
100 100 100 100 100 100 100 100 100 100 100 100 100 100 100 100 100 100 100 97 100 100 100 99 100 99 97 100 98 97 100 100 100 70 62 19 31 95 100 100 100 100 100
100 98 100 100 100 100 100 100 100 100 100 100 100 100 100 100 100 100 100 100 100 100 100 100 100 100 100 98 89 94 75 36 5 86 29 27 99 100 100 100 100 100 100
100 90 100 100 100 100 100 91 100 100 100 100 100 100 100 100 100 100 100 100 100 100 100 100 100 100 100 98 100 96 50 100 89 77 45 99 100 100 100 100 100 100 100
100 100 84 100 100 100 100 100 100 100 100 100 100 100 100 100 100 100 100 100 100 100 100 100 100 100 75 100 87 100 78 90 94 100 100 100 100 100 100 100 100 100 100
100 100 100 100 100 100 100 100 100 100 100 100 100 100 100 100 100 100 100 100 100 100 100 100 100 98 100 96 100 100 94 100 100 100 100 100 100 100 100 100 100 100 100
100 100 100 100 100 100 100 100 100 100 100 100 100 100 100 100 100 100 100 100 100 100 100 100 100 100 100 100 100 100 99 100 100 100 100 100 100 100 100 100 100 100 100
36 100 98 100 100 100 100 100 100 100 100 100 100 100 100 100 100 100 100 100 100 100 100 100 100 100 100 100 100 100 100 100 100 100 100 100 100 100 100 100 99 99 100
31 100 100 100 100 100 100 100 100 100 100 100 100 100 100 100 100 100 100 100 100 100 100 100 100 100 100 100 100 100 100 100 100 100 100 100 100 100 100 100 100 100 100

GFSSE_prec_cloud_105.txt.gz
Cloud_Cover
0 28 0 0 0 0 0 0 0 0 17 52 5 4 4 4 0 0 0 0 3 5 1 12 46 17 16 1 5 0 0 0 0 1 5 4 12 18 34 20 83 74 93
0 19 0 0 0 0 0 0 3 33 2 2 43 40 5 5 5 4 0 0 5 4 9 50 100 98 19 5 5 5 5 4 5 5 62 5 52 95 6 94 23 67 96
0 0 0 0 0 0 0 29 12 3 35 27 6 5 5 90 32 14 5 5 5 4 6 88 86 74 100 100 42 5 66 90 90 21 38 93 94 81 100 100 100 100 100
0 0 3 0 0 0 0 64 3 74 18 4 28 17 5 17 26 92 37 72 87 5 100 94 98 100 100 98 85 80 99 100 100 100 100 100 100 100 82 100 100 100 100
0 0 0 0 0 0 0 12 94 100 6 67 5 7 63 99 80 6 6 6 82 95 100 100 99 99 86 65 92 32 79 100 100 100 85 100 100 100 100 100 100 91 73
0 0 0 0 0 0 1 0 5 93 87 100 100 30 100 60 96 98 99 100 100 100 100 69 96 88 100 100 100 100 100 100 77 100 100 100 100 100 100 6 46 73 100
0 0 0 0 0 0 0 0 100 100 100 100 100 100 91 100 100 100 100 100 100 94 71 5 45 92 100 100 100 100 100 100 100 100 50 100 100 100 43 100 100 100 100
0 0 0 0 0 15 60 100 100 100 100 100 100 100 100 100 100 100 100 97 94 100 100 87 15 100 100 100 100 100 100 100 100 100 100 100 100 94 100 100 100 100 41
0 0 0 0 0 100 100 100 100 100 100 100 100 100 100 100 100 100 100 98 99 100 100 100 100 100 100 100 100 100 100 100 92 97 100 100 94 60 100 100 55 100 36
0 0 0 0 99 100 100 100 100 100 100 100 100 100 100 100 100 100 100 100 98 99 100 100 100 100 100 100 100 100 100 100 98 100 100 16 16 100 100 100 64 94 90
0 0 0 0 100 100 100 100 92 100 100 100 100 100 100 100 42 100 97 54 99 100 100 100 100 100 100 100 89 98 100 93 100 100 100 61 100 100 100 59 92 87 45
0 0 0 2 100 100 100 100 76 100 100 100 100 100 100 100 100 100 100 96 100 100 100 100 100 100 100 100 100 95 99 100 100 98 26 100 100 87 87 15 72 96 76
0 0 0 3 10 100 97 100 100 100 100 100 100 100 100 100 100 100 100 81 99 100 100 100 94 98 100 100 100 100 100 100 100 100 37 57 12 63 73 98 98 100 26
0 0 0 0 100 83 100 100 100 100 100 100 100 100 100 100 100 100 100 57 29 96 100 36 42 100 100 100 100 100 100 100 100 100 100 49 33 95 98 86 100 95 8
0 0 0 0 72 100 100 100 100 100 100 100 100 100 100 100 100 100 71 92 11 72 100 100 99 100 100 100 100 100 100 100 100 100 100 39 53 100 99 100 100 100 100
0 0 0 0 60 100 100 100 100 100 100 100 100 100 100 100 100 100 98 100 66 68 76 84 100 100 100 100 100 100 100 100 100 100 100 100 100 100 100 100 74 95 100
0 0 0 0 87 100 100 100 100 100 100 100 100 100 100 100 100 98 86 85 98 74 100 100 100 100 100 100 100 100 100 100 100 100 100 100 100 100 100 100 100 100 100
0 0 0 0 65 100 100 100 100 100 100 100 100 100 100 100 100 89 41 72 100 83 100 48 100 100 95 100 100 100 100 100 100 100 100 100 100 100 100 100 100 97 100
0 0 0 0 100 100 100 100 100 100 100 100 100 100 100 100 100 100 82 76 100 100 100 100 100 100 100 100 100 100 100 100 100 89 100 100 100 100 100 100 100 100 91
0 0 0 4 62 82 100 100 100 100 100 100 100 100 100 100 98 96 80 88 95 99 100 100 100 100 100 99 100 100 100 100 100 98 85 98 100 100 100 100 54 53 9
0 0 0 40 94 71 100 100 100 100 100 100 100 100 100 100 100 100 100 100 78 100 100 100 100 100 100 100 100 100 100 100 100 100 100 100 8 51 5 91 26 5 39
0 0 15 100 100 92 95 100 100 100 100 100 100 100 100 100 100 100 100 100 100 100 100 100 100 100 100 100 94 97 90 100 97 100 100 100 100 88 96 27 64 89 74
0 0 83 100 100 56 100 97 100 100 100 100 100 100 100 100 100 100 100 100 100 100 100 100 100 100 100 100 100 100 98 100 42 100 100 98 86 100 89 88 55 100 100
0 0 80 100 99 80 100 100 100 100 100 100 100 100 100 100 100 100 100 100 100 100 100 100 100 100 100 97 100 100 100 100 88 78 74 98 54 98 52 88 100 100 97
0 0 27 100 100 99 100 100 100 100 100 100 100 100 100 100 100 100 100 100 100 100 100 100 100 100 100 100 100 100 100 100 100 96 92 45 18 98 99 100 100 100 100
0 0 28 100 100 100 100 100 99 100 100 100 100 100 100 100 100 100 100 100 100 100 100 100 100 100 100 100 100 100 100 98 99 88 27 5 96 100 100 100 100 100 100

GFSSE_prec_cloud_108.txt.gz
Cloud_Cover
55 39 0 0 0 0 3 0 0 18 12 0 0 3 1 0 0 0 0 0 0 5 14 20 2 14 61 100 5 0 0 1 0 20 3 84 100 96 56 81 0 5 25
4 24 0 0 0 0 0 0 0 15 23 0 0 2 0 2 0 0 0 0 0 3 8 28 42 96 72 10 5 0 0 5 0 5 5 23 100 95 71 91 49 78 73
6 25 0 0 0 0 0 0 0 0 10 21 5 32 0 0 0 5 4 0 0 3 17 100 99 22 15 6 6 17 26 87 53 5 5 6 26 61 100 100 61 99 83
3 25 0 0 0 0 0 0 4 29 29 14 37 0 5 5 5 0 3 5 5 5 100 100 95 9 85 100 90 100 100 100 100 5 5 96 100 100 91 100 100 91 100
0 4 0 0 0 0 0 0 61 27 19 61 42 6 32 50 71 4 4 3 21 35 100 100 28 5 5 100 100 98 95 100 43 32 86 98 100 99 100 100 100 100 100
0 0 0 0 0 0 0 0 0 16 80 100 100 100 87 100 27 100 5 6 35 100 58 98 27 5 5 76 94 100 97 68 100 95 100 100 100 100 100 100 94 100 100
0 0 8 3 0 0 0 4 4 32 99 100 100 100 100 100 99 58 82 77 16 73 100 67 5 5 30 88 95 94 100 100 100 100 96 100 100 100 100 73 100 100 100
0 12 4 9 6 1 0 18 11 95 100 100 100 100 100 100 100 100 68 100 100 82 21 5 70 5 5 100 98 98 100 100 100 100 100 100 100 100 65 100 100 100 100
1 3 18 10 0 20 97 28 83 100 100 100 100 100 100 100 100 100 100 100 88 11 5 33 52 75 100 88 100 100 100 100 100 100 100 100 100 100 100 100 100 100 100
1 5 9 0 0 0 23 99 100 100 100 100 100 100 100 100 100 100 97 100 98 98 20 44 51 100 100 100 100 100 100 100 100 100 100 100 100 100 100 100 100 100 100
0 0 7 3 0 0 1 94 100 100 100 100 100 100 100 100 100 100 100 100 100 51 76 100 98 100 100 100 100 100 100 100 100 100 100 100 100 100 100 100 100 100 100
0 0 1 0 0 1 27 100 100 87 100 100 100 100 100 99 100 100 100 100 90 6 33 95 100 100 100 100 100 100 100 100 100 100 100 100 100 100 100 100 100 93 100
0 0 0 0 0 11 38 100 88 65 100 100 100 100 100 100 100 100 99 100 43 43 52 74 86 100 100 100 100 86 100 100 100 100 100 100 100 100 100 98 100 100 100
0 0 0 0 4 14 100 100 90 100 100 100 100 100 100 100 100 100 100 100 97 100 60 63 99 100 100 100 100 98 100 100 100 98 100 100 100 24 56 92 100 100 100
0 0 0 7 2 13 30 100 100 100 100 100 100 100 100 100 100 100 100 100 99 91 88 86 96 100 97 100 88 33 100 100 100 100 100 100 100 72 85 100 100 29 94
0 0 0 5 1 13 58 100 100 100 100 100 100 100 100 100 100 100 100 78 100 72 46 80 80 75 100 100 11 100 90 36 100 100 100 100 100 100 99 100 94 100 100
0 0 0 3 0 2 100 100 100 100 100 100 100 100 100 100 100 100 94 77 100 5 74 81 66 100 99 100 100 77 100 100 100 100 100 100 100 94 100 100 100 100 100
0 0 0 0 1 1 100 100 100 100 100 100 100 100 100 100 100 100 95 100 68 6 14 80 62 88 100 100 99 46 56 100 100 100 100 100 100 99 99 100 100 100 100
3 0 0 0 0 2 100 100 100 100 100 100 100 100 100 100 100 100 100 100 97 100 96 90 95 100 56 100 100 100 96 100 100 100 100 100 100 100 100 100 100 100 100
25 0 0 0 0 0 100 100 100 100 100 100 100 100 100 100 100 100 98 100 77 51 100 59 94 100 100 100 100 100 100 100 100 100 100 100 100 100 100 100 100 96 40
67 1 0 1 32 22 100 100 100 100 100 100 100 100 100 100 100 100 97 100 63 82 100 100 100 100 100 100 100 100 100 100 100 100 100 100 100 100 100 100 100 22 5
78 4 2 6 45 12 16 100 100 100 100 100 100 100 100 100 100 100 92 99 99 43 100 97 100 100 98 100 100 100 100 100 100 100 100 100 99 100 100 100 100 51 6
42 5 0 11 21 12 14 77 100 100 100 100 100 100 100 100 100 100 100 100 100 100 100 99 100 100 100 100 100 100 100 100 100 100 100 100 100 99 88 97 25 8 24
12 0 0 6 47 100 34 15 94 100 100 100 100 100 100 100 100 100 100 100 100 100 100 100 100 100 100 100 100 100 100 98 98 100 100 100 100 97 98 42 94 34 77
12 0 0 18 97 100 96 48 33 100 100 100 100 100 100 100 100 100 100 100 100 100 100 100 100 100 100 100 100 100 100 100 100 100 100 100 100 100 100 98 57 82 89
47 0 0 30 40 99 100 100 100 100 100 100 100 100 100 100 100 100 100 100 100 100 100 100 100 100 100 100 100 100 100 100 100 100 100 100 100 100 99 100 100 100 94

GFSSE_prec_cloud_111.txt.gz
Cloud_Cover
10 5 14 23 1 93 22 22 2 55 83 46 28 3 2 0 0 0 0 0 0 0 0 0 0 1 23 19 10 0 0 1 21 0 57 96 100 99 59 11 9 10 62
2 52 5 9 13 3 0 25 0 29 81 81 61 32 31 18 1 0 0 0 0 1 98 18 3 27 100 79 1 0 5 2 1 5 30 80 100 100 54 4 51 63 86
8 47 30 24 5 0 0 10 0 0 34 100 100 92 23 0 5 0 0 0 0 85 100 69 98 100 100 73 9 5 51 12 18 48 100 88 100 68 20 40 98 33 100
9 30 38 19 3 0 0 4 30 8 0 19 25 33 54 44 31 5 1 0 4 82 47 100 100 100 100 100 100 34 77 99 80 100 100 91 35 99 99 96 75 82 74
0 18 30 14 1 9 3 3 13 18 66 66 49 25 40 29 13 73 59 5 2 68 100 100 100 100 66 44 97 92 12 86 100 100 100 92 85 100 100 100 100 100 100
1 20 1 0 2 17 20 5 9 4 60 90 100 43 22 44 100 100 36 5 5 82 100 100 99 32 68 5 1 1 5 5 100 6 99 57 97 100 100 100 100 100 100
0 20 5 0 2 16 20 5 9 18 16 65 100 92 91 80 100 100 45 7 8 28 92 100 100 89 0 5 0 4 6 5 24 88 92 88 100 100 100 100 100 100 100
0 0 25 8 0 13 25 24 23 1 11 100 100 100 100 100 100 100 45 98 99 99 98 63 74 26 71 48 85 100 78 95 99 98 94 100 100 100 100 100 100 100 100
2 18 42 38 28 0 19 36 24 2 0 100 100 100 100 100 100 100 87 79 82 100 99 97 55 86 100 13 16 7 99 100 100 100 100 100 100 100 100 100 100 100 100
8 20 45 62 64 68 100 77 17 2 89 100 100 100 99 100 100 100 100 100 100 100 76 16 94 100 25 97 50 67 94 100 100 100 96 100 100 100 75 100 100 100 100
33 18 26 32 33 44 65 95 92 71 100 100 100 100 100 100 100 100 100 99 100 81 86 100 93 100 68 99 100 100 100 100 100 100 100 100 100 100 100 100 100 100 100
8 17 28 24 14 9 21 55 52 99 100 100 100 100 100 97 100 100 100 100 83 88 66 100 100 100 92 34 100 100 100 100 100 100 100 100 100 100 100 100 100 100 100
44 5 34 14 7 10 26 30 38 100 100 100 100 100 100 100 99 97 99 100 100 94 20 99 100 100 100 99 100 100 100 100 100 100 77 49 80 100 100 100 100 100 100
88 5 0 3 2 13 31 46 82 98 100 100 100 100 100 100 100 100 100 100 99 98 48 96 100 100 98 100 82 100 100 100 100 100 99 100 100 94 100 100 100 100 100
100 5 5 3 7 21 39 46 100 100 100 100 100 100 100 100 100 100 100 100 64 93 87 92 100 99 85 100 100 100 100 99 84 93 98 100 100 94 100 100 90 91 100
100 5 5 2 2 34 50 51 74 100 100 100 100 100 100 100 100 100 100 100 70 40 31 100 99 99 100 97 100 87 83 18 58 100 100 100 100 100 100 99 59 100 100
6 5 8 3 7 24 56 19 40 100 100 100 100 100 100 100 100 100 100 100 83 74 5 48 23 77 88 95 61 100 86 62 99 100 100 100 100 16 37 18 82 100 51
3 98 10 0 22 11 47 30 81 100 100 100 100 100 100 100 100 100 100 100 73 57 66 35 56 88 99 38 85 100 37 90 62 67 100 100 89 5 37 17 32 45 85
1 100 11 7 36 28 28 57 100 100 100 100 100 100 100 100 100 100 100 96 56 72 58 59 44 100 94 84 100 100 95 27 50 100 100 100 100 100 100 100 100 99 100
0 100 98 10 26 22 89 100 100 100 100 100 100 100 100 100 100 100 100 100 73 100 100 100 20 100 100 89 100 99 99 63 92 91 100 100 100 100 100 100 100 100 100
6 100 100 29 34 61 100 100 100 100 100 100 100 100 100 100 100 100 100 100 94 100 100 100 93 82 90 100 100 100 100 89 100 100 100 100 100 98 100 100 100 100 100
5 100 100 15 60 41 53 100 100 100 100 100 100 100 100 100 100 100 100 100 100 98 97 57 30 96 62 100 100 100 100 98 100 100 100 84 100 100 93 100 100 100 100
4 96 100 38 79 22 14 79 91 100 100 100 100 100 100 100 100 100 100 100 100 100 97 74 76 75 100 100 100 100 100 100 100 100 100 100 100 100 100 100 100 100 92
4 91 100 41 56 22 18 19 62 100 100 100 100 100 100 100 100 100 100 92 100 100 100 92 100 100 100 100 83 100 100 100 100 100 100 100 100 100 100 100 100 100 100
18 90 93 53 43 12 37 36 10 37 100 100 100 100 100 100 100 100 100 100 100 100 100 100 100 100 99 100 100 100 100 100 100 100 100 100 100 100 100 100 100 100 76
77 100 57 56 26 45 100 52 0 0 50 100 100 100 100 100 100 100 100 100 100 100 100 100 98 100 100 100 100 100 100 100 100 100 100 100 100 100 100 100 100 100 84

GFSSE_prec_cloud_114.txt.gz
Cloud_Cover
0 0 0 82 100 60 0 25 42 29 0 0 0 9 2 5 10 2 3 0 0 0 0 5 1 0 0 31 4 5 4 19 0 2 68 100 100 97 23 7 19 60 55
0 1 0 100 100 100 0 9 100 100 21 2 20 4 6 1 0 79 36 0 0 0 8 0 5 0 6 15 3 1 0 0 0 0 0 1 20 100 98 100 93 5 4
2 11 16 100 100 39 0 10 96 100 100 23 27 20 5 1 9 5 1 1 0 0 94 8 4 5 13 36 0 0 3 0 5 5 2 31 99 100 99 5 8 15 85
7 62 76 100 74 14 0 0 23 100 100 100 86 18 22 9 99 49 76 55 5 100 100 2 0 79 91 35 72 98 71 9 12 78 54 95 93 64 13 73 74 11 13
4 30 72 93 13 19 12 0 10 100 100 100 100 66 75 97 100 46 7 5 18 100 100 94 4 98 100 100 100 69 100 5 1 78 18 40 76 79 51 91 53 67 100
7 19 20 73 23 14 16 0 0 12 74 100 100 97 84 99 98 58 91 100 88 31 74 90 100 99 100 98 100 94 61 62 0 0 6 52 18 96 96 53 98 94 99
8 18 21 58 46 22 26 4 0 0 24 26 0 100 100 100 100 100 100 100 100 98 5 8 99 94 96 96 100 5 0 0 49 3 2 4 7 88 30 95 100 100 100
7 36 26 44 56 8 29 30 36 15 0 0 0 100 100 100 100 100 100 100 51 5 5 34 64 99 39 40 3 1 0 3 4 42 3 41 29 98 100 100 100 100 100
3 35 47 48 75 30 4 27 49 47 12 0 0 100 100 100 100 100 100 100 40 5 41 27 43 8 99 2 1 0 99 78 57 36 76 91 66 99 100 100 100 100 100
1 18 90 81 96 86 60 53 54 59 26 0 20 100 100 100 100 100 100 100 100 100 82 14 44 100 28 5 95 99 5 6 85 100 100 100 100 100 99 100 100 100 100
17 28 81 100 100 100 100 100 44 59 19 0 90 100 100 100 100 100 100 100 100 100 100 90 44 99 33 27 100 100 90 100 100 100 100 100 100 100 99 97 100 100 100
13 28 52 98 100 100 100 100 100 100 92 48 100 100 100 97 100 100 47 100 100 100 100 46 1 45 52 72 92 100 92 73 100 100 99 100 100 100 86 100 100 100 100
5 5 51 46 56 88 100 100 98 100 100 99 100 100 100 100 100 100 100 100 100 100 100 59 100 31 54 77 91 96 100 98 100 100 100 100 82 100 100 100 100 100 100
0 0 32 27 29 24 31 83 100 100 100 100 100 100 100 100 100 100 92 95 94 100 99 100 100 98 99 100 92 100 100 100 100 100 100 100 100 100 100 100 100 99 100
0 0 0 36 24 17 23 41 66 89 100 100 100 100 100 100 100 100 100 100 97 100 100 100 98 50 71 73 100 96 100 100 96 100 98 100 100 100 100 100 100 100 100
0 0 0 24 18 11 30 63 99 89 75 100 100 100 100 100 100 100 100 100 100 100 100 100 99 100 83 66 82 97 100 100 84 69 70 100 100 100 100 92 100 100 100
0 0 1 10 22 8 19 35 99 100 100 100 100 100 100 100 100 100 100 100 100 100 97 99 98 100 100 100 65 65 43 46 98 70 100 100 100 100 99 100 99 100 100
0 1 3 3 32 17 42 43 79 100 100 100 100 100 100 100 100 100 100 100 100 100 100 100 40 100 100 69 39 74 10 61 49 46 64 40 58 99 97 100 100 97 100
1 5 15 30 38 29 43 48 62 86 100 100 100 100 100 100 100 100 100 100 100 100 92 100 94 100 85 14 100 54 82 37 40 40 10 97 100 100 100 100 91 100 44
1 28 9 32 25 25 47 93 99 100 100 100 100 100 100 100 100 100 100 100 100 100 98 93 80 100 18 6 15 84 91 78 100 36 5 14 100 100 100 100 100 100 100
29 96 34 53 44 48 84 100 100 100 100 100 100 100 100 100 100 100 100 100 100 100 100 100 100 100 91 5 24 96 99 100 100 46 14 52 100 100 100 100 100 100 100
42 100 41 16 68 52 89 100 100 100 100 100 100 100 100 100 100 100 100 100 100 100 100 100 100 100 99 97 5 54 95 91 100 90 42 36 96 100 100 100 100 100 100
39 100 74 39 63 99 100 100 100 100 100 100 100 100 100 100 100 100 100 100 100 100 100 100 100 100 99 100 96 49 100 100 100 70 67 63 100 100 100 100 100 100 100
30 52 23 93 95 96 84 100 100 100 100 100 100 100 100 100 100 100 100 100 100 100 100 100 100 99 95 65 96 100 100 100 99 100 74 72 100 100 100 100 100 100 100
80 96 30 100 100 100 89 94 100 100 99 100 100 100 100 100 100 100 100 100 100 100 100 100 100 94 100 100 100 100 100 100 100 100 99 84 100 100 100 100 100 100 100
100 81 96 100 100 100 76 36 53 24 82 100 100 100 100 100 100 100 100 100 100 100 100 100 100 100 100 100 100 100 100 97 100 82 97 100 100 100 100 100 100 100 100

GFSSE_prec_cloud_117.txt.gz
Cloud_Cover
0 0 0 87 100 0 0 7 13 0 0 0 2 5 0 0 1 0 23 5 0 28 36 1 5 0 5 26 5 4 5 5 4 1 5 2 77 86 17 0 0 6 1
0 0 2 14 100 4 7 3 98 21 0 5 20 7 2 0 17 13 58 5 20 18 6 5 5 5 2 1 4 5 5 3 0 0 5 6 100 100 10 0 0 8 11
0 0 0 20 100 58 18 4 83 100 0 1 74 13 3 0 38 37 44 5 2 40 0 0 5 84 18 0 0 5 0 0 0 0 0 30 47 58 12 5 45 12 5
0 0 0 6 100 78 14 23 84 100 94 0 12 2 0 0 0 0 21 53 84 7 1 6 21 39 100 67 2 0 0 0 5 0 18 32 34 38 14 5 31 5 5
0 0 0 0 99 68 14 9 82 100 100 3 0 2 2 5 94 39 91 39 5 6 5 0 2 25 94 100 57 0 4 5 57 10 24 33 44 29 69 7 92 5 5
0 0 17 0 85 83 0 15 100 99 100 66 0 0 41 83 100 100 100 100 100 100 60 3 1 27 54 100 63 12 16 84 5 8 17 16 100 63 41 6 91 24 98
0 0 48 41 19 73 1 11 66 100 100 80 2 0 95 100 100 100 100 100 100 72 99 100 8 4 79 43 100 56 94 100 98 19 12 44 99 10 5 5 6 64 89
0 6 32 100 12 31 0 0 25 84 100 55 1 0 100 100 100 100 100 100 100 100 96 9 100 83 31 8 98 82 30 3 1 1 6 22 42 33 6 54 98 100 98
0 0 23 100 100 17 1 1 0 33 78 5 0 0 1 100 100 100 100 100 100 100 34 5 5 91 19 4 50 39 5 0 0 1 8 24 8 69 99 100 100 100 100
0 1 30 100 100 63 84 20 26 4 11 0 0 0 0 78 100 100 100 100 100 100 100 67 53 3 23 2 2 0 0 0 14 5 5 71 100 100 73 100 100 100 98
0 5 57 100 100 100 95 95 75 75 0 3 0 0 47 100 64 100 53 100 99 100 100 100 97 3 0 4 0 2 28 21 5 27 74 100 100 98 100 100 100 100 100
5 5 90 100 100 100 100 100 84 100 66 11 43 0 100 100 100 98 98 100 93 97 100 100 100 22 0 4 4 5 79 59 48 69 98 100 100 100 100 100 100 99 99
18 5 23 100 100 100 100 100 100 100 98 85 64 43 100 100 100 100 83 100 81 94 100 100 100 86 58 61 83 34 22 38 98 100 100 100 100 100 100 100 100 77 100
76 5 5 74 100 100 100 100 100 100 100 100 100 58 100 100 100 96 100 100 90 100 95 100 85 75 74 35 3 7 56 100 98 90 100 100 100 100 100 97 100 100 100
29 13 5 7 65 100 100 100 100 100 100 100 100 97 100 100 100 100 100 100 97 100 99 100 95 97 91 90 86 85 85 97 72 99 100 100 100 97 97 100 100 100 100
5 39 5 0 25 60 88 100 100 100 100 100 100 100 100 100 100 100 100 100 100 100 100 90 100 100 100 100 13 80 82 94 98 99 100 100 100 99 97 100 100 100 100
38 72 11 0 10 34 48 46 94 100 100 97 97 100 100 100 100 100 100 100 100 100 100 100 98 95 100 98 50 62 66 100 79 85 99 100 100 100 100 100 100 93 100
63 49 5 0 6 21 35 26 100 100 97 92 40 100 100 100 100 100 100 100 100 100 100 100 99 100 100 100 51 64 95 99 70 41 57 84 67 88 94 100 57 62 85
69 34 1 0 4 10 36 36 94 100 100 99 96 100 100 100 100 100 100 100 100 100 100 100 100 99 100 100 85 73 97 99 74 90 54 13 78 7 12 81 88 84 76
86 57 0 0 7 20 52 72 100 100 100 100 100 100 100 100 100 100 100 100 100 100 100 100 100 48 100 100 70 88 98 30 26 91 25 5 77 68 70 83 100 84 100
72 62 0 7 54 73 100 100 100 100 100 100 100 100 100 100 100 100 100 100 100 100 100 100 93 98 100 100 80 85 74 13 51 74 100 28 98 91 71 97 100 100 100
84 12 10 31 100 63 81 100 81 100 100 100 100 100 84 100 100 100 100 100 100 100 100 100 99 92 100 83 95 100 100 74 57 90 84 81 77 93 56 64 91 100 100
15 5 32 51 100 96 79 92 62 36 90 100 100 100 94 100 100 100 100 100 100 100 100 100 100 100 100 86 99 100 83 84 100 100 87 75 100 74 83 76 100 100 100
80 4 26 95 100 100 70 45 43 37 91 100 100 100 100 100 100 100 100 100 100 100 100 100 100 100 100 100 98 99 79 98 95 100 99 86 100 100 99 100 100 89 100
57 1 45 100 100 100 57 100 39 21 100 100 93 100 100 100 100 100 100 100 100 100 100 100 100 100 100 100 100 100 100 100 83 96 100 100 100 100 100 100 100 99 100
41 75 92 100 100 100 100 100 70 38 100 97 98 100 100 100 100 100 100 100 100 100 100 100 100 100 100 100 100 100 99 99 100 100 100 100 100 99 100 96 100 100 100

GFSSE_prec_cloud_120.txt.gz
Cloud_Cover
0 0 0 0 0 0 0 0 0 0 0 0 0 13 0 0 0 0 3 5 0 0 0 9 5 5 51 88 94 94 33 5 5 5 5 6 9 4 0 0 1 26 0
0 0 19 0 0 0 0 0 0 0 0 0 0 0 0 0 0 0 3 5 4 0 0 3 5 5 5 54 98 98 9 5 5 1 0 5 26 0 0 0 0 3 0
0 0 1 0 0 0 20 1 0 0 0 0 0 0 1 0 0 9 1 3 50 2 0 1 7 22 99 11 5 5 5 28 5 0 0 63 54 2 0 0 0 0 0
0 0 0 0 0 15 0 0 7 54 23 0 92 0 0 0 0 0 9 9 25 3 5 0 12 40 23 40 5 5 5 5 1 0 14 94 54 0 0 7 4 5 24
0 0 0 0 0 61 0 0 15 100 23 3 100 1 0 0 58 96 99 70 18 90 96 8 24 14 4 97 7 3 0 0 0 2 6 42 64 22 3 5 5 4 21
0 0 40 0 0 22 0 0 1 98 96 2 26 0 0 0 100 100 100 100 100 100 100 100 50 22 2 4 66 4 0 0 2 5 21 45 87 14 16 0 5 2 44
0 0 0 0 0 17 14 0 0 91 100 57 1 0 0 0 24 100 100 100 100 100 100 90 97 19 1 0 98 31 5 9 5 14 29 38 98 15 3 5 2 3 66
0 0 0 2 0 1 10 6 56 85 78 81 0 0 3 0 53 100 100 100 100 100 100 90 38 5 14 5 15 99 80 6 62 73 31 80 97 25 6 5 5 44 95
0 0 0 1 22 49 0 14 18 97 60 32 0 0 0 5 82 100 100 100 100 100 100 98 57 5 66 2 2 92 48 95 10 5 28 22 24 71 12 5 17 90 99
0 0 0 10 96 46 42 11 18 39 3 0 0 0 0 2 22 100 100 100 100 100 100 100 56 7 99 82 4 6 99 5 5 0 0 9 5 100 74 63 46 99 64
0 0 0 0 98 33 100 92 53 30 1 9 8 1 66 0 0 8 100 100 100 100 73 89 84 5 68 82 6 5 4 4 0 0 0 4 34 97 26 5 89 98 100
4 1 0 0 6 61 100 100 80 90 3 6 14 16 0 0 43 31 77 100 100 100 100 96 99 14 71 85 36 70 15 34 0 5 49 5 5 97 94 90 98 100 100
5 5 0 5 4 68 99 91 100 100 23 42 90 48 21 41 51 100 100 100 100 100 79 100 100 96 95 34 2 2 91 9 5 14 13 19 34 100 100 100 100 100 100
5 5 5 11 22 36 100 100 99 33 64 28 44 58 4 17 100 100 100 99 100 63 87 100 100 100 95 5 18 75 46 6 5 66 100 100 100 100 98 100 100 100 96
5 20 5 5 77 82 100 100 100 27 26 44 43 48 20 45 100 100 100 72 100 100 100 100 100 99 71 81 100 95 36 25 58 100 100 100 100 91 100 100 100 100 100
5 5 5 5 5 56 100 100 100 100 47 58 83 68 67 59 96 100 100 98 100 100 100 100 100 98 50 65 100 52 48 54 100 94 27 100 100 98 100 100 100 100 100
5 33 5 5 5 5 60 100 100 100 99 82 100 99 99 65 82 100 100 100 100 100 100 100 100 100 100 99 99 99 100 63 100 75 83 100 100 100 100 100 100 100 100
80 100 5 6 5 5 0 28 98 100 100 100 92 97 89 75 92 98 100 100 100 100 100 100 97 97 100 100 100 98 30 100 87 72 83 97 98 100 100 100 100 100 92
100 20 5 53 39 5 0 4 96 50 100 100 69 90 100 98 100 100 100 100 100 100 100 100 100 100 100 100 100 97 61 94 100 100 100 98 76 93 76 100 100 75 80
42 5 5 76 78 0 0 73 100 94 100 100 54 52 96 100 100 100 100 100 100 100 100 100 100 100 100 100 100 100 95 100 100 100 85 100 99 72 63 93 93 77 34
50 5 51 100 10 0 3 99 100 100 100 100 100 78 45 69 100 100 100 100 100 100 100 100 100 100 100 94 100 100 100 97 90 100 100 96 71 92 52 64 98 100 100
56 5 5 76 5 0 74 100 100 100 100 100 95 89 87 100 95 93 100 100 100 100 100 100 100 100 100 100 100 73 100 99 100 99 100 100 48 79 86 100 76 81 60
82 45 5 5 3 14 16 100 100 100 100 100 100 75 65 50 99 100 100 100 100 100 100 100 100 100 100 100 100 100 100 98 99 100 99 97 59 88 34 98 99 97 99
39 5 51 20 0 99 82 100 100 47 53 30 57 91 100 100 84 98 100 100 100 100 100 100 100 100 97 90 100 100 100 95 82 100 98 83 55 70 66 97 100 100 100
100 18 56 51 40 100 100 100 100 70 32 36 51 92 100 100 72 100 100 100 100 100 100 100 100 100 100 100 100 100 100 97 100 99 99 100 67 55 76 100 100 98 97
100 77 36 78 100 100 100 100 100 98 59 59 99 92 98 100 100 100 100 100 100 100 100 100 100 100 100 100 100 100 100 100 100 100 100 100 95 71 100 100 100 86 62

GFSSE_prec_cloud_123.txt.gz
Cloud_Cover
0 0 0 0 0 0 0 0 0 0 0 0 0 0 0 0 0 0 0 0 0 0 5 12 5 4 89 100 100 100 100 98 61 5 5 5 4 0 0 0 15 21 0
0 0 24 0 0 0 0 0 0 0 0 0 0 0 0 0 0 0 0 0 0 0 10 13 2 9 66 99 100 92 100 100 76 57 5 0 4 2 0 4 8 2 0
0 0 1 0 0 0 0 0 0 0 0 0 0 0 0 0 0 0 0 1 4 0 5 1 4 17 23 5 5 86 99 74 18 5 8 98 32 9 2 0 0 0 0
0 0 0 0 0 0 0 0 0 4 0 0 0 0 0 0 0 22 5 8 92 59 43 17 1 1 10 5 1 1 5 37 5 4 50 72 61 13 5 5 5 0 0
0 0 0 0 0 0 0 0 0 0 14 0 0 0 0 0 0 74 50 100 100 100 100 100 83 33 12 2 5 0 3 5 5 3 86 64 32 17 1 1 2 0 29
0 0 41 0 0 0 0 0 0 0 53 0 70 1 0 0 0 5 100 100 100 100 100 100 100 100 100 100 6 4 0 0 5 99 19 0 61 8 4 0 0 0 0
0 0 0 0 0 0 0 0 0 29 44 0 94 8 0 0 0 85 100 100 100 100 100 100 100 100 100 88 81 96 4 0 0 99 75 0 42 27 6 2 4 0 0
0 0 0 16 0 0 0 0 0 21 100 88 60 3 0 0 0 64 98 100 100 100 100 100 100 100 42 14 5 40 86 4 12 95 4 6 38 5 66 16 0 1 1
0 0 0 0 0 4 0 0 0 63 100 100 28 0 0 0 0 0 100 100 100 100 100 100 100 100 72 5 3 5 94 12 13 100 31 4 0 4 44 5 5 16 25
37 5 5 0 0 0 3 11 0 33 98 100 14 0 0 3 0 0 68 100 100 100 100 99 100 100 15 5 5 0 64 50 36 70 95 5 5 98 60 14 5 5 5
84 100 100 3 0 0 1 6 53 19 1 56 31 5 74 10 8 2 2 79 100 100 100 100 100 98 31 5 5 2 74 74 97 70 74 5 40 100 87 42 0 5 5
100 100 100 95 7 3 7 4 10 17 0 0 10 16 37 15 48 46 6 3 100 100 91 100 100 99 100 7 28 2 1 99 42 81 5 6 1 75 100 74 0 50 86
54 100 100 100 96 6 37 94 17 0 7 9 16 16 17 2 10 6 19 84 8 100 100 100 100 97 100 89 38 5 16 82 40 85 12 0 14 33 36 1 93 62 89
10 94 100 100 100 21 10 100 35 1 0 3 16 2 10 0 17 46 13 100 99 6 100 100 100 100 100 100 68 12 100 54 3 77 0 4 5 90 100 98 100 100 100
7 88 100 100 100 8 20 84 99 0 19 0 3 4 2 22 13 13 67 100 100 94 100 100 100 100 100 86 89 73 94 81 9 43 13 50 97 47 64 100 92 100 100
42 100 100 100 66 15 10 93 99 0 2 0 1 1 20 23 31 34 49 100 100 100 100 100 100 100 100 90 89 78 70 45 5 27 15 100 100 100 100 100 100 100 100
100 99 99 100 6 13 100 100 100 17 0 0 0 1 34 0 26 65 17 100 100 100 100 100 100 100 100 91 93 97 99 24 27 23 100 100 100 100 100 100 100 100 100
99 70 95 94 10 96 78 62 100 100 73 3 26 59 61 40 46 37 36 100 93 100 100 100 100 100 100 100 87 99 86 78 39 98 97 54 84 100 76 100 100 100 100
35 90 100 100 100 19 22 5 11 76 100 100 27 65 100 78 46 70 30 57 87 100 100 100 100 100 100 100 88 100 100 81 100 44 99 13 98 100 100 100 100 100 100
99 100 100 100 100 100 100 16 6 88 53 99 99 28 77 70 100 94 100 85 82 100 100 100 100 100 100 100 100 99 100 99 84 100 100 100 100 100 100 100 94 74 78
100 100 100 100 100 100 100 68 0 40 93 98 100 44 90 95 58 69 100 100 100 100 100 100 100 100 100 100 100 98 100 100 95 100 100 100 100 100 100 94 55 100 100
94 54 100 83 100 100 100 72 2 63 92 100 100 97 82 100 100 40 100 100 100 100 100 100 100 100 100 100 100 93 100 100 100 100 79 96 100 93 100 58 38 51 24
5 97 100 100 100 100 96 93 66 100 95 100 100 100 97 100 95 65 91 100 100 100 100 100 100 100 100 100 100 100 100 98 100 99 78 18 91 82 90 22 24 52 77
74 5 26 100 100 100 60 89 24 100 100 100 100 100 100 90 86 100 74 71 100 100 100 100 100 100 100 100 100 100 100 100 72 100 100 94 100 99 100 91 71 85 83
100 8 37 100 100 100 97 67 75 100 100 97 100 46 96 40 99 100 44 99 100 100 100 100 100 100 100 100 100 100 100 100 93 99 65 90 62 100 100 90 8 53 100
100 100 100 100 10 97 100 37 98 100 71 100 100 100 83 41 91 100 89 81 100 100 100 100 100 100 100 100 100 100 100 93 100 100 93 54 90 100 59 50 76 93 100

GFSSE_prec_cloud_126.txt.gz
Cloud_Cover
0 0 0 0 0 0 0 0 0 0 0 0 0 0 0 0 0 0 0 0 0 0 0 0 0 0 65 100 99 72 70 6 84 77 89 10 5 5 4 5 5 1 5
0 0 14 0 0 0 0 0 0 0 0 0 0 0 0 0 0 0 0 0 0 0 1 0 0 0 0 5 99 100 16 90 5 5 5 5 0 4 0 0 0 0 4
0 0 0 0 0 0 0 0 0 0 0 0 0 0 0 0 0 0 0 0 2 5 88 96 33 0 4 1 3 20 97 98 24 5 5 0 0 0 0 0 0 0 0
0 0 0 0 0 0 0 0 0 0 0 0 0 0 0 0 0 0 0 10 100 100 100 100 100 100 98 78 3 1 19 10 5 6 4 0 8 5 0 0 0 0 0
0 0 0 0 0 0 0 0 0 0 0 0 0 0 0 0 0 0 0 88 100 100 100 100 100 100 100 100 81 93 4 5 6 100 22 0 0 13 1 0 0 0 0
0 0 0 0 0 0 0 0 0 10 12 0 0 0 0 0 0 0 0 100 100 100 100 100 100 100 100 100 100 100 100 66 85 100 100 0 0 1 8 0 0 0 0
0 0 0 0 0 0 0 0 0 0 91 0 0 0 0 0 0 0 0 100 100 100 100 100 100 100 100 100 100 93 95 86 88 100 27 0 0 4 18 9 5 0 0
0 0 0 0 0 0 0 0 0 0 39 0 94 83 0 0 0 0 0 94 100 100 100 100 100 100 100 100 100 26 5 68 88 68 54 74 4 84 100 29 0 0 0
0 0 0 4 2 32 5 5 1 0 76 0 46 100 0 0 0 0 0 65 100 100 100 100 100 100 100 100 74 5 32 11 5 24 25 24 21 26 99 29 5 0 0
0 0 0 13 97 100 9 100 5 0 79 92 100 25 0 0 0 0 0 36 100 100 100 100 100 100 100 100 100 5 5 5 5 11 26 38 5 7 57 46 11 4 5
0 0 0 19 39 46 100 100 58 1 51 100 100 69 75 0 0 0 0 0 100 100 100 100 100 100 100 100 100 27 2 6 92 31 7 1 4 8 55 31 23 85 7
0 0 0 5 2 77 100 100 9 9 8 79 92 98 48 8 0 0 1 0 68 84 100 100 100 100 100 100 91 5 4 0 73 60 6 41 74 92 100 100 62 36 7
90 100 27 5 1 43 100 80 44 94 5 0 0 9 2 0 13 0 2 5 5 5 100 100 100 100 100 100 90 5 4 5 46 21 54 97 99 79 100 100 44 15 0
45 82 30 7 8 13 100 100 100 32 0 0 0 0 0 0 0 0 1 100 24 80 100 100 100 100 100 100 53 100 30 100 5 14 23 5 0 14 100 100 26 0 5
8 3 1 100 78 68 100 100 70 5 1 2 0 0 0 0 0 0 22 82 100 90 77 93 97 100 100 100 93 10 16 39 100 9 5 0 0 5 100 100 99 95 98
92 34 0 88 100 100 100 100 97 26 5 2 0 0 0 0 0 0 0 12 40 100 100 100 100 100 100 100 100 34 64 96 92 2 12 59 40 58 95 100 90 72 100
100 80 62 99 100 100 100 73 100 100 100 4 0 0 0 0 0 0 0 0 5 100 100 99 100 100 100 100 100 99 43 100 100 14 6 30 96 99 100 100 100 100 100
100 100 100 100 100 100 30 75 100 100 100 67 14 0 0 0 0 0 1 0 7 100 100 100 100 100 100 100 100 100 99 100 30 7 18 5 64 75 100 100 100 100 100
7 48 29 25 4 19 73 86 100 100 100 53 43 36 0 0 0 0 0 3 3 90 100 100 100 100 100 100 100 100 98 100 61 33 5 74 100 79 99 100 100 100 100
14 6 40 100 70 97 100 100 93 100 100 52 5 76 5 0 36 10 11 30 41 74 100 100 100 100 100 100 100 100 96 100 100 76 100 95 100 34 100 100 100 100 100
84 28 5 5 39 16 29 74 20 92 100 100 7 87 100 47 1 14 67 100 100 100 86 100 100 100 100 100 100 100 100 100 68 100 100 99 100 100 99 100 100 69 98
5 6 7 100 99 58 11 51 100 100 100 83 23 60 100 100 46 82 99 100 100 100 100 99 100 100 100 100 100 100 100 95 100 100 100 100 100 100 100 100 100 100 99
97 11 22 42 45 5 30 77 89 100 100 100 100 100 68 100 100 100 91 82 100 100 100 100 98 100 100 100 100 100 100 86 97 100 91 96 100 94 26 96 27 100 100
100 100 99 84 19 94 100 14 87 94 100 93 99 100 100 100 100 100 100 93 99 100 100 100 100 100 100 100 100 100 100 95 45 89 100 83 100 95 95 69 81 100 62
100 100 100 65 42 25 100 100 83 100 41 100 95 100 100 100 100 100 100 92 95 100 100 100 100 95 100 100 100 100 100 93 100 100 82 100 100 100 99 74 16 45 94
100 100 100 100 100 100 100 100 100 100 96 84 100 100 100 100 100 100 100 49 100 100 100 100 100 100 100 100 100 100 100 95 100 100 100 100 100 100 100 88 52 71 50

GFSSE_prec_cloud_129.txt.gz
Cloud_Cover
0 7 0 0 0 0 0 0 0 0 0 0 0 0 0 0 0 0 0 0 0 0 0 0 0 0 0 3 5 33 100 99 83 14 72 82 99 100 100 100 100 100 100
0 4 0 0 0 0 0 0 0 0 0 0 0 0 0 0 0 0 0 0 0 0 0 18 54 59 35 81 50 5 5 5 8 51 65 40 100 98 100 97 100 100 100
0 0 0 0 0 0 0 0 0 0 0 0 0 0 0 0 0 0 0 0 0 0 98 100 100 100 76 100 67 5 78 33 50 11 5 5 94 100 21 5 12 80 50
0 0 0 0 0 0 0 0 0 0 0 0 0 0 0 0 0 0 0 0 0 65 100 100 100 100 100 100 100 100 60 5 26 5 5 1 0 0 3 3 4 4 5
0 0 0 0 0 0 0 0 0 0 0 0 0 0 0 0 0 0 0 0 0 100 100 100 100 100 100 100 100 100 100 100 58 62 16 37 4 0 1 4 1 0 0
0 0 0 0 0 0 0 0 0 0 0 0 0 0 0 0 0 0 0 0 0 88 100 100 100 100 100 100 92 92 100 100 100 99 37 58 72 8 5 0 0 0 0
0 0 0 0 0 0 0 0 2 5 0 0 0 0 0 0 0 0 0 0 0 94 100 100 100 100 100 100 93 58 100 51 99 97 54 5 4 6 41 12 4 4 1
0 0 0 0 0 0 0 1 34 78 4 6 2 0 0 0 0 0 0 0 0 32 100 100 100 100 100 100 100 100 44 19 100 100 63 92 62 30 100 93 5 74 93
0 0 1 3 5 0 0 25 100 100 7 98 30 7 0 0 0 0 0 0 0 0 100 100 100 100 100 100 75 13 28 100 38 94 99 100 84 17 83 100 33 10 19
2 0 1 11 20 45 26 4 2 5 88 13 66 78 0 0 0 0 0 0 0 0 4 100 100 100 100 100 100 100 79 100 88 14 37 59 53 67 100 100 63 28 33
40 4 0 3 14 39 39 14 1 64 31 17 94 100 19 1 0 0 0 0 0 0 0 100 100 100 100 100 100 97 87 80 100 51 100 100 100 100 90 30 55 40 57
5 5 0 0 2 100 84 44 26 71 40 76 100 100 38 0 0 0 0 0 0 4 1 37 100 100 100 100 100 100 87 93 98 3 53 99 98 23 33 77 61 85 21
40 74 100 16 0 1 5 55 58 47 98 100 100 100 100 38 0 0 0 0 3 8 90 95 100 100 100 100 100 100 49 100 81 10 40 100 8 5 99 100 58 33 27
100 100 100 99 12 0 4 58 95 100 63 100 100 35 76 44 14 0 0 0 12 60 100 100 82 100 100 100 100 100 100 100 93 23 20 95 5 100 88 100 98 100 28
96 100 100 100 100 9 18 25 27 66 89 100 100 50 43 32 7 0 0 3 19 44 100 96 78 100 100 100 100 100 100 100 17 35 26 5 6 100 81 81 99 25 4
95 7 59 100 100 86 100 83 57 85 100 100 100 7 28 62 1 0 5 28 3 1 75 97 100 100 92 100 100 100 100 100 100 100 47 72 87 16 0 1 19 89 94
100 99 76 3 79 100 100 53 98 100 98 100 100 64 33 81 0 0 0 0 0 1 71 100 100 100 100 100 100 100 100 100 27 62 6 6 45 11 35 100 85 98 100
98 100 83 18 100 100 100 97 8 41 29 26 100 100 100 5 0 7 0 0 0 1 36 100 100 100 100 100 100 100 100 100 90 99 5 5 5 9 58 100 100 100 100
100 100 100 100 88 83 97 98 76 94 100 94 98 100 84 4 1 0 1 12 37 14 27 84 100 100 100 100 100 100 100 100 100 79 5 30 5 10 100 100 100 100 93
57 100 100 100 100 8 6 81 100 81 100 100 96 76 100 14 1 10 3 55 61 46 56 80 100 100 100 100 100 100 100 100 100 66 8 23 5 72 100 100 98 97 100
40 94 100 98 42 5 5 39 100 72 8 97 55 83 92 96 2 5 0 51 100 57 44 39 96 100 100 100 100 100 100 100 100 100 67 61 65 99 93 90 100 100 100
100 100 100 100 28 4 4 28 99 100 97 100 96 22 100 63 94 23 26 84 81 86 98 100 83 100 100 100 100 100 100 100 100 100 100 73 97 100 100 85 99 92 100
100 100 100 100 100 100 34 4 3 68 63 50 100 100 69 100 23 100 52 18 50 100 100 100 100 91 100 100 100 100 100 100 100 100 100 100 93 100 100 100 100 100 100
100 100 100 100 100 100 100 100 60 21 38 55 99 100 100 100 26 89 100 100 99 100 100 100 100 100 100 100 100 100 100 100 80 100 90 100 100 100 100 100 87 25 49
99 100 100 100 100 100 100 100 100 100 36 23 98 100 100 100 100 55 100 100 100 100 100 100 88 100 66 100 90 100 100 100 100 100 56 99 100 100 100 100 27 99 100
100 100 100 100 100 100 100 100 100 100 55 90 100 100 100 100 100 100 100 100 100 100 100 100 100 100 90 98 100 100 100 100 100 100 100 93 97 100 100 99 97 99 100

GFSSE_prec_cloud_132.txt.gz
Cloud_Cover
0 4 0 0 0 0 0 0 0 0 0 0 0 0 0 0 0 0 0 0 0 0 0 0 0 0 1 0 12 100 100 100 100 100 86 96 100 100 100 100 100 100 100
0 15 0 0 0 0 0 0 0 0 0 0 0 0 0 0 0 0 0 0 0 0 0 0 1 65 98 76 31 13 98 100 93 100 94 12 80 100 100 100 100 100 100
0 1 0 0 0 0 0 0 0 0 0 0 0 0 0 0 0 0 0 0 0 0 0 0 7 100 100 100 100 100 100 100 100 40 63 30 74 43 96 100 100 100 100
0 0 0 0 0 0 0 0 0 0 0 0 0 0 0 0 0 0 0 0 0 0 0 0 93 100 100 100 99 100 100 100 100 97 99 54 7 5 0 12 55 100 98
0 0 0 0 0 0 0 0 0 0 0 1 0 1 0 0 0 0 0 0 0 0 0 0 100 100 100 95 63 97 100 100 100 100 31 59 19 23 38 4 7 0 1
0 0 0 0 0 0 0 0 0 0 0 2 3 1 8 0 0 0 0 0 0 0 0 0 97 100 100 100 100 100 100 100 100 100 100 73 5 33 94 42 5 4 5
0 0 0 0 0 0 0 0 0 0 0 0 1 5 5 0 0 0 0 0 0 0 0 0 100 100 100 100 100 100 100 92 100 100 100 100 16 5 87 30 49 23 54
2 1 5 4 1 0 5 5 1 0 0 0 0 5 5 0 0 0 0 0 0 0 0 0 92 100 100 100 100 100 100 100 100 73 99 100 67 100 100 100 100 63 72
0 5 5 9 3 5 5 8 15 5 8 2 0 3 4 0 1 0 0 0 0 0 0 0 0 100 100 100 100 100 82 78 95 100 99 96 58 80 100 100 31 13 66
5 0 12 38 24 17 42 10 13 40 95 98 5 4 0 5 0 0 0 0 0 0 0 0 0 38 100 100 100 100 100 31 23 88 90 100 100 100 100 100 100 99 70
7 4 7 42 55 40 35 30 26 100 100 99 5 5 42 2 0 0 0 0 0 0 0 0 1 4 100 100 100 100 100 100 6 52 27 26 66 100 100 100 100 100 69
100 87 8 21 53 67 44 50 70 17 27 84 26 99 82 11 5 0 0 0 5 0 0 0 5 5 5 100 100 100 100 100 26 93 5 73 100 100 100 100 100 86 10
36 71 47 86 72 57 100 100 100 50 19 37 100 100 100 54 5 5 14 3 13 0 33 42 47 37 6 66 100 100 100 100 99 60 5 28 9 100 100 100 63 100 57
1 9 100 99 43 100 96 100 100 100 60 35 96 100 100 95 54 18 5 76 18 61 58 86 84 60 33 74 100 100 100 100 96 5 54 7 6 100 100 100 100 100 100
0 0 24 82 100 100 97 100 100 100 100 100 99 100 100 100 97 33 7 11 22 100 100 100 100 100 41 98 100 100 100 100 100 95 33 4 37 100 100 99 100 100 100
1 48 5 10 57 62 29 98 76 76 100 99 100 100 100 100 100 50 50 30 25 96 100 100 63 100 100 100 100 100 100 100 100 100 94 100 99 18 100 100 100 100 100
5 7 99 59 61 100 100 99 100 22 100 97 100 76 100 100 100 75 90 54 48 54 78 43 22 100 100 100 100 100 100 100 100 100 100 100 97 10 94 100 74 100 84
1 5 27 98 100 100 100 100 46 17 36 100 100 100 99 90 43 40 24 39 42 50 56 41 50 100 100 100 100 100 100 100 100 100 100 100 100 77 86 17 20 100 100
0 0 8 98 70 100 100 100 96 86 100 100 100 100 15 55 20 6 8 12 57 98 73 59 47 100 100 100 100 100 100 100 100 100 100 100 54 68 5 5 99 100 100
5 4 2 74 100 100 100 100 100 100 100 100 93 95 83 68 34 5 10 98 100 99 98 99 88 96 100 100 100 100 100 100 100 100 100 63 48 75 11 5 82 100 100
32 5 5 16 100 100 100 100 100 100 100 100 45 98 46 99 78 23 100 100 100 92 95 100 51 67 100 96 100 100 100 100 100 100 100 99 82 57 29 100 100 100 100
99 91 100 44 7 95 100 100 100 100 91 64 54 9 84 26 36 47 97 93 98 80 100 89 80 100 79 95 100 100 100 100 100 100 100 100 99 87 96 95 96 100 100
100 95 100 100 69 74 100 100 100 100 99 80 51 13 5 8 53 21 47 99 100 90 94 97 100 100 99 99 100 100 100 100 100 100 100 100 100 100 90 83 100 71 98
99 100 100 100 100 100 100 100 100 100 100 100 91 59 5 90 99 45 44 46 78 83 100 63 100 100 100 99 94 100 97 100 100 100 100 100 100 100 100 99 97 99 100
100 100 100 100 100 100 100 100 96 100 100 100 100 100 100 78 40 100 67 80 100 100 97 84 98 100 100 88 74 100 100 100 100 100 100 100 100 100 100 100 100 100 100
100 100 100 100 100 100 100 90 53 100 100 100 100 100 100 81 100 98 92 66 90 100 100 99 100 100 100 100 31 100 100 93 100 100 100 100 100 99 70 100 100 100 100